Time,TemperatureF,DewpointF,PressureIn,WindDirection,WindDirectionDegrees,WindSpeedMPH,WindSpeedGustMPH,Humidity,HourlyPrecipIn,Conditions,Clouds,dailyrainin,SoftwareType,DateUTC
2013-03-17 00:00:00,63.7,16.7,25.25,South,180,4.9,4.9,16,0.00,,---,0.00,VWS V14.01,2013-03-17 05:00:00,
2013-03-17 00:01:00,63.9,16.8,25.25,South,180,4.9,4.9,16,0.00,,---,0.00,VWS V14.01,2013-03-17 05:01:00,
2013-03-17 00:02:00,63.9,16.8,25.25,South,180,4.9,4.9,16,0.00,,---,0.00,VWS V14.01,2013-03-17 05:02:00,
2013-03-17 00:03:00,63.1,16.2,25.25,South,180,4.9,4.9,16,0.00,,---,0.00,VWS V14.01,2013-03-17 05:03:00,
2013-03-17 00:04:00,63.0,16.1,25.25,South,180,4.9,4.9,16,0.00,,---,0.00,VWS V14.01,2013-03-17 05:04:00,
2013-03-17 00:05:00,62.8,15.9,25.25,South,180,4.9,4.9,16,0.00,,---,0.00,VWS V14.01,2013-03-17 05:05:00,
2013-03-17 00:06:00,62.6,15.8,25.25,South,180,4.9,4.9,16,0.00,,---,0.00,VWS V14.01,2013-03-17 05:06:00,
2013-03-17 00:07:00,62.2,15.5,25.25,South,180,4.9,4.9,16,0.00,,---,0.00,VWS V14.01,2013-03-17 05:07:00,
2013-03-17 00:08:00,62.2,15.5,25.25,South,180,4.9,4.9,16,0.00,,---,0.00,VWS V14.01,2013-03-17 05:08:00,
2013-03-17 00:09:00,62.1,15.4,25.25,South,180,4.9,4.9,16,0.00,,---,0.00,VWS V14.01,2013-03-17 05:09:00,
2013-03-17 00:10:00,62.1,15.4,25.25,South,180,4.9,4.9,16,0.00,,---,0.00,VWS V14.01,2013-03-17 05:10:00,
2013-03-17 00:11:00,62.1,15.4,25.25,South,180,4.9,4.9,16,0.00,,---,0.00,VWS V14.01,2013-03-17 05:11:00,
2013-03-17 00:12:00,62.4,15.7,25.25,South,180,4.9,4.9,16,0.00,,---,0.00,VWS V14.01,2013-03-17 05:12:00,
2013-03-17 00:13:00,62.4,15.7,25.25,South,180,4.9,4.9,16,0.00,,---,0.00,VWS V14.01,2013-03-17 05:13:00,
2013-03-17 00:14:00,62.6,15.8,25.25,South,180,4.9,4.9,16,0.00,,---,0.00,VWS V14.01,2013-03-17 05:14:00,
2013-03-17 00:16:00,62.4,15.7,25.25,South,180,4.9,4.9,16,0.00,,---,0.00,VWS V14.01,2013-03-17 05:16:00,
2013-03-17 00:17:00,61.9,15.2,25.25,South,180,4.9,4.9,16,0.00,,---,0.00,VWS V14.01,2013-03-17 05:17:00,
2013-03-17 00:18:00,61.9,15.2,25.25,South,180,4.9,4.9,16,0.00,,---,0.00,VWS V14.01,2013-03-17 05:18:00,
2013-03-17 00:19:00,61.9,15.2,25.25,South,180,4.9,4.9,16,0.00,,---,0.00,VWS V14.01,2013-03-17 05:19:00,
2013-03-17 00:20:00,61.9,15.2,25.25,South,180,4.9,4.9,16,0.00,,---,0.00,VWS V14.01,2013-03-17 05:20:00,
2013-03-17 00:21:00,61.9,15.2,25.25,South,180,4.9,4.9,16,0.00,,---,0.00,VWS V14.01,2013-03-17 05:21:00,
2013-03-17 00:22:00,61.7,15.1,25.25,South,180,4.9,4.9,16,0.00,,---,0.00,VWS V14.01,2013-03-17 05:22:00,
2013-03-17 00:23:00,61.7,15.1,25.25,South,180,4.9,4.9,16,0.00,,---,0.00,VWS V14.01,2013-03-17 05:23:00,
2013-03-17 00:24:00,61.9,15.2,25.28,South,180,4.9,4.9,16,0.00,,---,0.00,VWS V14.01,2013-03-17 05:24:00,
2013-03-17 00:25:00,61.9,15.2,25.28,South,180,4.9,4.9,16,0.00,,---,0.00,VWS V14.01,2013-03-17 05:25:00,
2013-03-17 00:26:00,61.9,15.2,25.28,South,180,4.9,4.9,16,0.00,,---,0.00,VWS V14.01,2013-03-17 05:26:00,
2013-03-17 00:27:00,61.3,14.8,25.28,South,180,4.9,4.9,16,0.00,,---,0.00,VWS V14.01,2013-03-17 05:27:00,
2013-03-17 00:28:00,61.3,14.8,25.28,South,180,4.9,4.9,16,0.00,,---,0.00,VWS V14.01,2013-03-17 05:28:00,
2013-03-17 00:29:00,60.8,14.4,25.28,South,180,4.9,4.9,16,0.00,,---,0.00,VWS V14.01,2013-03-17 05:29:00,
2013-03-17 00:30:00,60.6,15.6,25.28,South,180,4.9,4.9,17,0.00,,---,0.00,VWS V14.01,2013-03-17 05:30:00,
2013-03-17 00:31:00,60.6,15.6,25.28,South,180,4.9,4.9,17,0.00,,---,0.00,VWS V14.01,2013-03-17 05:31:00,
2013-03-17 00:32:00,60.8,14.4,25.28,South,180,4.9,4.9,16,0.00,,---,0.00,VWS V14.01,2013-03-17 05:32:00,
2013-03-17 00:33:00,60.8,14.4,25.28,South,180,4.9,4.9,16,0.00,,---,0.00,VWS V14.01,2013-03-17 05:33:00,
2013-03-17 00:34:00,61.2,14.6,25.28,South,180,4.9,4.9,16,0.00,,---,0.00,VWS V14.01,2013-03-17 05:34:00,
2013-03-17 00:35:00,61.3,14.8,25.28,South,180,4.9,4.9,16,0.00,,---,0.00,VWS V14.01,2013-03-17 05:35:00,
2013-03-17 00:36:00,61.7,15.1,25.28,South,180,4.9,4.9,16,0.00,,---,0.00,VWS V14.01,2013-03-17 05:36:00,
2013-03-17 00:37:00,61.7,15.1,25.28,South,180,4.9,4.9,16,0.00,,---,0.00,VWS V14.01,2013-03-17 05:37:00,
2013-03-17 00:38:00,61.7,15.1,25.28,South,180,4.9,4.9,16,0.00,,---,0.00,VWS V14.01,2013-03-17 05:38:00,
2013-03-17 00:39:00,61.9,15.2,25.25,South,180,4.9,4.9,16,0.00,,---,0.00,VWS V14.01,2013-03-17 05:39:00,
2013-03-17 00:40:00,61.9,15.2,25.25,South,180,4.9,4.9,16,0.00,,---,0.00,VWS V14.01,2013-03-17 05:40:00,
2013-03-17 00:41:00,61.7,15.1,25.25,South,180,4.9,4.9,16,0.00,,---,0.00,VWS V14.01,2013-03-17 05:41:00,
2013-03-17 00:42:00,61.3,14.8,25.25,South,180,4.9,4.9,16,0.00,,---,0.00,VWS V14.01,2013-03-17 05:42:00,
2013-03-17 00:43:00,61.7,15.1,25.25,South,180,4.9,4.9,16,0.00,,---,0.00,VWS V14.01,2013-03-17 05:43:00,
2013-03-17 00:44:00,62.2,15.5,25.25,South,180,4.9,4.9,16,0.00,,---,0.00,VWS V14.01,2013-03-17 05:44:00,
2013-03-17 00:45:00,62.4,15.7,25.25,South,180,4.9,4.9,16,0.00,,---,0.00,VWS V14.01,2013-03-17 05:45:00,
2013-03-17 00:46:00,63.1,16.2,25.25,South,180,4.9,4.9,16,0.00,,---,0.00,VWS V14.01,2013-03-17 05:46:00,
2013-03-17 00:47:00,63.3,16.4,25.25,South,180,4.9,4.9,16,0.00,,---,0.00,VWS V14.01,2013-03-17 05:47:00,
2013-03-17 00:48:00,63.5,16.5,25.25,South,180,4.9,4.9,16,0.00,,---,0.00,VWS V14.01,2013-03-17 05:48:00,
2013-03-17 00:49:00,63.5,16.5,25.25,South,180,4.9,4.9,16,0.00,,---,0.00,VWS V14.01,2013-03-17 05:49:00,
2013-03-17 00:50:00,63.5,16.5,25.25,South,180,4.9,4.9,16,0.00,,---,0.00,VWS V14.01,2013-03-17 05:50:00,
2013-03-17 00:51:00,63.7,16.7,25.25,South,180,4.9,4.9,16,0.00,,---,0.00,VWS V14.01,2013-03-17 05:51:00,
2013-03-17 00:52:00,63.7,16.7,25.25,South,180,4.9,4.9,16,0.00,,---,0.00,VWS V14.01,2013-03-17 05:52:00,
2013-03-17 00:53:00,63.7,16.7,25.25,South,180,4.9,4.9,16,0.00,,---,0.00,VWS V14.01,2013-03-17 05:53:00,
2013-03-17 00:54:00,64.2,17.1,25.25,South,180,4.9,4.9,16,0.00,,---,0.00,VWS V14.01,2013-03-17 05:54:00,
2013-03-17 00:55:00,64.2,17.1,25.25,South,180,4.9,4.9,16,0.00,,---,0.00,VWS V14.01,2013-03-17 05:55:00,
2013-03-17 00:56:00,64.2,17.1,25.25,South,180,4.9,4.9,16,0.00,,---,0.00,VWS V14.01,2013-03-17 05:56:00,
2013-03-17 00:57:00,64.4,15.8,25.25,South,180,4.9,4.9,15,0.00,,---,0.00,VWS V14.01,2013-03-17 05:57:00,
2013-03-17 00:58:00,64.4,15.8,25.25,South,180,4.9,4.9,15,0.00,,---,0.00,VWS V14.01,2013-03-17 05:58:00,
2013-03-17 00:59:00,64.4,15.8,25.25,South,180,4.9,4.9,15,0.00,,---,0.00,VWS V14.01,2013-03-17 05:59:00,
2013-03-17 01:00:00,64.4,15.8,25.25,South,180,4.9,4.9,15,0.00,,---,0.00,VWS V14.01,2013-03-17 06:00:00,
2013-03-17 01:01:00,64.6,15.9,25.25,South,180,4.9,4.9,15,0.00,,---,0.00,VWS V14.01,2013-03-17 06:01:00,
2013-03-17 01:02:00,64.6,15.9,25.25,South,180,4.9,4.9,15,0.00,,---,0.00,VWS V14.01,2013-03-17 06:02:00,
2013-03-17 01:03:00,64.8,16.1,25.25,South,180,4.9,4.9,15,0.00,,---,0.00,VWS V14.01,2013-03-17 06:03:00,
2013-03-17 01:04:00,64.6,15.9,25.25,South,180,4.9,4.9,15,0.00,,---,0.00,VWS V14.01,2013-03-17 06:04:00,
2013-03-17 01:05:00,64.4,15.8,25.25,South,180,4.9,4.9,15,0.00,,---,0.00,VWS V14.01,2013-03-17 06:05:00,
2013-03-17 01:06:00,64.2,17.1,25.25,South,180,4.9,4.9,16,0.00,,---,0.00,VWS V14.01,2013-03-17 06:06:00,
2013-03-17 01:07:00,64.2,17.1,25.25,South,180,4.9,4.9,16,0.00,,---,0.00,VWS V14.01,2013-03-17 06:07:00,
2013-03-17 01:08:00,64.2,17.1,25.25,South,180,4.9,4.9,16,0.00,,---,0.00,VWS V14.01,2013-03-17 06:08:00,
2013-03-17 01:09:00,64.2,17.1,25.25,South,180,4.9,4.9,16,0.00,,---,0.00,VWS V14.01,2013-03-17 06:09:00,
2013-03-17 01:10:00,64.0,17.0,25.25,South,180,4.9,4.9,16,0.00,,---,0.00,VWS V14.01,2013-03-17 06:10:00,
2013-03-17 01:11:00,64.0,17.0,25.25,South,180,4.9,4.9,16,0.00,,---,0.00,VWS V14.01,2013-03-17 06:11:00,
2013-03-17 01:12:00,64.0,17.0,25.25,South,180,4.9,4.9,16,0.00,,---,0.00,VWS V14.01,2013-03-17 06:12:00,
2013-03-17 01:13:00,64.0,17.0,25.25,South,180,4.9,4.9,16,0.00,,---,0.00,VWS V14.01,2013-03-17 06:13:00,
2013-03-17 01:14:00,64.2,17.1,25.25,South,180,4.9,4.9,16,0.00,,---,0.00,VWS V14.01,2013-03-17 06:14:00,
2013-03-17 01:15:00,64.2,17.1,25.25,South,180,4.9,4.9,16,0.00,,---,0.00,VWS V14.01,2013-03-17 06:15:00,
2013-03-17 01:16:00,64.0,17.0,25.25,South,180,4.9,4.9,16,0.00,,---,0.00,VWS V14.01,2013-03-17 06:16:00,
2013-03-17 01:17:00,63.9,16.8,25.25,South,180,4.9,4.9,16,0.00,,---,0.00,VWS V14.01,2013-03-17 06:17:00,
2013-03-17 01:18:00,63.9,16.8,25.25,South,180,4.9,4.9,16,0.00,,---,0.00,VWS V14.01,2013-03-17 06:18:00,
2013-03-17 01:19:00,64.0,17.0,25.25,South,180,4.9,4.9,16,0.00,,---,0.00,VWS V14.01,2013-03-17 06:19:00,
2013-03-17 01:20:00,64.0,17.0,25.25,South,180,4.9,4.9,16,0.00,,---,0.00,VWS V14.01,2013-03-17 06:20:00,
2013-03-17 01:21:00,64.0,17.0,25.25,South,180,4.9,4.9,16,0.00,,---,0.00,VWS V14.01,2013-03-17 06:21:00,
2013-03-17 01:22:00,64.0,17.0,25.25,South,180,4.9,4.9,16,0.00,,---,0.00,VWS V14.01,2013-03-17 06:22:00,
2013-03-17 01:23:00,63.9,16.8,25.25,South,180,4.9,4.9,16,0.00,,---,0.00,VWS V14.01,2013-03-17 06:23:00,
2013-03-17 01:24:00,63.5,16.5,25.25,South,180,4.9,4.9,16,0.00,,---,0.00,VWS V14.01,2013-03-17 06:24:00,
2013-03-17 01:25:00,63.5,16.5,25.25,South,180,4.9,4.9,16,0.00,,---,0.00,VWS V14.01,2013-03-17 06:25:00,
2013-03-17 01:26:00,63.5,16.5,25.25,South,180,4.9,4.9,16,0.00,,---,0.00,VWS V14.01,2013-03-17 06:26:00,
2013-03-17 01:27:00,63.5,16.5,25.25,South,180,4.9,4.9,16,0.00,,---,0.00,VWS V14.01,2013-03-17 06:27:00,
2013-03-17 01:28:00,63.5,16.5,25.25,South,180,4.9,4.9,16,0.00,,---,0.00,VWS V14.01,2013-03-17 06:28:00,
2013-03-17 01:29:00,64.0,17.0,25.25,South,180,4.9,4.9,16,0.00,,---,0.00,VWS V14.01,2013-03-17 06:29:00,
2013-03-17 01:30:00,64.2,17.1,25.25,South,180,4.9,4.9,16,0.00,,---,0.00,VWS V14.01,2013-03-17 06:30:00,
2013-03-17 01:31:00,64.4,15.8,25.25,South,180,4.9,4.9,15,0.00,,---,0.00,VWS V14.01,2013-03-17 06:31:00,
2013-03-17 01:33:00,64.4,15.8,25.25,South,180,4.9,4.9,15,0.00,,---,0.00,VWS V14.01,2013-03-17 06:33:00,
2013-03-17 01:34:00,64.2,17.1,25.25,South,180,4.9,4.9,16,0.00,,---,0.00,VWS V14.01,2013-03-17 06:34:00,
2013-03-17 01:35:00,64.0,17.0,25.25,South,180,4.9,4.9,16,0.00,,---,0.00,VWS V14.01,2013-03-17 06:35:00,
2013-03-17 01:36:00,63.9,16.8,25.25,South,180,4.9,4.9,16,0.00,,---,0.00,VWS V14.01,2013-03-17 06:36:00,
2013-03-17 01:37:00,63.9,16.8,25.25,South,180,4.9,4.9,16,0.00,,---,0.00,VWS V14.01,2013-03-17 06:37:00,
2013-03-17 01:38:00,63.5,16.5,25.25,South,180,4.9,4.9,16,0.00,,---,0.00,VWS V14.01,2013-03-17 06:38:00,
2013-03-17 01:39:00,63.7,16.7,25.25,South,180,4.9,4.9,16,0.00,,---,0.00,VWS V14.01,2013-03-17 06:39:00,
2013-03-17 01:40:00,63.9,16.8,25.22,South,180,4.9,4.9,16,0.00,,---,0.00,VWS V14.01,2013-03-17 06:40:00,
2013-03-17 01:41:00,64.0,17.0,25.22,South,180,4.9,4.9,16,0.00,,---,0.00,VWS V14.01,2013-03-17 06:41:00,
2013-03-17 01:42:00,64.2,17.1,25.22,South,180,4.9,4.9,16,0.00,,---,0.00,VWS V14.01,2013-03-17 06:42:00,
2013-03-17 01:43:00,64.4,15.8,25.22,South,180,4.9,4.9,15,0.00,,---,0.00,VWS V14.01,2013-03-17 06:43:00,
2013-03-17 01:44:00,64.4,15.8,25.22,South,180,4.9,4.9,15,0.00,,---,0.00,VWS V14.01,2013-03-17 06:44:00,
2013-03-17 01:45:00,64.4,15.8,25.22,South,180,4.9,4.9,15,0.00,,---,0.00,VWS V14.01,2013-03-17 06:45:00,
2013-03-17 01:46:00,64.6,15.9,25.22,South,180,4.9,4.9,15,0.00,,---,0.00,VWS V14.01,2013-03-17 06:46:00,
2013-03-17 01:47:00,64.6,15.9,25.22,South,180,4.9,4.9,15,0.00,,---,0.00,VWS V14.01,2013-03-17 06:47:00,
2013-03-17 01:48:00,64.6,15.9,25.22,South,180,4.9,4.9,15,0.00,,---,0.00,VWS V14.01,2013-03-17 06:48:00,
2013-03-17 01:49:00,64.2,17.1,25.22,South,180,4.9,4.9,16,0.00,,---,0.00,VWS V14.01,2013-03-17 06:49:00,
2013-03-17 01:50:00,64.2,17.1,25.22,South,180,4.9,4.9,16,0.00,,---,0.00,VWS V14.01,2013-03-17 06:50:00,
2013-03-17 01:51:00,64.0,17.0,25.22,South,180,4.9,4.9,16,0.00,,---,0.00,VWS V14.01,2013-03-17 06:51:00,
2013-03-17 01:52:00,64.0,17.0,25.22,South,180,4.9,4.9,16,0.00,,---,0.00,VWS V14.01,2013-03-17 06:52:00,
2013-03-17 01:53:00,64.2,17.1,25.22,South,180,4.9,4.9,16,0.00,,---,0.00,VWS V14.01,2013-03-17 06:53:00,
2013-03-17 01:54:00,64.2,17.1,25.25,South,180,4.9,4.9,16,0.00,,---,0.00,VWS V14.01,2013-03-17 06:54:00,
2013-03-17 01:55:00,64.2,17.1,25.25,South,180,4.9,4.9,16,0.00,,---,0.00,VWS V14.01,2013-03-17 06:55:00,
2013-03-17 01:56:00,64.2,17.1,25.25,South,180,4.9,4.9,16,0.00,,---,0.00,VWS V14.01,2013-03-17 06:56:00,
2013-03-17 01:57:00,64.2,17.1,25.25,South,180,4.9,4.9,16,0.00,,---,0.00,VWS V14.01,2013-03-17 06:57:00,
2013-03-17 01:58:00,64.0,17.0,25.25,South,180,4.9,4.9,16,0.00,,---,0.00,VWS V14.01,2013-03-17 06:58:00,
2013-03-17 01:59:00,64.0,17.0,25.25,South,180,4.9,4.9,16,0.00,,---,0.00,VWS V14.01,2013-03-17 06:59:00,
2013-03-17 02:01:00,64.0,17.0,25.25,South,180,4.9,4.9,16,0.00,,---,0.00,VWS V14.01,2013-03-17 07:01:00,
2013-03-17 02:02:00,64.2,17.1,25.25,South,180,4.9,4.9,16,0.00,,---,0.00,VWS V14.01,2013-03-17 07:02:00,
2013-03-17 02:04:00,64.2,17.1,25.25,South,180,4.9,4.9,16,0.00,,---,0.00,VWS V14.01,2013-03-17 07:04:00,
2013-03-17 02:05:00,64.0,17.0,25.25,South,180,4.9,4.9,16,0.00,,---,0.00,VWS V14.01,2013-03-17 07:05:00,
2013-03-17 02:06:00,63.9,16.8,25.25,South,180,4.9,4.9,16,0.00,,---,0.00,VWS V14.01,2013-03-17 07:06:00,
2013-03-17 02:07:00,63.9,16.8,25.25,South,180,4.9,4.9,16,0.00,,---,0.00,VWS V14.01,2013-03-17 07:07:00,
2013-03-17 02:08:00,63.9,16.8,25.25,South,180,4.9,4.9,16,0.00,,---,0.00,VWS V14.01,2013-03-17 07:08:00,
2013-03-17 02:09:00,63.7,16.7,25.25,South,180,4.9,4.9,16,0.00,,---,0.00,VWS V14.01,2013-03-17 07:09:00,
2013-03-17 02:10:00,63.7,16.7,25.25,South,180,4.9,4.9,16,0.00,,---,0.00,VWS V14.01,2013-03-17 07:10:00,
2013-03-17 02:11:00,63.7,16.7,25.25,South,180,4.9,4.9,16,0.00,,---,0.00,VWS V14.01,2013-03-17 07:11:00,
2013-03-17 02:12:00,63.5,16.5,25.25,South,180,4.9,4.9,16,0.00,,---,0.00,VWS V14.01,2013-03-17 07:12:00,
2013-03-17 02:13:00,63.5,16.5,25.25,South,180,4.9,4.9,16,0.00,,---,0.00,VWS V14.01,2013-03-17 07:13:00,
2013-03-17 02:14:00,63.5,16.5,25.25,South,180,4.9,4.9,16,0.00,,---,0.00,VWS V14.01,2013-03-17 07:14:00,
2013-03-17 02:15:00,63.3,16.4,25.25,South,180,4.9,4.9,16,0.00,,---,0.00,VWS V14.01,2013-03-17 07:15:00,
2013-03-17 02:16:00,63.3,16.4,25.25,South,180,4.9,4.9,16,0.00,,---,0.00,VWS V14.01,2013-03-17 07:16:00,
2013-03-17 02:17:00,63.5,16.5,25.25,South,180,4.9,4.9,16,0.00,,---,0.00,VWS V14.01,2013-03-17 07:17:00,
2013-03-17 02:18:00,63.5,16.5,25.25,South,180,4.9,4.9,16,0.00,,---,0.00,VWS V14.01,2013-03-17 07:18:00,
2013-03-17 02:19:00,63.7,16.7,25.25,South,180,4.9,4.9,16,0.00,,---,0.00,VWS V14.01,2013-03-17 07:19:00,
2013-03-17 02:20:00,63.7,16.7,25.25,South,180,4.9,4.9,16,0.00,,---,0.00,VWS V14.01,2013-03-17 07:20:00,
2013-03-17 02:21:00,63.9,16.8,25.25,South,180,4.9,4.9,16,0.00,,---,0.00,VWS V14.01,2013-03-17 07:21:00,
2013-03-17 02:22:00,63.9,16.8,25.25,South,180,4.9,4.9,16,0.00,,---,0.00,VWS V14.01,2013-03-17 07:22:00,
2013-03-17 02:23:00,63.9,16.8,25.25,South,180,4.9,4.9,16,0.00,,---,0.00,VWS V14.01,2013-03-17 07:23:00,
2013-03-17 02:24:00,64.0,17.0,25.25,South,180,4.9,4.9,16,0.00,,---,0.00,VWS V14.01,2013-03-17 07:24:00,
2013-03-17 02:25:00,64.2,17.1,25.25,South,180,4.9,4.9,16,0.00,,---,0.00,VWS V14.01,2013-03-17 07:25:00,
2013-03-17 02:26:00,64.2,17.1,25.25,South,180,4.9,4.9,16,0.00,,---,0.00,VWS V14.01,2013-03-17 07:26:00,
2013-03-17 02:27:00,64.2,17.1,25.25,South,180,4.9,4.9,16,0.00,,---,0.00,VWS V14.01,2013-03-17 07:27:00,
2013-03-17 02:28:00,64.4,15.8,25.25,South,180,4.9,4.9,15,0.00,,---,0.00,VWS V14.01,2013-03-17 07:28:00,
2013-03-17 02:29:00,64.2,17.1,25.25,South,180,4.9,4.9,16,0.00,,---,0.00,VWS V14.01,2013-03-17 07:29:00,
2013-03-17 02:30:00,64.2,17.1,25.25,South,180,4.9,4.9,16,0.00,,---,0.00,VWS V14.01,2013-03-17 07:30:00,
2013-03-17 02:31:00,64.2,17.1,25.25,South,180,4.9,4.9,16,0.00,,---,0.00,VWS V14.01,2013-03-17 07:31:00,
2013-03-17 02:32:00,64.4,15.8,25.25,South,180,4.9,4.9,15,0.00,,---,0.00,VWS V14.01,2013-03-17 07:32:00,
2013-03-17 02:33:00,64.6,15.9,25.25,South,180,4.9,4.9,15,0.00,,---,0.00,VWS V14.01,2013-03-17 07:33:00,
2013-03-17 02:34:00,64.8,16.1,25.25,South,180,4.9,4.9,15,0.00,,---,0.00,VWS V14.01,2013-03-17 07:34:00,
2013-03-17 02:35:00,64.8,16.1,25.25,South,180,4.9,4.9,15,0.00,,---,0.00,VWS V14.01,2013-03-17 07:35:00,
2013-03-17 02:36:00,64.9,16.2,25.25,South,180,4.9,4.9,15,0.00,,---,0.00,VWS V14.01,2013-03-17 07:36:00,
2013-03-17 02:37:00,65.1,16.4,25.25,South,180,4.9,4.9,15,0.00,,---,0.00,VWS V14.01,2013-03-17 07:37:00,
2013-03-17 02:38:00,65.1,16.4,25.25,South,180,4.9,4.9,15,0.00,,---,0.00,VWS V14.01,2013-03-17 07:38:00,
2013-03-17 02:39:00,65.1,16.4,25.25,South,180,4.9,4.9,15,0.00,,---,0.00,VWS V14.01,2013-03-17 07:39:00,
2013-03-17 02:40:00,65.1,16.4,25.25,South,180,4.9,4.9,15,0.00,,---,0.00,VWS V14.01,2013-03-17 07:40:00,
2013-03-17 02:41:00,65.1,16.4,25.25,South,180,4.9,4.9,15,0.00,,---,0.00,VWS V14.01,2013-03-17 07:41:00,
2013-03-17 02:42:00,65.1,16.4,25.25,South,180,4.9,4.9,15,0.00,,---,0.00,VWS V14.01,2013-03-17 07:42:00,
2013-03-17 02:43:00,65.1,16.4,25.25,South,180,4.9,4.9,15,0.00,,---,0.00,VWS V14.01,2013-03-17 07:43:00,
2013-03-17 02:44:00,65.1,16.4,25.25,South,180,4.9,4.9,15,0.00,,---,0.00,VWS V14.01,2013-03-17 07:44:00,
2013-03-17 02:45:00,65.1,16.4,25.25,South,180,4.9,4.9,15,0.00,,---,0.00,VWS V14.01,2013-03-17 07:45:00,
2013-03-17 02:46:00,65.1,16.4,25.25,South,180,4.9,4.9,15,0.00,,---,0.00,VWS V14.01,2013-03-17 07:46:00,
2013-03-17 02:47:00,65.1,16.4,25.25,South,180,4.9,4.9,15,0.00,,---,0.00,VWS V14.01,2013-03-17 07:47:00,
2013-03-17 02:48:00,65.1,16.4,25.25,South,180,4.9,4.9,15,0.00,,---,0.00,VWS V14.01,2013-03-17 07:48:00,
2013-03-17 02:49:00,65.1,16.4,25.25,South,180,4.9,4.9,15,0.00,,---,0.00,VWS V14.01,2013-03-17 07:49:00,
2013-03-17 02:50:00,65.1,16.4,25.25,South,180,4.9,4.9,15,0.00,,---,0.00,VWS V14.01,2013-03-17 07:50:00,
2013-03-17 02:51:00,65.1,16.4,25.25,South,180,4.9,4.9,15,0.00,,---,0.00,VWS V14.01,2013-03-17 07:51:00,
2013-03-17 02:52:00,65.1,16.4,25.25,South,180,4.9,4.9,15,0.00,,---,0.00,VWS V14.01,2013-03-17 07:52:00,
2013-03-17 02:53:00,65.1,16.4,25.25,South,180,4.9,4.9,15,0.00,,---,0.00,VWS V14.01,2013-03-17 07:53:00,
2013-03-17 02:54:00,65.1,16.4,25.25,South,180,4.9,4.9,15,0.00,,---,0.00,VWS V14.01,2013-03-17 07:54:00,
2013-03-17 02:55:00,64.9,16.2,25.25,South,180,4.9,4.9,15,0.00,,---,0.00,VWS V14.01,2013-03-17 07:55:00,
2013-03-17 02:56:00,64.9,16.2,25.25,South,180,4.9,4.9,15,0.00,,---,0.00,VWS V14.01,2013-03-17 07:56:00,
2013-03-17 02:57:00,64.8,16.1,25.25,South,180,4.9,4.9,15,0.00,,---,0.00,VWS V14.01,2013-03-17 07:57:00,
2013-03-17 02:58:00,64.8,16.1,25.25,South,180,4.9,4.9,15,0.00,,---,0.00,VWS V14.01,2013-03-17 07:58:00,
2013-03-17 02:59:00,64.8,16.1,25.25,South,180,4.9,4.9,15,0.00,,---,0.00,VWS V14.01,2013-03-17 07:59:00,
2013-03-17 03:00:00,64.8,16.1,25.25,South,180,4.9,4.9,15,0.00,,---,0.00,VWS V14.01,2013-03-17 08:00:00,
2013-03-17 03:01:00,64.8,16.1,25.25,South,180,4.9,4.9,15,0.00,,---,0.00,VWS V14.01,2013-03-17 08:01:00,
2013-03-17 03:02:00,65.1,16.4,25.25,South,180,4.9,4.9,15,0.00,,---,0.00,VWS V14.01,2013-03-17 08:02:00,
2013-03-17 03:03:00,65.1,16.4,25.25,South,180,4.9,4.9,15,0.00,,---,0.00,VWS V14.01,2013-03-17 08:03:00,
2013-03-17 03:04:00,65.3,16.5,25.25,South,180,4.9,4.9,15,0.00,,---,0.00,VWS V14.01,2013-03-17 08:04:00,
2013-03-17 03:05:00,65.1,16.4,25.25,South,180,4.9,4.9,15,0.00,,---,0.00,VWS V14.01,2013-03-17 08:05:00,
2013-03-17 03:06:00,65.1,16.4,25.25,South,180,4.9,4.9,15,0.00,,---,0.00,VWS V14.01,2013-03-17 08:06:00,
2013-03-17 03:07:00,65.1,16.4,25.25,South,180,4.9,4.9,15,0.00,,---,0.00,VWS V14.01,2013-03-17 08:07:00,
2013-03-17 03:08:00,65.1,16.4,25.25,South,180,4.9,4.9,15,0.00,,---,0.00,VWS V14.01,2013-03-17 08:08:00,
2013-03-17 03:09:00,64.9,16.2,25.25,South,180,4.9,4.9,15,0.00,,---,0.00,VWS V14.01,2013-03-17 08:09:00,
2013-03-17 03:10:00,64.9,16.2,25.25,South,180,4.9,4.9,15,0.00,,---,0.00,VWS V14.01,2013-03-17 08:10:00,
2013-03-17 03:11:00,64.8,16.1,25.25,South,180,4.9,4.9,15,0.00,,---,0.00,VWS V14.01,2013-03-17 08:11:00,
2013-03-17 03:12:00,64.8,16.1,25.25,South,180,4.9,4.9,15,0.00,,---,0.00,VWS V14.01,2013-03-17 08:12:00,
2013-03-17 03:13:00,64.8,16.1,25.25,South,180,4.9,4.9,15,0.00,,---,0.00,VWS V14.01,2013-03-17 08:13:00,
2013-03-17 03:14:00,64.8,16.1,25.25,South,180,4.9,4.9,15,0.00,,---,0.00,VWS V14.01,2013-03-17 08:14:00,
2013-03-17 03:15:00,64.8,16.1,25.25,South,180,4.9,4.9,15,0.00,,---,0.00,VWS V14.01,2013-03-17 08:15:00,
2013-03-17 03:16:00,64.8,16.1,25.25,South,180,4.9,4.9,15,0.00,,---,0.00,VWS V14.01,2013-03-17 08:16:00,
2013-03-17 03:17:00,64.6,15.9,25.25,South,180,4.9,4.9,15,0.00,,---,0.00,VWS V14.01,2013-03-17 08:17:00,
2013-03-17 03:18:00,64.4,15.8,25.25,South,180,4.9,4.9,15,0.00,,---,0.00,VWS V14.01,2013-03-17 08:18:00,
2013-03-17 03:19:00,64.4,15.8,25.25,South,180,4.9,4.9,15,0.00,,---,0.00,VWS V14.01,2013-03-17 08:19:00,
2013-03-17 03:20:00,64.6,15.9,25.25,South,180,4.9,4.9,15,0.00,,---,0.00,VWS V14.01,2013-03-17 08:20:00,
2013-03-17 03:21:00,64.6,15.9,25.25,South,180,4.9,4.9,15,0.00,,---,0.00,VWS V14.01,2013-03-17 08:21:00,
2013-03-17 03:22:00,64.6,15.9,25.25,South,180,4.9,4.9,15,0.00,,---,0.00,VWS V14.01,2013-03-17 08:22:00,
2013-03-17 03:23:00,64.6,15.9,25.25,South,180,4.9,4.9,15,0.00,,---,0.00,VWS V14.01,2013-03-17 08:23:00,
2013-03-17 03:24:00,64.6,15.9,25.25,South,180,4.9,4.9,15,0.00,,---,0.00,VWS V14.01,2013-03-17 08:24:00,
2013-03-17 03:25:00,64.8,16.1,25.25,South,180,4.9,4.9,15,0.00,,---,0.00,VWS V14.01,2013-03-17 08:25:00,
2013-03-17 03:26:00,64.8,16.1,25.25,South,180,4.9,4.9,15,0.00,,---,0.00,VWS V14.01,2013-03-17 08:26:00,
2013-03-17 03:27:00,64.9,16.2,25.25,South,180,4.9,4.9,15,0.00,,---,0.00,VWS V14.01,2013-03-17 08:27:00,
2013-03-17 03:28:00,64.9,16.2,25.25,South,180,4.9,4.9,15,0.00,,---,0.00,VWS V14.01,2013-03-17 08:28:00,
2013-03-17 03:29:00,65.1,16.4,25.25,South,180,4.9,4.9,15,0.00,,---,0.00,VWS V14.01,2013-03-17 08:29:00,
2013-03-17 03:30:00,65.1,16.4,25.25,South,180,4.9,4.9,15,0.00,,---,0.00,VWS V14.01,2013-03-17 08:30:00,
2013-03-17 03:31:00,65.1,16.4,25.25,South,180,4.9,4.9,15,0.00,,---,0.00,VWS V14.01,2013-03-17 08:31:00,
2013-03-17 03:32:00,65.1,16.4,25.25,South,180,4.9,4.9,15,0.00,,---,0.00,VWS V14.01,2013-03-17 08:32:00,
2013-03-17 03:33:00,64.9,16.2,25.25,South,180,4.9,4.9,15,0.00,,---,0.00,VWS V14.01,2013-03-17 08:33:00,
2013-03-17 03:34:00,65.1,16.4,25.25,South,180,4.9,4.9,15,0.00,,---,0.00,VWS V14.01,2013-03-17 08:34:00,
2013-03-17 03:35:00,65.1,16.4,25.25,South,180,4.9,4.9,15,0.00,,---,0.00,VWS V14.01,2013-03-17 08:35:00,
2013-03-17 03:36:00,65.1,16.4,25.25,South,180,4.9,4.9,15,0.00,,---,0.00,VWS V14.01,2013-03-17 08:36:00,
2013-03-17 03:37:00,65.1,16.4,25.25,South,180,4.9,4.9,15,0.00,,---,0.00,VWS V14.01,2013-03-17 08:37:00,
2013-03-17 03:38:00,64.6,15.9,25.25,South,180,4.9,4.9,15,0.00,,---,0.00,VWS V14.01,2013-03-17 08:38:00,
2013-03-17 03:39:00,64.6,15.9,25.25,South,180,4.9,4.9,15,0.00,,---,0.00,VWS V14.01,2013-03-17 08:39:00,
2013-03-17 03:40:00,64.2,17.1,25.25,South,180,4.9,4.9,16,0.00,,---,0.00,VWS V14.01,2013-03-17 08:40:00,
2013-03-17 03:41:00,64.2,17.1,25.25,South,180,4.9,4.9,16,0.00,,---,0.00,VWS V14.01,2013-03-17 08:41:00,
2013-03-17 03:42:00,64.2,17.1,25.25,South,180,4.9,4.9,16,0.00,,---,0.00,VWS V14.01,2013-03-17 08:42:00,
2013-03-17 03:43:00,64.2,17.1,25.25,South,180,4.9,4.9,16,0.00,,---,0.00,VWS V14.01,2013-03-17 08:43:00,
2013-03-17 03:44:00,64.2,17.1,25.25,South,180,4.9,4.9,16,0.00,,---,0.00,VWS V14.01,2013-03-17 08:44:00,
2013-03-17 03:45:00,63.9,16.8,25.25,South,180,4.9,4.9,16,0.00,,---,0.00,VWS V14.01,2013-03-17 08:45:00,
2013-03-17 03:46:00,63.9,16.8,25.25,South,180,4.9,4.9,16,0.00,,---,0.00,VWS V14.01,2013-03-17 08:46:00,
2013-03-17 03:47:00,63.7,16.7,25.25,South,180,4.9,4.9,16,0.00,,---,0.00,VWS V14.01,2013-03-17 08:47:00,
2013-03-17 03:48:00,63.5,16.5,25.25,South,180,4.9,4.9,16,0.00,,---,0.00,VWS V14.01,2013-03-17 08:48:00,
2013-03-17 03:49:00,63.5,16.5,25.25,South,180,4.9,4.9,16,0.00,,---,0.00,VWS V14.01,2013-03-17 08:49:00,
2013-03-17 03:50:00,63.5,16.5,25.25,South,180,4.9,4.9,16,0.00,,---,0.00,VWS V14.01,2013-03-17 08:50:00,
2013-03-17 03:51:00,63.5,16.5,25.25,South,180,4.9,4.9,16,0.00,,---,0.00,VWS V14.01,2013-03-17 08:51:00,
2013-03-17 03:52:00,63.5,16.5,25.25,South,180,4.9,4.9,16,0.00,,---,0.00,VWS V14.01,2013-03-17 08:52:00,
2013-03-17 03:53:00,63.5,16.5,25.25,South,180,4.9,4.9,16,0.00,,---,0.00,VWS V14.01,2013-03-17 08:53:00,
2013-03-17 03:54:00,63.5,16.5,25.22,South,180,4.9,4.9,16,0.00,,---,0.00,VWS V14.01,2013-03-17 08:54:00,
2013-03-17 03:55:00,63.5,16.5,25.22,South,180,4.9,4.9,16,0.00,,---,0.00,VWS V14.01,2013-03-17 08:55:00,
2013-03-17 03:57:00,63.5,16.5,25.22,South,180,4.9,4.9,16,0.00,,---,0.00,VWS V14.01,2013-03-17 08:57:00,
2013-03-17 03:58:00,63.7,16.7,25.22,South,180,4.9,4.9,16,0.00,,---,0.00,VWS V14.01,2013-03-17 08:58:00,
2013-03-17 03:59:00,63.7,16.7,25.22,South,180,4.9,4.9,16,0.00,,---,0.00,VWS V14.01,2013-03-17 08:59:00,
2013-03-17 04:00:00,63.5,16.5,25.22,South,180,4.9,4.9,16,0.00,,---,0.00,VWS V14.01,2013-03-17 09:00:00,
2013-03-17 04:01:00,63.3,16.4,25.22,South,180,4.9,4.9,16,0.00,,---,0.00,VWS V14.01,2013-03-17 09:01:00,
2013-03-17 04:02:00,63.1,16.2,25.22,South,180,4.9,4.9,16,0.00,,---,0.00,VWS V14.01,2013-03-17 09:02:00,
2013-03-17 04:03:00,63.1,16.2,25.22,South,180,4.9,4.9,16,0.00,,---,0.00,VWS V14.01,2013-03-17 09:03:00,
2013-03-17 04:04:00,63.1,16.2,25.22,South,180,4.9,4.9,16,0.00,,---,0.00,VWS V14.01,2013-03-17 09:04:00,
2013-03-17 04:05:00,63.0,16.1,25.22,South,180,4.9,4.9,16,0.00,,---,0.00,VWS V14.01,2013-03-17 09:05:00,
2013-03-17 04:06:00,63.0,16.1,25.22,South,180,4.9,4.9,16,0.00,,---,0.00,VWS V14.01,2013-03-17 09:06:00,
2013-03-17 04:08:00,63.0,16.1,25.22,South,180,4.9,4.9,16,0.00,,---,0.00,VWS V14.01,2013-03-17 09:08:00,
2013-03-17 04:09:00,62.8,15.9,25.22,South,180,4.9,4.9,16,0.00,,---,0.00,VWS V14.01,2013-03-17 09:09:00,
2013-03-17 04:10:00,62.8,15.9,25.22,South,180,4.9,4.9,16,0.00,,---,0.00,VWS V14.01,2013-03-17 09:10:00,
2013-03-17 04:11:00,62.6,15.8,25.22,South,180,4.9,4.9,16,0.00,,---,0.00,VWS V14.01,2013-03-17 09:11:00,
2013-03-17 04:12:00,62.6,15.8,25.22,South,180,4.9,4.9,16,0.00,,---,0.00,VWS V14.01,2013-03-17 09:12:00,
2013-03-17 04:13:00,62.4,15.7,25.22,South,180,4.9,4.9,16,0.00,,---,0.00,VWS V14.01,2013-03-17 09:13:00,
2013-03-17 04:14:00,62.4,15.7,25.22,South,180,4.9,4.9,16,0.00,,---,0.00,VWS V14.01,2013-03-17 09:14:00,
2013-03-17 04:15:00,62.4,15.7,25.22,South,180,4.9,4.9,16,0.00,,---,0.00,VWS V14.01,2013-03-17 09:15:00,
2013-03-17 04:16:00,62.4,15.7,25.22,South,180,4.9,4.9,16,0.00,,---,0.00,VWS V14.01,2013-03-17 09:16:00,
2013-03-17 04:17:00,62.4,15.7,25.22,South,180,4.9,4.9,16,0.00,,---,0.00,VWS V14.01,2013-03-17 09:17:00,
2013-03-17 04:18:00,62.2,15.5,25.22,South,180,4.9,4.9,16,0.00,,---,0.00,VWS V14.01,2013-03-17 09:18:00,
2013-03-17 04:19:00,62.2,15.5,25.22,South,180,4.9,4.9,16,0.00,,---,0.00,VWS V14.01,2013-03-17 09:19:00,
2013-03-17 04:20:00,62.2,15.5,25.22,South,180,4.9,4.9,16,0.00,,---,0.00,VWS V14.01,2013-03-17 09:20:00,
2013-03-17 04:21:00,62.2,15.5,25.22,South,180,4.9,4.9,16,0.00,,---,0.00,VWS V14.01,2013-03-17 09:21:00,
2013-03-17 04:22:00,62.2,15.5,25.22,South,180,4.9,4.9,16,0.00,,---,0.00,VWS V14.01,2013-03-17 09:22:00,
2013-03-17 04:23:00,62.1,15.4,25.22,South,180,4.9,4.9,16,0.00,,---,0.00,VWS V14.01,2013-03-17 09:23:00,
2013-03-17 04:24:00,62.1,15.4,25.25,South,180,4.9,4.9,16,0.00,,---,0.00,VWS V14.01,2013-03-17 09:24:00,
2013-03-17 04:25:00,62.1,15.4,25.25,South,180,4.9,4.9,16,0.00,,---,0.00,VWS V14.01,2013-03-17 09:25:00,
2013-03-17 04:26:00,62.1,15.4,25.25,South,180,4.9,4.9,16,0.00,,---,0.00,VWS V14.01,2013-03-17 09:26:00,
2013-03-17 04:27:00,62.1,15.4,25.25,South,180,4.9,4.9,16,0.00,,---,0.00,VWS V14.01,2013-03-17 09:27:00,
2013-03-17 04:28:00,61.9,15.2,25.25,South,180,4.9,4.9,16,0.00,,---,0.00,VWS V14.01,2013-03-17 09:28:00,
2013-03-17 04:29:00,61.9,15.2,25.25,South,180,4.9,4.9,16,0.00,,---,0.00,VWS V14.01,2013-03-17 09:29:00,
2013-03-17 04:30:00,61.9,15.2,25.25,South,180,4.9,4.9,16,0.00,,---,0.00,VWS V14.01,2013-03-17 09:30:00,
2013-03-17 04:31:00,61.7,15.1,25.25,South,180,4.9,4.9,16,0.00,,---,0.00,VWS V14.01,2013-03-17 09:31:00,
2013-03-17 04:32:00,61.7,15.1,25.25,South,180,4.9,4.9,16,0.00,,---,0.00,VWS V14.01,2013-03-17 09:32:00,
2013-03-17 04:33:00,61.5,14.9,25.25,South,180,4.9,4.9,16,0.00,,---,0.00,VWS V14.01,2013-03-17 09:33:00,
2013-03-17 04:34:00,61.5,14.9,25.25,South,180,4.9,4.9,16,0.00,,---,0.00,VWS V14.01,2013-03-17 09:34:00,
2013-03-17 04:35:00,61.5,14.9,25.25,South,180,4.9,4.9,16,0.00,,---,0.00,VWS V14.01,2013-03-17 09:35:00,
2013-03-17 04:36:00,61.5,14.9,25.25,South,180,4.9,4.9,16,0.00,,---,0.00,VWS V14.01,2013-03-17 09:36:00,
2013-03-17 04:37:00,61.7,15.1,25.25,South,180,4.9,4.9,16,0.00,,---,0.00,VWS V14.01,2013-03-17 09:37:00,
2013-03-17 04:39:00,61.5,14.9,25.25,South,180,4.9,4.9,16,0.00,,---,0.00,VWS V14.01,2013-03-17 09:39:00,
2013-03-17 04:40:00,61.5,14.9,25.25,South,180,4.9,4.9,16,0.00,,---,0.00,VWS V14.01,2013-03-17 09:40:00,
2013-03-17 04:41:00,61.3,14.8,25.25,South,180,4.9,4.9,16,0.00,,---,0.00,VWS V14.01,2013-03-17 09:41:00,
2013-03-17 04:42:00,61.3,14.8,25.25,South,180,4.9,4.9,16,0.00,,---,0.00,VWS V14.01,2013-03-17 09:42:00,
2013-03-17 04:43:00,61.2,14.6,25.25,South,180,4.9,4.9,16,0.00,,---,0.00,VWS V14.01,2013-03-17 09:43:00,
2013-03-17 04:44:00,61.2,14.6,25.25,South,180,4.9,4.9,16,0.00,,---,0.00,VWS V14.01,2013-03-17 09:44:00,
2013-03-17 04:45:00,61.0,14.5,25.25,South,180,4.9,4.9,16,0.00,,---,0.00,VWS V14.01,2013-03-17 09:45:00,
2013-03-17 04:46:00,61.2,14.6,25.25,South,180,4.9,4.9,16,0.00,,---,0.00,VWS V14.01,2013-03-17 09:46:00,
2013-03-17 04:47:00,61.2,14.6,25.25,South,180,4.9,4.9,16,0.00,,---,0.00,VWS V14.01,2013-03-17 09:47:00,
2013-03-17 04:48:00,61.0,14.5,25.25,South,180,4.9,4.9,16,0.00,,---,0.00,VWS V14.01,2013-03-17 09:48:00,
2013-03-17 04:49:00,61.0,14.5,25.25,South,180,4.9,4.9,16,0.00,,---,0.00,VWS V14.01,2013-03-17 09:49:00,
2013-03-17 04:51:00,61.0,14.5,25.25,South,180,4.9,4.9,16,0.00,,---,0.00,VWS V14.01,2013-03-17 09:51:00,
2013-03-17 04:52:00,60.8,14.4,25.25,South,180,4.9,4.9,16,0.00,,---,0.00,VWS V14.01,2013-03-17 09:52:00,
2013-03-17 04:53:00,60.8,14.4,25.25,South,180,4.9,4.9,16,0.00,,---,0.00,VWS V14.01,2013-03-17 09:53:00,
2013-03-17 04:54:00,60.8,14.4,25.25,South,180,4.9,4.9,16,0.00,,---,0.00,VWS V14.01,2013-03-17 09:54:00,
2013-03-17 04:55:00,60.8,14.4,25.25,South,180,4.9,4.9,16,0.00,,---,0.00,VWS V14.01,2013-03-17 09:55:00,
2013-03-17 04:56:00,61.0,14.5,25.25,South,180,4.9,4.9,16,0.00,,---,0.00,VWS V14.01,2013-03-17 09:56:00,
2013-03-17 04:57:00,61.0,14.5,25.25,South,180,4.9,4.9,16,0.00,,---,0.00,VWS V14.01,2013-03-17 09:57:00,
2013-03-17 04:58:00,61.0,14.5,25.25,South,180,4.9,4.9,16,0.00,,---,0.00,VWS V14.01,2013-03-17 09:58:00,
2013-03-17 04:59:00,61.0,14.5,25.25,South,180,4.9,4.9,16,0.00,,---,0.00,VWS V14.01,2013-03-17 09:59:00,
2013-03-17 05:00:00,61.0,14.5,25.25,South,180,4.9,4.9,16,0.00,,---,0.00,VWS V14.01,2013-03-17 10:00:00,
2013-03-17 05:01:00,61.0,14.5,25.25,South,180,4.9,4.9,16,0.00,,---,0.00,VWS V14.01,2013-03-17 10:01:00,
2013-03-17 05:02:00,61.0,14.5,25.25,South,180,4.9,4.9,16,0.00,,---,0.00,VWS V14.01,2013-03-17 10:02:00,
2013-03-17 05:03:00,60.8,14.4,25.25,South,180,4.9,4.9,16,0.00,,---,0.00,VWS V14.01,2013-03-17 10:03:00,
2013-03-17 05:04:00,60.8,14.4,25.25,South,180,4.9,4.9,16,0.00,,---,0.00,VWS V14.01,2013-03-17 10:04:00,
2013-03-17 05:05:00,60.8,14.4,25.25,South,180,4.9,4.9,16,0.00,,---,0.00,VWS V14.01,2013-03-17 10:05:00,
2013-03-17 05:06:00,61.0,14.5,25.25,South,180,4.9,4.9,16,0.00,,---,0.00,VWS V14.01,2013-03-17 10:06:00,
2013-03-17 05:07:00,61.2,14.6,25.25,South,180,4.9,4.9,16,0.00,,---,0.00,VWS V14.01,2013-03-17 10:07:00,
2013-03-17 05:08:00,61.2,14.6,25.25,South,180,4.9,4.9,16,0.00,,---,0.00,VWS V14.01,2013-03-17 10:08:00,
2013-03-17 05:09:00,61.0,14.5,25.25,South,180,4.9,4.9,16,0.00,,---,0.00,VWS V14.01,2013-03-17 10:09:00,
2013-03-17 05:10:00,61.0,14.5,25.25,South,180,4.9,4.9,16,0.00,,---,0.00,VWS V14.01,2013-03-17 10:10:00,
2013-03-17 05:11:00,61.0,14.5,25.25,South,180,4.9,4.9,16,0.00,,---,0.00,VWS V14.01,2013-03-17 10:11:00,
2013-03-17 05:12:00,61.0,14.5,25.25,South,180,4.9,4.9,16,0.00,,---,0.00,VWS V14.01,2013-03-17 10:12:00,
2013-03-17 05:13:00,61.2,14.6,25.25,South,180,4.9,4.9,16,0.00,,---,0.00,VWS V14.01,2013-03-17 10:13:00,
2013-03-17 05:14:00,61.2,14.6,25.25,South,180,4.9,4.9,16,0.00,,---,0.00,VWS V14.01,2013-03-17 10:14:00,
2013-03-17 05:15:00,61.2,14.6,25.25,South,180,4.9,4.9,16,0.00,,---,0.00,VWS V14.01,2013-03-17 10:15:00,
2013-03-17 05:16:00,61.2,14.6,25.25,South,180,4.9,4.9,16,0.00,,---,0.00,VWS V14.01,2013-03-17 10:16:00,
2013-03-17 05:17:00,61.2,14.6,25.25,South,180,4.9,4.9,16,0.00,,---,0.00,VWS V14.01,2013-03-17 10:17:00,
2013-03-17 05:18:00,61.2,14.6,25.25,South,180,4.9,4.9,16,0.00,,---,0.00,VWS V14.01,2013-03-17 10:18:00,
2013-03-17 05:19:00,61.3,14.8,25.25,South,180,4.9,4.9,16,0.00,,---,0.00,VWS V14.01,2013-03-17 10:19:00,
2013-03-17 05:20:00,61.2,14.6,25.25,South,180,4.9,4.9,16,0.00,,---,0.00,VWS V14.01,2013-03-17 10:20:00,
2013-03-17 05:21:00,61.2,14.6,25.25,South,180,4.9,4.9,16,0.00,,---,0.00,VWS V14.01,2013-03-17 10:21:00,
2013-03-17 05:22:00,61.2,14.6,25.25,South,180,4.9,4.9,16,0.00,,---,0.00,VWS V14.01,2013-03-17 10:22:00,
2013-03-17 05:23:00,61.0,14.5,25.25,South,180,4.9,4.9,16,0.00,,---,0.00,VWS V14.01,2013-03-17 10:23:00,
2013-03-17 05:24:00,61.0,14.5,25.28,South,180,4.9,4.9,16,0.00,,---,0.00,VWS V14.01,2013-03-17 10:24:00,
2013-03-17 05:25:00,61.0,14.5,25.28,South,180,4.9,4.9,16,0.00,,---,0.00,VWS V14.01,2013-03-17 10:25:00,
2013-03-17 05:26:00,61.0,14.5,25.28,South,180,4.9,4.9,16,0.00,,---,0.00,VWS V14.01,2013-03-17 10:26:00,
2013-03-17 05:27:00,60.8,14.4,25.28,South,180,4.9,4.9,16,0.00,,---,0.00,VWS V14.01,2013-03-17 10:27:00,
2013-03-17 05:28:00,60.8,14.4,25.28,South,180,4.9,4.9,16,0.00,,---,0.00,VWS V14.01,2013-03-17 10:28:00,
2013-03-17 05:29:00,60.8,14.4,25.28,South,180,4.9,4.9,16,0.00,,---,0.00,VWS V14.01,2013-03-17 10:29:00,
2013-03-17 05:30:00,60.8,14.4,25.28,South,180,4.9,4.9,16,0.00,,---,0.00,VWS V14.01,2013-03-17 10:30:00,
2013-03-17 05:31:00,60.8,14.4,25.28,South,180,4.9,4.9,16,0.00,,---,0.00,VWS V14.01,2013-03-17 10:31:00,
2013-03-17 05:32:00,60.8,14.4,25.28,South,180,4.9,4.9,16,0.00,,---,0.00,VWS V14.01,2013-03-17 10:32:00,
2013-03-17 05:33:00,60.8,14.4,25.28,South,180,4.9,4.9,16,0.00,,---,0.00,VWS V14.01,2013-03-17 10:33:00,
2013-03-17 05:34:00,60.6,15.6,25.28,South,180,4.9,4.9,17,0.00,,---,0.00,VWS V14.01,2013-03-17 10:34:00,
2013-03-17 05:35:00,60.6,15.6,25.28,South,180,4.9,4.9,17,0.00,,---,0.00,VWS V14.01,2013-03-17 10:35:00,
2013-03-17 05:36:00,60.6,15.6,25.28,South,180,4.9,4.9,17,0.00,,---,0.00,VWS V14.01,2013-03-17 10:36:00,
2013-03-17 05:37:00,60.6,15.6,25.28,South,180,4.9,4.9,17,0.00,,---,0.00,VWS V14.01,2013-03-17 10:37:00,
2013-03-17 05:38:00,60.6,15.6,25.28,South,180,4.9,4.9,17,0.00,,---,0.00,VWS V14.01,2013-03-17 10:38:00,
2013-03-17 05:39:00,60.6,15.6,25.28,South,180,4.9,4.9,17,0.00,,---,0.00,VWS V14.01,2013-03-17 10:39:00,
2013-03-17 05:40:00,60.6,15.6,25.28,South,180,4.9,4.9,17,0.00,,---,0.00,VWS V14.01,2013-03-17 10:40:00,
2013-03-17 05:41:00,60.6,15.6,25.28,South,180,4.9,4.9,17,0.00,,---,0.00,VWS V14.01,2013-03-17 10:41:00,
2013-03-17 05:42:00,60.4,15.4,25.28,South,180,4.9,4.9,17,0.00,,---,0.00,VWS V14.01,2013-03-17 10:42:00,
2013-03-17 05:43:00,60.4,15.4,25.28,South,180,4.9,4.9,17,0.00,,---,0.00,VWS V14.01,2013-03-17 10:43:00,
2013-03-17 05:44:00,60.4,15.4,25.28,South,180,4.9,4.9,17,0.00,,---,0.00,VWS V14.01,2013-03-17 10:44:00,
2013-03-17 05:45:00,60.4,15.4,25.28,South,180,4.9,4.9,17,0.00,,---,0.00,VWS V14.01,2013-03-17 10:45:00,
2013-03-17 05:46:00,60.4,15.4,25.28,South,180,4.9,4.9,17,0.00,,---,0.00,VWS V14.01,2013-03-17 10:46:00,
2013-03-17 05:47:00,60.4,15.4,25.28,SW,225,7.6,7.6,17,0.00,,---,0.00,VWS V14.01,2013-03-17 10:47:00,
2013-03-17 05:48:00,60.3,15.3,25.28,SW,225,7.6,7.6,17,0.00,,---,0.00,VWS V14.01,2013-03-17 10:48:00,
2013-03-17 05:49:00,60.3,15.3,25.28,SW,225,7.6,7.6,17,0.00,,---,0.00,VWS V14.01,2013-03-17 10:49:00,
2013-03-17 05:50:00,60.1,15.1,25.28,SW,225,7.6,7.6,17,0.00,,---,0.00,VWS V14.01,2013-03-17 10:50:00,
2013-03-17 05:51:00,59.9,15.0,25.28,SW,225,7.6,7.6,17,0.00,,---,0.00,VWS V14.01,2013-03-17 10:51:00,
2013-03-17 05:52:00,59.9,15.0,25.28,SW,225,7.6,7.6,17,0.00,,---,0.00,VWS V14.01,2013-03-17 10:52:00,
2013-03-17 05:53:00,59.9,15.0,25.28,SW,225,7.6,7.6,17,0.00,,---,0.00,VWS V14.01,2013-03-17 10:53:00,
2013-03-17 05:54:00,59.9,15.0,25.28,SW,225,7.6,7.6,17,0.00,,---,0.00,VWS V14.01,2013-03-17 10:54:00,
2013-03-17 05:55:00,59.9,15.0,25.28,SW,225,7.6,7.6,17,0.00,,---,0.00,VWS V14.01,2013-03-17 10:55:00,
2013-03-17 05:56:00,59.7,14.9,25.28,SW,225,7.6,7.6,17,0.00,,---,0.00,VWS V14.01,2013-03-17 10:56:00,
2013-03-17 05:57:00,59.7,14.9,25.28,SW,225,7.6,7.6,17,0.00,,---,0.00,VWS V14.01,2013-03-17 10:57:00,
2013-03-17 05:58:00,59.7,14.9,25.28,SW,225,7.6,7.6,17,0.00,,---,0.00,VWS V14.01,2013-03-17 10:58:00,
2013-03-17 05:59:00,59.7,14.9,25.28,SW,225,7.6,7.6,17,0.00,,---,0.00,VWS V14.01,2013-03-17 10:59:00,
2013-03-17 06:00:00,59.4,14.6,25.28,SW,225,7.6,7.6,17,0.00,,---,0.00,VWS V14.01,2013-03-17 11:00:00,
2013-03-17 06:01:00,59.4,14.6,25.28,SW,225,7.6,7.6,17,0.00,,---,0.00,VWS V14.01,2013-03-17 11:01:00,
2013-03-17 06:02:00,59.4,14.6,25.28,SW,225,7.6,7.6,17,0.00,,---,0.00,VWS V14.01,2013-03-17 11:02:00,
2013-03-17 06:03:00,59.4,14.6,25.28,SW,225,7.6,7.6,17,0.00,,---,0.00,VWS V14.01,2013-03-17 11:03:00,
2013-03-17 06:04:00,59.4,14.6,25.28,SSW,202,6.3,6.3,17,0.00,,---,0.00,VWS V14.01,2013-03-17 11:04:00,
2013-03-17 06:05:00,59.4,14.6,25.28,SSW,202,5.6,6.3,17,0.00,,---,0.00,VWS V14.01,2013-03-17 11:05:00,
2013-03-17 06:07:00,59.4,14.6,25.28,SSW,202,5.8,6.5,17,0.00,,---,0.00,VWS V14.01,2013-03-17 11:07:00,
2013-03-17 06:08:00,59.4,14.6,25.28,SSW,202,6.0,6.0,17,0.00,,---,0.00,VWS V14.01,2013-03-17 11:08:00,
2013-03-17 06:09:00,59.4,14.6,25.31,SSW,202,6.0,6.0,17,0.00,,---,0.00,VWS V14.01,2013-03-17 11:09:00,
2013-03-17 06:10:00,59.2,14.4,25.31,SSW,202,6.3,6.3,17,0.00,,---,0.00,VWS V14.01,2013-03-17 11:10:00,
2013-03-17 06:11:00,59.2,14.4,25.31,SSW,202,6.3,6.7,17,0.00,,---,0.00,VWS V14.01,2013-03-17 11:11:00,
2013-03-17 06:12:00,59.5,14.7,25.31,SSW,202,5.6,5.6,17,0.00,,---,0.00,VWS V14.01,2013-03-17 11:12:00,
2013-03-17 06:13:00,59.5,14.7,25.31,SSW,202,5.4,6.0,17,0.00,,---,0.00,VWS V14.01,2013-03-17 11:13:00,
2013-03-17 06:14:00,59.7,14.9,25.31,SSW,202,4.9,5.8,17,0.00,,---,0.00,VWS V14.01,2013-03-17 11:14:00,
2013-03-17 06:15:00,59.5,14.7,25.31,SSW,202,4.3,5.4,17,0.00,,---,0.00,VWS V14.01,2013-03-17 11:15:00,
2013-03-17 06:16:00,59.5,14.7,25.31,SSW,202,5.6,5.8,17,0.00,,---,0.00,VWS V14.01,2013-03-17 11:16:00,
2013-03-17 06:17:00,59.7,14.9,25.31,SSW,202,5.6,6.3,17,0.00,,---,0.00,VWS V14.01,2013-03-17 11:17:00,
2013-03-17 06:18:00,59.5,14.7,25.31,SSW,202,4.9,5.8,17,0.00,,---,0.00,VWS V14.01,2013-03-17 11:18:00,
2013-03-17 06:19:00,59.4,14.6,25.31,SSW,202,3.8,3.8,17,0.00,,---,0.00,VWS V14.01,2013-03-17 11:19:00,
2013-03-17 06:21:00,59.4,14.6,25.31,SSW,202,4.9,4.9,17,0.00,,---,0.00,VWS V14.01,2013-03-17 11:21:00,
2013-03-17 06:22:00,59.4,14.6,25.31,SSW,202,6.0,6.0,17,0.00,,---,0.00,VWS V14.01,2013-03-17 11:22:00,
2013-03-17 06:23:00,59.4,14.6,25.31,SSW,202,5.6,6.0,17,0.00,,---,0.00,VWS V14.01,2013-03-17 11:23:00,
2013-03-17 06:24:00,59.4,14.6,25.31,SSW,202,4.3,5.6,17,0.00,,---,0.00,VWS V14.01,2013-03-17 11:24:00,
2013-03-17 06:25:00,59.4,14.6,25.31,SSW,202,4.9,4.9,17,0.00,,---,0.00,VWS V14.01,2013-03-17 11:25:00,
2013-03-17 06:26:00,59.4,14.6,25.31,SSW,202,5.8,5.8,17,0.00,,---,0.00,VWS V14.01,2013-03-17 11:26:00,
2013-03-17 06:28:00,59.4,14.6,25.31,SSW,202,4.0,5.8,17,0.00,,---,0.00,VWS V14.01,2013-03-17 11:28:00,
2013-03-17 06:29:00,59.5,14.7,25.31,SSW,202,4.3,4.9,17,0.00,,---,0.00,VWS V14.01,2013-03-17 11:29:00,
2013-03-17 06:30:00,59.5,14.7,25.31,SSW,202,4.0,4.9,17,0.00,,---,0.00,VWS V14.01,2013-03-17 11:30:00,
2013-03-17 06:31:00,59.4,14.6,25.31,SSW,202,5.4,5.4,17,0.00,,---,0.00,VWS V14.01,2013-03-17 11:31:00,
2013-03-17 06:32:00,59.4,14.6,25.31,SSW,202,5.8,6.0,17,0.00,,---,0.00,VWS V14.01,2013-03-17 11:32:00,
2013-03-17 06:34:00,59.4,14.6,25.31,SSW,202,3.6,5.8,17,0.00,,---,0.00,VWS V14.01,2013-03-17 11:34:00,
2013-03-17 06:35:00,59.2,14.4,25.31,SSW,202,4.5,4.5,17,0.00,,---,0.00,VWS V14.01,2013-03-17 11:35:00,
2013-03-17 06:36:00,59.2,14.4,25.31,SSW,202,4.5,4.5,17,0.00,,---,0.00,VWS V14.01,2013-03-17 11:36:00,
2013-03-17 06:37:00,59.2,14.4,25.31,SSW,202,4.5,4.5,17,0.00,,---,0.00,VWS V14.01,2013-03-17 11:37:00,
2013-03-17 06:38:00,58.6,14.0,25.31,SSW,202,2.7,4.5,17,0.00,,---,0.00,VWS V14.01,2013-03-17 11:38:00,
2013-03-17 06:39:00,58.5,13.8,25.31,SSW,202,4.3,4.3,17,0.00,,---,0.00,VWS V14.01,2013-03-17 11:39:00,
2013-03-17 06:40:00,58.5,13.8,25.31,SSW,202,4.3,4.3,17,0.00,,---,0.00,VWS V14.01,2013-03-17 11:40:00,
2013-03-17 06:41:00,58.3,13.7,25.31,SSW,202,4.3,5.4,17,0.00,,---,0.00,VWS V14.01,2013-03-17 11:41:00,
2013-03-17 06:42:00,58.5,13.8,25.31,SSW,202,4.0,5.4,17,0.00,,---,0.00,VWS V14.01,2013-03-17 11:42:00,
2013-03-17 06:43:00,58.6,14.0,25.31,SSW,202,4.0,5.6,17,0.00,,---,0.00,VWS V14.01,2013-03-17 11:43:00,
2013-03-17 06:44:00,58.6,14.0,25.31,South,180,3.8,5.6,17,0.00,,---,0.00,VWS V14.01,2013-03-17 11:44:00,
2013-03-17 06:45:00,58.8,14.1,25.31,SSW,202,3.8,3.8,17,0.00,,---,0.00,VWS V14.01,2013-03-17 11:45:00,
2013-03-17 06:46:00,58.8,14.1,25.31,South,180,3.6,3.6,17,0.00,,---,0.00,VWS V14.01,2013-03-17 11:46:00,
2013-03-17 06:47:00,58.8,14.1,25.31,South,180,4.0,4.3,17,0.00,,---,0.00,VWS V14.01,2013-03-17 11:47:00,
2013-03-17 06:48:00,58.6,14.0,25.31,South,180,3.8,4.0,17,0.00,,---,0.00,VWS V14.01,2013-03-17 11:48:00,
2013-03-17 06:49:00,58.6,14.0,25.31,South,180,3.8,4.3,17,0.00,,---,0.00,VWS V14.01,2013-03-17 11:49:00,
2013-03-17 06:50:00,58.5,13.8,25.31,South,180,3.6,4.0,17,0.00,,---,0.00,VWS V14.01,2013-03-17 11:50:00,
2013-03-17 06:51:00,58.1,13.5,25.31,South,180,4.3,4.3,17,0.00,,---,0.00,VWS V14.01,2013-03-17 11:51:00,
2013-03-17 06:52:00,57.9,13.4,25.31,South,180,3.8,4.3,17,0.00,,---,0.00,VWS V14.01,2013-03-17 11:52:00,
2013-03-17 06:53:00,57.7,13.2,25.31,South,180,3.4,3.8,17,0.00,,---,0.00,VWS V14.01,2013-03-17 11:53:00,
2013-03-17 06:54:00,57.7,13.2,25.31,SSW,202,3.1,3.4,17,0.00,,---,0.00,VWS V14.01,2013-03-17 11:54:00,
2013-03-17 06:55:00,57.2,12.8,25.31,SSW,202,3.6,3.6,17,0.00,,---,0.00,VWS V14.01,2013-03-17 11:55:00,
2013-03-17 06:56:00,57.2,12.8,25.31,SSW,202,6.3,6.3,17,0.00,,---,0.00,VWS V14.01,2013-03-17 11:56:00,
2013-03-17 06:57:00,57.6,13.1,25.31,SSW,202,5.6,5.6,17,0.00,,---,0.00,VWS V14.01,2013-03-17 11:57:00,
2013-03-17 06:58:00,57.6,13.1,25.31,SSW,202,5.6,5.6,17,0.00,,---,0.00,VWS V14.01,2013-03-17 11:58:00,
2013-03-17 06:59:00,57.6,13.1,25.31,SSW,202,3.6,5.6,17,0.00,,---,0.00,VWS V14.01,2013-03-17 11:59:00,
2013-03-17 07:00:00,57.6,13.1,25.31,South,180,4.3,4.3,17,0.00,,---,0.00,VWS V14.01,2013-03-17 12:00:00,
2013-03-17 07:01:00,57.6,13.1,25.31,SSW,202,4.3,4.3,17,0.00,,---,0.00,VWS V14.01,2013-03-17 12:01:00,
2013-03-17 07:02:00,57.4,12.9,25.31,SSW,202,4.3,4.3,17,0.00,,---,0.00,VWS V14.01,2013-03-17 12:02:00,
2013-03-17 07:03:00,57.6,13.1,25.31,SSW,202,4.0,4.3,17,0.00,,---,0.00,VWS V14.01,2013-03-17 12:03:00,
2013-03-17 07:04:00,57.7,13.2,25.31,SSW,202,4.0,4.0,17,0.00,,---,0.00,VWS V14.01,2013-03-17 12:04:00,
2013-03-17 07:05:00,57.7,13.2,25.31,SSW,202,3.8,4.3,17,0.00,,---,0.00,VWS V14.01,2013-03-17 12:05:00,
2013-03-17 07:06:00,57.7,13.2,25.31,SSW,202,3.8,3.8,17,0.00,,---,0.00,VWS V14.01,2013-03-17 12:06:00,
2013-03-17 07:07:00,57.6,13.1,25.31,SSW,202,5.6,5.6,17,0.00,,---,0.00,VWS V14.01,2013-03-17 12:07:00,
2013-03-17 07:08:00,57.7,13.2,25.31,SSW,202,5.6,5.6,17,0.00,,---,0.00,VWS V14.01,2013-03-17 12:08:00,
2013-03-17 07:09:00,57.7,13.2,25.31,SSW,202,5.6,5.6,17,0.00,,---,0.00,VWS V14.01,2013-03-17 12:09:00,
2013-03-17 07:10:00,57.6,13.1,25.31,SSW,202,5.6,5.6,17,0.00,,---,0.00,VWS V14.01,2013-03-17 12:10:00,
2013-03-17 07:11:00,57.4,12.9,25.31,SSW,202,5.6,5.6,17,0.00,,---,0.00,VWS V14.01,2013-03-17 12:11:00,
2013-03-17 07:12:00,57.2,12.8,25.31,SSW,202,5.6,5.6,17,0.00,,---,0.00,VWS V14.01,2013-03-17 12:12:00,
2013-03-17 07:13:00,57.4,12.9,25.31,SSW,202,5.6,5.6,17,0.00,,---,0.00,VWS V14.01,2013-03-17 12:13:00,
2013-03-17 07:14:00,57.6,13.1,25.31,SSW,202,5.6,5.6,17,0.00,,---,0.00,VWS V14.01,2013-03-17 12:14:00,
2013-03-17 07:15:00,57.6,13.1,25.31,SSW,202,5.6,5.6,17,0.00,,---,0.00,VWS V14.01,2013-03-17 12:15:00,
2013-03-17 07:16:00,57.9,13.4,25.31,SSW,202,5.6,5.6,17,0.00,,---,0.00,VWS V14.01,2013-03-17 12:16:00,
2013-03-17 07:17:00,57.9,13.4,25.31,SSW,202,5.6,5.6,17,0.00,,---,0.00,VWS V14.01,2013-03-17 12:17:00,
2013-03-17 07:18:00,57.9,13.4,25.31,SSW,202,5.6,5.6,17,0.00,,---,0.00,VWS V14.01,2013-03-17 12:18:00,
2013-03-17 07:19:00,57.9,13.4,25.31,SSW,202,5.6,5.6,17,0.00,,---,0.00,VWS V14.01,2013-03-17 12:19:00,
2013-03-17 07:20:00,57.9,13.4,25.31,SSW,202,5.6,5.6,17,0.00,,---,0.00,VWS V14.01,2013-03-17 12:20:00,
2013-03-17 07:21:00,58.1,13.5,25.31,SSW,202,5.6,5.6,17,0.00,,---,0.00,VWS V14.01,2013-03-17 12:21:00,
2013-03-17 07:22:00,58.1,13.5,25.31,SSW,202,5.6,5.6,17,0.00,,---,0.00,VWS V14.01,2013-03-17 12:22:00,
2013-03-17 07:24:00,58.1,13.5,25.31,SSW,202,5.6,5.6,17,0.00,,---,0.00,VWS V14.01,2013-03-17 12:24:00,
2013-03-17 07:25:00,58.1,13.5,25.31,SSW,202,5.6,5.6,17,0.00,,---,0.00,VWS V14.01,2013-03-17 12:25:00,
2013-03-17 07:26:00,58.1,13.5,25.31,SSW,202,5.6,5.6,17,0.00,,---,0.00,VWS V14.01,2013-03-17 12:26:00,
2013-03-17 07:27:00,58.1,13.5,25.31,SSW,202,5.6,5.6,17,0.00,,---,0.00,VWS V14.01,2013-03-17 12:27:00,
2013-03-17 07:28:00,58.1,13.5,25.31,SSW,202,5.6,5.6,17,0.00,,---,0.00,VWS V14.01,2013-03-17 12:28:00,
2013-03-17 07:29:00,58.3,13.7,25.31,SSW,202,5.6,5.6,17,0.00,,---,0.00,VWS V14.01,2013-03-17 12:29:00,
2013-03-17 07:30:00,58.5,13.8,25.31,SSW,202,5.6,5.6,17,0.00,,---,0.00,VWS V14.01,2013-03-17 12:30:00,
2013-03-17 07:31:00,58.5,13.8,25.31,SSW,202,5.6,5.6,17,0.00,,---,0.00,VWS V14.01,2013-03-17 12:31:00,
2013-03-17 07:32:00,58.6,14.0,25.31,SSW,202,5.6,5.6,17,0.00,,---,0.00,VWS V14.01,2013-03-17 12:32:00,
2013-03-17 07:33:00,58.6,14.0,25.31,SSW,202,5.6,5.6,17,0.00,,---,0.00,VWS V14.01,2013-03-17 12:33:00,
2013-03-17 07:34:00,58.8,14.1,25.31,SSW,202,5.6,5.6,17,0.00,,---,0.00,VWS V14.01,2013-03-17 12:34:00,
2013-03-17 07:35:00,58.8,14.1,25.31,SSW,202,5.6,5.6,17,0.00,,---,0.00,VWS V14.01,2013-03-17 12:35:00,
2013-03-17 07:36:00,59.2,14.4,25.31,SSW,202,5.6,5.6,17,0.00,,---,0.00,VWS V14.01,2013-03-17 12:36:00,
2013-03-17 07:37:00,59.2,14.4,25.31,SSW,202,5.6,5.6,17,0.00,,---,0.00,VWS V14.01,2013-03-17 12:37:00,
2013-03-17 07:38:00,59.4,14.6,25.31,SSW,202,5.6,5.6,17,0.00,,---,0.00,VWS V14.01,2013-03-17 12:38:00,
2013-03-17 07:39:00,59.5,14.7,25.31,SSW,202,5.6,5.6,17,0.00,,---,0.00,VWS V14.01,2013-03-17 12:39:00,
2013-03-17 07:40:00,59.5,14.7,25.31,SSW,202,5.6,5.6,17,0.00,,---,0.00,VWS V14.01,2013-03-17 12:40:00,
2013-03-17 07:41:00,59.7,14.9,25.31,SSW,202,5.6,5.6,17,0.00,,---,0.00,VWS V14.01,2013-03-17 12:41:00,
2013-03-17 07:42:00,59.9,15.0,25.31,SSW,202,5.6,5.6,17,0.00,,---,0.00,VWS V14.01,2013-03-17 12:42:00,
2013-03-17 07:43:00,60.1,15.1,25.31,SSW,202,7.4,7.4,17,0.00,,---,0.00,VWS V14.01,2013-03-17 12:43:00,
2013-03-17 07:44:00,60.1,15.1,25.31,SSW,202,7.4,7.4,17,0.00,,---,0.00,VWS V14.01,2013-03-17 12:44:00,
2013-03-17 07:45:00,60.1,15.1,25.31,SSW,202,7.4,7.4,17,0.00,,---,0.00,VWS V14.01,2013-03-17 12:45:00,
2013-03-17 07:46:00,60.1,15.1,25.31,SSW,202,7.4,7.4,17,0.00,,---,0.00,VWS V14.01,2013-03-17 12:46:00,
2013-03-17 07:47:00,60.3,15.3,25.31,SSW,202,7.4,7.4,17,0.00,,---,0.00,VWS V14.01,2013-03-17 12:47:00,
2013-03-17 07:48:00,60.4,15.4,25.31,SSW,202,7.6,7.6,17,0.00,,---,0.00,VWS V14.01,2013-03-17 12:48:00,
2013-03-17 07:49:00,60.6,15.6,25.31,SSW,202,7.6,7.6,17,0.00,,---,0.00,VWS V14.01,2013-03-17 12:49:00,
2013-03-17 07:50:00,60.6,15.6,25.31,SSW,202,7.6,7.6,17,0.00,,---,0.00,VWS V14.01,2013-03-17 12:50:00,
2013-03-17 07:51:00,60.8,14.4,25.31,SSW,202,7.6,7.6,16,0.00,,---,0.00,VWS V14.01,2013-03-17 12:51:00,
2013-03-17 07:52:00,61.0,14.5,25.31,SSW,202,7.6,7.6,16,0.00,,---,0.00,VWS V14.01,2013-03-17 12:52:00,
2013-03-17 07:53:00,61.0,14.5,25.31,SSW,202,7.6,7.6,16,0.00,,---,0.00,VWS V14.01,2013-03-17 12:53:00,
2013-03-17 07:54:00,61.0,14.5,25.31,SSW,202,7.6,7.6,16,0.00,,---,0.00,VWS V14.01,2013-03-17 12:54:00,
2013-03-17 07:55:00,61.0,14.5,25.31,SSW,202,7.6,7.6,16,0.00,,---,0.00,VWS V14.01,2013-03-17 12:55:00,
2013-03-17 07:56:00,61.0,14.5,25.31,SSW,202,7.6,7.6,16,0.00,,---,0.00,VWS V14.01,2013-03-17 12:56:00,
2013-03-17 07:57:00,61.2,14.6,25.31,SSW,202,7.6,7.6,16,0.00,,---,0.00,VWS V14.01,2013-03-17 12:57:00,
2013-03-17 07:58:00,61.2,14.6,25.31,SSW,202,7.6,7.6,16,0.00,,---,0.00,VWS V14.01,2013-03-17 12:58:00,
2013-03-17 07:59:00,61.2,14.6,25.31,SSW,202,7.6,7.6,16,0.00,,---,0.00,VWS V14.01,2013-03-17 12:59:00,
2013-03-17 08:00:00,61.2,14.6,25.31,SSW,202,7.6,7.6,16,0.00,,---,0.00,VWS V14.01,2013-03-17 13:00:00,
2013-03-17 08:01:00,61.3,14.8,25.31,SSW,202,7.6,7.6,16,0.00,,---,0.00,VWS V14.01,2013-03-17 13:01:00,
2013-03-17 08:02:00,61.7,15.1,25.31,SSW,202,7.6,7.6,16,0.00,,---,0.00,VWS V14.01,2013-03-17 13:02:00,
2013-03-17 08:03:00,61.9,15.2,25.31,SSW,202,7.6,7.6,16,0.00,,---,0.00,VWS V14.01,2013-03-17 13:03:00,
2013-03-17 08:04:00,62.1,15.4,25.31,SSW,202,7.6,7.6,16,0.00,,---,0.00,VWS V14.01,2013-03-17 13:04:00,
2013-03-17 08:05:00,62.4,15.7,25.31,SSW,202,7.6,7.6,16,0.00,,---,0.00,VWS V14.01,2013-03-17 13:05:00,
2013-03-17 08:06:00,62.6,15.8,25.31,SSW,202,7.6,7.6,16,0.00,,---,0.00,VWS V14.01,2013-03-17 13:06:00,
2013-03-17 08:07:00,62.6,15.8,25.31,SSW,202,7.6,7.6,16,0.00,,---,0.00,VWS V14.01,2013-03-17 13:07:00,
2013-03-17 08:08:00,62.8,15.9,25.31,SSW,202,7.6,7.6,16,0.00,,---,0.00,VWS V14.01,2013-03-17 13:08:00,
2013-03-17 08:09:00,63.0,16.1,25.31,SW,225,7.8,7.8,16,0.00,,---,0.00,VWS V14.01,2013-03-17 13:09:00,
2013-03-17 08:10:00,63.0,16.1,25.31,SW,225,7.8,7.8,16,0.00,,---,0.00,VWS V14.01,2013-03-17 13:10:00,
2013-03-17 08:12:00,63.5,16.5,25.31,SW,225,7.8,7.8,16,0.00,,---,0.00,VWS V14.01,2013-03-17 13:12:00,
2013-03-17 08:13:00,63.9,16.8,25.31,SW,225,7.8,7.8,16,0.00,,---,0.00,VWS V14.01,2013-03-17 13:13:00,
2013-03-17 08:14:00,64.0,17.0,25.31,SW,225,7.8,7.8,16,0.00,,---,0.00,VWS V14.01,2013-03-17 13:14:00,
2013-03-17 08:15:00,64.2,17.1,25.31,SW,225,7.8,7.8,16,0.00,,---,0.00,VWS V14.01,2013-03-17 13:15:00,
2013-03-17 08:16:00,64.4,15.8,25.31,SW,225,7.8,7.8,15,0.00,,---,0.00,VWS V14.01,2013-03-17 13:16:00,
2013-03-17 08:17:00,64.4,15.8,25.31,SW,225,8.7,8.7,15,0.00,,---,0.00,VWS V14.01,2013-03-17 13:17:00,
2013-03-17 08:18:00,64.8,16.1,25.31,SW,225,8.7,8.7,15,0.00,,---,0.00,VWS V14.01,2013-03-17 13:18:00,
2013-03-17 08:19:00,64.8,16.1,25.31,SW,225,8.7,8.7,15,0.00,,---,0.00,VWS V14.01,2013-03-17 13:19:00,
2013-03-17 08:20:00,64.8,16.1,25.31,SW,225,8.7,8.7,15,0.00,,---,0.00,VWS V14.01,2013-03-17 13:20:00,
2013-03-17 08:21:00,65.1,16.4,25.31,SW,225,8.7,8.7,15,0.00,,---,0.00,VWS V14.01,2013-03-17 13:21:00,
2013-03-17 08:22:00,65.1,16.4,25.31,SW,225,8.7,8.7,15,0.00,,---,0.00,VWS V14.01,2013-03-17 13:22:00,
2013-03-17 08:23:00,65.1,16.4,25.31,SW,225,8.7,8.7,15,0.00,,---,0.00,VWS V14.01,2013-03-17 13:23:00,
2013-03-17 08:24:00,65.5,16.6,25.31,SW,225,8.7,8.7,15,0.00,,---,0.00,VWS V14.01,2013-03-17 13:24:00,
2013-03-17 08:25:00,65.7,16.8,25.31,SW,225,8.7,8.7,15,0.00,,---,0.00,VWS V14.01,2013-03-17 13:25:00,
2013-03-17 08:26:00,65.7,16.8,25.31,SW,225,8.5,8.7,15,0.00,,---,0.00,VWS V14.01,2013-03-17 13:26:00,
2013-03-17 08:27:00,65.8,16.9,25.31,SW,225,8.5,8.5,15,0.00,,---,0.00,VWS V14.01,2013-03-17 13:27:00,
2013-03-17 08:28:00,66.0,17.1,25.31,SW,225,8.5,8.5,15,0.00,,---,0.00,VWS V14.01,2013-03-17 13:28:00,
2013-03-17 08:29:00,66.0,17.1,25.31,SW,225,8.5,8.5,15,0.00,,---,0.00,VWS V14.01,2013-03-17 13:29:00,
2013-03-17 08:30:00,66.0,17.1,25.31,SW,225,8.5,8.5,15,0.00,,---,0.00,VWS V14.01,2013-03-17 13:30:00,
2013-03-17 08:31:00,66.0,17.1,25.31,SW,225,8.5,8.5,15,0.00,,---,0.00,VWS V14.01,2013-03-17 13:31:00,
2013-03-17 08:32:00,66.2,17.2,25.31,SW,225,8.7,8.7,15,0.00,,---,0.00,VWS V14.01,2013-03-17 13:32:00,
2013-03-17 08:33:00,66.4,17.4,25.31,SW,225,8.7,8.7,15,0.00,,---,0.00,VWS V14.01,2013-03-17 13:33:00,
2013-03-17 08:34:00,66.4,17.4,25.31,SW,225,8.7,8.7,15,0.00,,---,0.00,VWS V14.01,2013-03-17 13:34:00,
2013-03-17 08:35:00,66.6,17.5,25.31,SW,225,8.7,8.7,15,0.00,,---,0.00,VWS V14.01,2013-03-17 13:35:00,
2013-03-17 08:36:00,66.6,17.5,25.31,WSW,248,8.5,10.3,15,0.00,,---,0.00,VWS V14.01,2013-03-17 13:36:00,
2013-03-17 08:37:00,66.6,17.5,25.31,SW,225,10.7,10.7,15,0.00,,---,0.00,VWS V14.01,2013-03-17 13:37:00,
2013-03-17 08:38:00,66.7,17.6,25.31,SW,225,10.1,10.7,15,0.00,,---,0.00,VWS V14.01,2013-03-17 13:38:00,
2013-03-17 08:39:00,66.6,17.5,25.31,WSW,248,10.3,14.8,15,0.00,,---,0.00,VWS V14.01,2013-03-17 13:39:00,
2013-03-17 08:40:00,66.6,17.5,25.31,SW,225,10.5,10.5,15,0.00,,---,0.00,VWS V14.01,2013-03-17 13:40:00,
2013-03-17 08:41:00,66.6,17.5,25.31,SW,225,8.1,10.5,15,0.00,,---,0.00,VWS V14.01,2013-03-17 13:41:00,
2013-03-17 08:42:00,66.6,17.5,25.31,SW,225,10.1,11.2,15,0.00,,---,0.00,VWS V14.01,2013-03-17 13:42:00,
2013-03-17 08:43:00,66.6,17.5,25.31,SW,225,10.7,10.7,15,0.00,,---,0.00,VWS V14.01,2013-03-17 13:43:00,
2013-03-17 08:44:00,66.6,17.5,25.31,SW,225,10.7,10.7,15,0.00,,---,0.00,VWS V14.01,2013-03-17 13:44:00,
2013-03-17 08:45:00,66.6,17.5,25.31,WSW,248,7.4,11.0,15,0.00,,---,0.00,VWS V14.01,2013-03-17 13:45:00,
2013-03-17 08:46:00,66.6,17.5,25.31,WSW,248,10.1,10.1,15,0.00,,---,0.00,VWS V14.01,2013-03-17 13:46:00,
2013-03-17 08:47:00,66.6,17.5,25.31,WSW,248,12.5,13.0,15,0.00,,---,0.00,VWS V14.01,2013-03-17 13:47:00,
2013-03-17 08:48:00,67.1,17.9,25.31,WSW,248,12.8,13.0,15,0.00,,---,0.00,VWS V14.01,2013-03-17 13:48:00,
2013-03-17 08:49:00,67.1,17.9,25.31,WSW,248,12.5,13.6,15,0.00,,---,0.00,VWS V14.01,2013-03-17 13:49:00,
2013-03-17 08:50:00,67.1,17.9,25.31,WSW,248,13.4,13.4,15,0.00,,---,0.00,VWS V14.01,2013-03-17 13:50:00,
2013-03-17 08:51:00,67.1,17.9,25.31,WSW,248,15.2,15.2,15,0.00,,---,0.00,VWS V14.01,2013-03-17 13:51:00,
2013-03-17 08:52:00,67.1,17.9,25.31,WSW,248,15.2,15.2,15,0.00,,---,0.00,VWS V14.01,2013-03-17 13:52:00,
2013-03-17 08:53:00,67.1,17.9,25.31,SW,225,16.1,16.1,15,0.00,,---,0.00,VWS V14.01,2013-03-17 13:53:00,
2013-03-17 08:54:00,67.1,17.9,25.31,WSW,248,17.0,17.0,15,0.00,,---,0.00,VWS V14.01,2013-03-17 13:54:00,
2013-03-17 08:55:00,67.1,17.9,25.31,WSW,248,17.2,17.2,15,0.00,,---,0.00,VWS V14.01,2013-03-17 13:55:00,
2013-03-17 08:56:00,67.6,18.4,25.31,SW,225,10.7,17.2,15,0.00,,---,0.00,VWS V14.01,2013-03-17 13:56:00,
2013-03-17 08:57:00,67.5,18.2,25.31,SW,225,13.2,13.2,15,0.00,,---,0.00,VWS V14.01,2013-03-17 13:57:00,
2013-03-17 08:58:00,67.5,18.2,25.31,SW,225,13.2,13.2,15,0.00,,---,0.00,VWS V14.01,2013-03-17 13:58:00,
2013-03-17 08:59:00,67.5,18.2,25.31,SW,225,13.2,13.2,15,0.00,,---,0.00,VWS V14.01,2013-03-17 13:59:00,
2013-03-17 09:00:00,67.8,18.5,25.31,WSW,248,12.5,14.8,15,0.00,,---,0.00,VWS V14.01,2013-03-17 14:00:00,
2013-03-17 09:01:00,68.0,18.7,25.31,SW,225,10.7,12.5,15,0.00,,---,0.00,VWS V14.01,2013-03-17 14:01:00,
2013-03-17 09:02:00,68.0,18.7,25.31,SW,225,11.4,11.4,15,0.00,,---,0.00,VWS V14.01,2013-03-17 14:02:00,
2013-03-17 09:03:00,68.0,18.7,25.31,WSW,248,14.5,14.5,15,0.00,,---,0.00,VWS V14.01,2013-03-17 14:03:00,
2013-03-17 09:04:00,68.0,18.7,25.31,WSW,248,12.5,14.5,15,0.00,,---,0.00,VWS V14.01,2013-03-17 14:04:00,
2013-03-17 09:05:00,68.0,18.7,25.31,WSW,248,11.0,12.5,15,0.00,,---,0.00,VWS V14.01,2013-03-17 14:05:00,
2013-03-17 09:06:00,68.2,18.8,25.31,SW,225,17.7,17.7,15,0.00,,---,0.00,VWS V14.01,2013-03-17 14:06:00,
2013-03-17 09:07:00,68.2,18.8,25.31,SW,225,13.0,17.7,15,0.00,,---,0.00,VWS V14.01,2013-03-17 14:07:00,
2013-03-17 09:08:00,68.2,18.8,25.31,WSW,248,13.0,13.0,15,0.00,,---,0.00,VWS V14.01,2013-03-17 14:08:00,
2013-03-17 09:09:00,68.2,18.8,25.31,WSW,248,13.0,13.0,15,0.00,,---,0.00,VWS V14.01,2013-03-17 14:09:00,
2013-03-17 09:10:00,68.4,19.0,25.31,SW,225,9.2,13.0,15,0.00,,---,0.00,VWS V14.01,2013-03-17 14:10:00,
2013-03-17 09:11:00,68.5,19.1,25.31,WSW,248,13.0,15.2,15,0.00,,---,0.00,VWS V14.01,2013-03-17 14:11:00,
2013-03-17 09:12:00,68.4,19.0,25.31,SW,225,12.5,15.4,15,0.00,,---,0.00,VWS V14.01,2013-03-17 14:12:00,
2013-03-17 09:13:00,68.5,19.1,25.31,SSW,202,12.8,12.8,15,0.00,,---,0.00,VWS V14.01,2013-03-17 14:13:00,
2013-03-17 09:15:00,68.2,18.8,25.31,SW,225,15.4,15.4,15,0.00,,---,0.00,VWS V14.01,2013-03-17 14:15:00,
2013-03-17 09:16:00,68.2,18.8,25.31,WSW,248,13.0,13.0,15,0.00,,---,0.00,VWS V14.01,2013-03-17 14:16:00,
2013-03-17 09:17:00,68.2,18.8,25.31,SW,225,20.1,20.1,15,0.00,,---,0.00,VWS V14.01,2013-03-17 14:17:00,
2013-03-17 09:18:00,68.2,18.8,25.31,WSW,248,17.5,20.1,15,0.00,,---,0.00,VWS V14.01,2013-03-17 14:18:00,
2013-03-17 09:19:00,68.2,18.8,25.31,WSW,248,15.2,17.5,15,0.00,,---,0.00,VWS V14.01,2013-03-17 14:19:00,
2013-03-17 09:20:00,68.4,19.0,25.31,SW,225,13.0,15.2,15,0.00,,---,0.00,VWS V14.01,2013-03-17 14:20:00,
2013-03-17 09:21:00,68.4,19.0,25.31,WSW,248,13.2,13.2,15,0.00,,---,0.00,VWS V14.01,2013-03-17 14:21:00,
2013-03-17 09:22:00,68.4,19.0,25.31,WSW,248,15.2,15.2,15,0.00,,---,0.00,VWS V14.01,2013-03-17 14:22:00,
2013-03-17 09:23:00,68.4,19.0,25.31,WSW,248,12.8,15.2,15,0.00,,---,0.00,VWS V14.01,2013-03-17 14:23:00,
2013-03-17 09:24:00,68.4,19.0,25.31,WSW,248,14.3,14.3,15,0.00,,---,0.00,VWS V14.01,2013-03-17 14:24:00,
2013-03-17 09:25:00,68.7,19.2,25.31,WSW,248,17.0,17.0,15,0.00,,---,0.00,VWS V14.01,2013-03-17 14:25:00,
2013-03-17 09:26:00,68.5,19.1,25.31,WSW,248,17.0,17.0,15,0.00,,---,0.00,VWS V14.01,2013-03-17 14:26:00,
2013-03-17 09:27:00,68.7,19.2,25.31,SW,225,14.8,14.8,15,0.00,,---,0.00,VWS V14.01,2013-03-17 14:27:00,
2013-03-17 09:28:00,68.7,19.2,25.31,SW,225,11.0,16.8,15,0.00,,---,0.00,VWS V14.01,2013-03-17 14:28:00,
2013-03-17 09:29:00,68.9,19.4,25.31,SW,225,11.0,11.0,15,0.00,,---,0.00,VWS V14.01,2013-03-17 14:29:00,
2013-03-17 09:30:00,68.9,19.4,25.31,SW,225,17.2,17.2,15,0.00,,---,0.00,VWS V14.01,2013-03-17 14:30:00,
2013-03-17 09:31:00,68.9,19.4,25.31,SW,225,17.2,17.2,15,0.00,,---,0.00,VWS V14.01,2013-03-17 14:31:00,
2013-03-17 09:32:00,68.9,19.4,25.31,WSW,248,16.1,17.2,15,0.00,,---,0.00,VWS V14.01,2013-03-17 14:32:00,
2013-03-17 09:33:00,68.5,19.1,25.31,WSW,248,16.1,16.1,15,0.00,,---,0.00,VWS V14.01,2013-03-17 14:33:00,
2013-03-17 09:34:00,68.5,19.1,25.31,WSW,248,16.1,16.1,15,0.00,,---,0.00,VWS V14.01,2013-03-17 14:34:00,
2013-03-17 09:35:00,68.7,19.2,25.31,WSW,248,16.1,16.1,15,0.00,,---,0.00,VWS V14.01,2013-03-17 14:35:00,
2013-03-17 09:36:00,68.7,19.2,25.31,WSW,248,16.1,16.1,15,0.00,,---,0.00,VWS V14.01,2013-03-17 14:36:00,
2013-03-17 09:37:00,68.7,19.2,25.31,WSW,248,16.1,16.1,15,0.00,,---,0.00,VWS V14.01,2013-03-17 14:37:00,
2013-03-17 09:38:00,68.5,19.1,25.31,WSW,248,15.2,16.1,15,0.00,,---,0.00,VWS V14.01,2013-03-17 14:38:00,
2013-03-17 09:39:00,68.7,19.2,25.31,WSW,248,23.5,23.5,15,0.00,,---,0.00,VWS V14.01,2013-03-17 14:39:00,
2013-03-17 09:40:00,68.7,19.2,25.31,WSW,248,19.7,23.5,15,0.00,,---,0.00,VWS V14.01,2013-03-17 14:40:00,
2013-03-17 09:41:00,68.7,19.2,25.31,SW,225,15.4,19.7,15,0.00,,---,0.00,VWS V14.01,2013-03-17 14:41:00,
2013-03-17 09:42:00,68.9,19.4,25.31,SW,225,15.7,17.7,15,0.00,,---,0.00,VWS V14.01,2013-03-17 14:42:00,
2013-03-17 09:43:00,69.1,19.5,25.31,WSW,248,15.2,15.7,15,0.00,,---,0.00,VWS V14.01,2013-03-17 14:43:00,
2013-03-17 09:44:00,69.3,19.7,25.31,WSW,248,13.9,15.2,15,0.00,,---,0.00,VWS V14.01,2013-03-17 14:44:00,
2013-03-17 09:45:00,69.4,19.8,25.31,SW,225,16.1,16.1,15,0.00,,---,0.00,VWS V14.01,2013-03-17 14:45:00,
2013-03-17 09:46:00,69.4,19.8,25.31,WSW,248,12.3,16.1,15,0.00,,---,0.00,VWS V14.01,2013-03-17 14:46:00,
2013-03-17 09:47:00,69.4,19.8,25.31,SW,225,13.0,15.4,15,0.00,,---,0.00,VWS V14.01,2013-03-17 14:47:00,
2013-03-17 09:48:00,69.3,19.7,25.31,WSW,248,13.0,13.0,15,0.00,,---,0.00,VWS V14.01,2013-03-17 14:48:00,
2013-03-17 09:49:00,69.3,19.7,25.31,WSW,248,16.3,16.3,15,0.00,,---,0.00,VWS V14.01,2013-03-17 14:49:00,
2013-03-17 09:50:00,69.4,19.8,25.31,SW,225,17.0,17.0,15,0.00,,---,0.00,VWS V14.01,2013-03-17 14:50:00,
2013-03-17 09:51:00,69.4,19.8,25.31,SW,225,16.6,17.0,15,0.00,,---,0.00,VWS V14.01,2013-03-17 14:51:00,
2013-03-17 09:52:00,69.6,20.0,25.31,WSW,248,11.0,17.2,15,0.00,,---,0.00,VWS V14.01,2013-03-17 14:52:00,
2013-03-17 09:53:00,69.6,20.0,25.31,WSW,248,11.0,11.0,15,0.00,,---,0.00,VWS V14.01,2013-03-17 14:53:00,
2013-03-17 09:54:00,69.4,19.8,25.31,WSW,248,16.8,17.5,15,0.00,,---,0.00,VWS V14.01,2013-03-17 14:54:00,
2013-03-17 09:55:00,69.6,20.0,25.31,WSW,248,17.7,17.7,15,0.00,,---,0.00,VWS V14.01,2013-03-17 14:55:00,
2013-03-17 09:56:00,69.6,20.0,25.31,WSW,248,13.2,17.7,15,0.00,,---,0.00,VWS V14.01,2013-03-17 14:56:00,
2013-03-17 09:57:00,69.6,20.0,25.31,SW,225,13.2,14.8,15,0.00,,---,0.00,VWS V14.01,2013-03-17 14:57:00,
2013-03-17 09:58:00,70.0,18.6,25.31,SW,225,14.5,14.5,14,0.00,,---,0.00,VWS V14.01,2013-03-17 14:58:00,
2013-03-17 09:59:00,69.8,18.5,25.31,SW,225,11.0,14.8,14,0.00,,---,0.00,VWS V14.01,2013-03-17 14:59:00,
2013-03-17 10:00:00,69.8,18.5,25.31,SW,225,14.8,15.2,14,0.00,,---,0.00,VWS V14.01,2013-03-17 15:00:00,
2013-03-17 10:01:00,70.0,18.6,25.31,WSW,248,10.3,14.8,14,0.00,,---,0.00,VWS V14.01,2013-03-17 15:01:00,
2013-03-17 10:02:00,70.3,18.9,25.31,West,270,10.5,10.7,14,0.00,,---,0.00,VWS V14.01,2013-03-17 15:02:00,
2013-03-17 10:03:00,70.3,18.9,25.31,WSW,248,11.0,11.0,14,0.00,,---,0.00,VWS V14.01,2013-03-17 15:03:00,
2013-03-17 10:04:00,70.5,19.1,25.31,WSW,248,14.1,14.1,14,0.00,,---,0.00,VWS V14.01,2013-03-17 15:04:00,
2013-03-17 10:05:00,70.5,19.1,25.31,WSW,248,10.7,14.1,14,0.00,,---,0.00,VWS V14.01,2013-03-17 15:05:00,
2013-03-17 10:06:00,70.9,19.4,25.31,SW,225,15.4,15.4,14,0.00,,---,0.00,VWS V14.01,2013-03-17 15:06:00,
2013-03-17 10:07:00,70.2,18.8,25.31,WSW,248,18.6,18.6,14,0.00,,---,0.00,VWS V14.01,2013-03-17 15:07:00,
2013-03-17 10:08:00,70.2,18.8,25.31,WSW,248,15.4,18.6,14,0.00,,---,0.00,VWS V14.01,2013-03-17 15:08:00,
2013-03-17 10:09:00,70.2,18.8,25.31,WSW,248,15.9,16.8,14,0.00,,---,0.00,VWS V14.01,2013-03-17 15:09:00,
2013-03-17 10:10:00,70.7,19.2,25.31,SW,225,15.7,15.9,14,0.00,,---,0.00,VWS V14.01,2013-03-17 15:10:00,
2013-03-17 10:11:00,70.5,19.1,25.31,WSW,248,13.0,15.7,14,0.00,,---,0.00,VWS V14.01,2013-03-17 15:11:00,
2013-03-17 10:12:00,70.7,19.2,25.31,WSW,248,13.4,13.4,14,0.00,,---,0.00,VWS V14.01,2013-03-17 15:12:00,
2013-03-17 10:13:00,70.7,19.2,25.31,SW,225,19.0,19.0,14,0.00,,---,0.00,VWS V14.01,2013-03-17 15:13:00,
2013-03-17 10:14:00,70.9,19.4,25.31,WSW,248,13.2,19.7,14,0.00,,---,0.00,VWS V14.01,2013-03-17 15:14:00,
2013-03-17 10:15:00,70.9,19.4,25.31,SW,225,15.2,15.2,14,0.00,,---,0.00,VWS V14.01,2013-03-17 15:15:00,
2013-03-17 10:16:00,70.7,19.2,25.31,SW,225,19.5,19.5,14,0.00,,---,0.00,VWS V14.01,2013-03-17 15:16:00,
2013-03-17 10:17:00,70.7,19.2,25.31,SW,225,15.2,19.7,14,0.00,,---,0.00,VWS V14.01,2013-03-17 15:17:00,
2013-03-17 10:18:00,70.7,19.2,25.31,WSW,248,13.0,13.0,14,0.00,,---,0.00,VWS V14.01,2013-03-17 15:18:00,
2013-03-17 10:19:00,70.9,19.4,25.31,WSW,248,13.2,13.2,14,0.00,,---,0.00,VWS V14.01,2013-03-17 15:19:00,
2013-03-17 10:20:00,70.9,19.4,25.31,WSW,248,17.7,17.7,14,0.00,,---,0.00,VWS V14.01,2013-03-17 15:20:00,
2013-03-17 10:21:00,70.7,19.2,25.31,WSW,248,14.3,20.1,14,0.00,,---,0.00,VWS V14.01,2013-03-17 15:21:00,
2013-03-17 10:22:00,71.1,19.5,25.31,WSW,248,13.4,17.2,14,0.00,,---,0.00,VWS V14.01,2013-03-17 15:22:00,
2013-03-17 10:23:00,71.1,19.5,25.31,SW,225,17.7,17.7,14,0.00,,---,0.00,VWS V14.01,2013-03-17 15:23:00,
2013-03-17 10:24:00,70.9,19.4,25.31,SW,225,17.5,17.7,14,0.00,,---,0.00,VWS V14.01,2013-03-17 15:24:00,
2013-03-17 10:25:00,70.7,19.2,25.31,WSW,248,10.3,17.5,14,0.00,,---,0.00,VWS V14.01,2013-03-17 15:25:00,
2013-03-17 10:26:00,71.1,19.5,25.31,SSW,202,13.0,13.0,14,0.00,,---,0.00,VWS V14.01,2013-03-17 15:26:00,
2013-03-17 10:27:00,71.2,19.6,25.31,WSW,248,17.2,17.5,14,0.00,,---,0.00,VWS V14.01,2013-03-17 15:27:00,
2013-03-17 10:28:00,71.2,19.6,25.31,SW,225,13.0,17.2,14,0.00,,---,0.00,VWS V14.01,2013-03-17 15:28:00,
2013-03-17 10:29:00,71.2,19.6,25.31,SW,225,14.1,17.7,14,0.00,,---,0.00,VWS V14.01,2013-03-17 15:29:00,
2013-03-17 10:30:00,71.1,19.5,25.31,SW,225,12.8,14.1,14,0.00,,---,0.00,VWS V14.01,2013-03-17 15:30:00,
2013-03-17 10:31:00,71.1,19.5,25.31,SW,225,9.8,18.8,14,0.00,,---,0.00,VWS V14.01,2013-03-17 15:31:00,
2013-03-17 10:32:00,71.4,19.8,25.31,SW,225,11.0,11.0,14,0.00,,---,0.00,VWS V14.01,2013-03-17 15:32:00,
2013-03-17 10:33:00,71.4,19.8,25.31,WSW,248,11.4,13.9,14,0.00,,---,0.00,VWS V14.01,2013-03-17 15:33:00,
2013-03-17 10:34:00,71.8,20.1,25.31,SW,225,13.0,14.5,14,0.00,,---,0.00,VWS V14.01,2013-03-17 15:34:00,
2013-03-17 10:35:00,72.0,20.2,25.31,SW,225,13.2,13.2,14,0.00,,---,0.00,VWS V14.01,2013-03-17 15:35:00,
2013-03-17 10:36:00,72.0,20.2,25.31,SW,225,13.2,13.2,14,0.00,,---,0.00,VWS V14.01,2013-03-17 15:36:00,
2013-03-17 10:37:00,71.1,19.5,25.31,SW,225,24.4,24.4,14,0.00,,---,0.00,VWS V14.01,2013-03-17 15:37:00,
2013-03-17 10:38:00,71.2,19.6,25.31,SW,225,17.5,24.4,14,0.00,,---,0.00,VWS V14.01,2013-03-17 15:38:00,
2013-03-17 10:39:00,71.4,19.8,25.28,SW,225,13.2,17.5,14,0.00,,---,0.00,VWS V14.01,2013-03-17 15:39:00,
2013-03-17 10:40:00,71.8,20.1,25.28,SW,225,15.4,15.4,14,0.00,,---,0.00,VWS V14.01,2013-03-17 15:40:00,
2013-03-17 10:41:00,72.0,20.2,25.28,WSW,248,11.4,17.5,14,0.00,,---,0.00,VWS V14.01,2013-03-17 15:41:00,
2013-03-17 10:42:00,72.1,20.4,25.28,SW,225,14.3,18.8,14,0.00,,---,0.00,VWS V14.01,2013-03-17 15:42:00,
2013-03-17 10:43:00,71.6,19.9,25.28,SW,225,12.8,17.5,14,0.00,,---,0.00,VWS V14.01,2013-03-17 15:43:00,
2013-03-17 10:44:00,72.1,20.4,25.28,WSW,248,12.8,14.3,14,0.00,,---,0.00,VWS V14.01,2013-03-17 15:44:00,
2013-03-17 10:45:00,72.1,20.4,25.28,SW,225,17.9,17.9,14,0.00,,---,0.00,VWS V14.01,2013-03-17 15:45:00,
2013-03-17 10:46:00,72.1,20.4,25.28,SW,225,14.5,14.5,14,0.00,,---,0.00,VWS V14.01,2013-03-17 15:46:00,
2013-03-17 10:47:00,72.3,20.5,25.28,SW,225,19.0,20.1,14,0.00,,---,0.00,VWS V14.01,2013-03-17 15:47:00,
2013-03-17 10:48:00,72.0,20.2,25.28,WSW,248,17.7,22.8,14,0.00,,---,0.00,VWS V14.01,2013-03-17 15:48:00,
2013-03-17 10:49:00,72.3,20.5,25.28,SW,225,24.2,24.2,14,0.00,,---,0.00,VWS V14.01,2013-03-17 15:49:00,
2013-03-17 10:50:00,72.3,20.5,25.28,SSW,202,10.3,24.2,14,0.00,,---,0.00,VWS V14.01,2013-03-17 15:50:00,
2013-03-17 10:51:00,72.3,20.5,25.28,SW,225,12.1,12.1,14,0.00,,---,0.00,VWS V14.01,2013-03-17 15:51:00,
2013-03-17 10:52:00,72.3,20.5,25.28,SW,225,20.4,20.4,14,0.00,,---,0.00,VWS V14.01,2013-03-17 15:52:00,
2013-03-17 10:53:00,72.3,20.5,25.28,WSW,248,12.5,20.4,14,0.00,,---,0.00,VWS V14.01,2013-03-17 15:53:00,
2013-03-17 10:54:00,72.7,20.8,25.28,WSW,248,19.5,19.5,14,0.00,,---,0.00,VWS V14.01,2013-03-17 15:54:00,
2013-03-17 10:55:00,72.9,20.9,25.28,WSW,248,19.0,19.5,14,0.00,,---,0.00,VWS V14.01,2013-03-17 15:55:00,
2013-03-17 10:56:00,72.7,20.8,25.28,SW,225,15.2,15.2,14,0.00,,---,0.00,VWS V14.01,2013-03-17 15:56:00,
2013-03-17 10:57:00,72.7,20.8,25.28,SW,225,14.8,15.9,14,0.00,,---,0.00,VWS V14.01,2013-03-17 15:57:00,
2013-03-17 10:58:00,72.9,20.9,25.28,WSW,248,17.2,20.1,14,0.00,,---,0.00,VWS V14.01,2013-03-17 15:58:00,
2013-03-17 10:59:00,72.7,20.8,25.28,West,270,25.1,25.1,14,0.00,,---,0.00,VWS V14.01,2013-03-17 15:59:00,
2013-03-17 11:00:00,72.7,20.8,25.28,WSW,248,22.4,26.4,14,0.00,,---,0.00,VWS V14.01,2013-03-17 16:00:00,
2013-03-17 11:01:00,73.0,21.1,25.28,SW,225,16.8,16.8,14,0.00,,---,0.00,VWS V14.01,2013-03-17 16:01:00,
2013-03-17 11:02:00,73.0,21.1,25.28,WSW,248,23.0,23.0,14,0.00,,---,0.00,VWS V14.01,2013-03-17 16:02:00,
2013-03-17 11:03:00,73.0,21.1,25.28,WSW,248,15.4,23.0,14,0.00,,---,0.00,VWS V14.01,2013-03-17 16:03:00,
2013-03-17 11:04:00,73.4,19.6,25.28,SW,225,20.4,20.4,13,0.00,,---,0.00,VWS V14.01,2013-03-17 16:04:00,
2013-03-17 11:05:00,73.0,21.1,25.28,WSW,248,17.7,20.4,14,0.00,,---,0.00,VWS V14.01,2013-03-17 16:05:00,
2013-03-17 11:06:00,73.2,21.2,25.28,WSW,248,24.2,24.2,14,0.00,,---,0.00,VWS V14.01,2013-03-17 16:06:00,
2013-03-17 11:07:00,72.9,20.9,25.28,WSW,248,18.6,24.2,14,0.00,,---,0.00,VWS V14.01,2013-03-17 16:07:00,
2013-03-17 11:08:00,72.9,20.9,25.28,WSW,248,22.6,22.6,14,0.00,,---,0.00,VWS V14.01,2013-03-17 16:08:00,
2013-03-17 11:09:00,73.2,21.2,25.28,WSW,248,20.1,22.6,14,0.00,,---,0.00,VWS V14.01,2013-03-17 16:09:00,
2013-03-17 11:10:00,73.0,21.1,25.28,WSW,248,21.0,21.0,14,0.00,,---,0.00,VWS V14.01,2013-03-17 16:10:00,
2013-03-17 11:11:00,73.0,21.1,25.28,WSW,248,22.6,22.6,14,0.00,,---,0.00,VWS V14.01,2013-03-17 16:11:00,
2013-03-17 11:12:00,73.0,21.1,25.28,WSW,248,22.6,22.6,14,0.00,,---,0.00,VWS V14.01,2013-03-17 16:12:00,
2013-03-17 11:13:00,73.0,21.1,25.28,WSW,248,21.9,22.6,14,0.00,,---,0.00,VWS V14.01,2013-03-17 16:13:00,
2013-03-17 11:14:00,73.2,21.2,25.28,West,270,12.8,21.9,14,0.00,,---,0.00,VWS V14.01,2013-03-17 16:14:00,
2013-03-17 11:15:00,73.8,19.9,25.28,SW,225,16.1,16.1,13,0.00,,---,0.00,VWS V14.01,2013-03-17 16:15:00,
2013-03-17 11:16:00,73.2,21.2,25.28,SW,225,19.9,25.3,14,0.00,,---,0.00,VWS V14.01,2013-03-17 16:16:00,
2013-03-17 11:17:00,73.2,21.2,25.28,SW,225,16.3,19.9,14,0.00,,---,0.00,VWS V14.01,2013-03-17 16:17:00,
2013-03-17 11:19:00,73.6,19.8,25.28,SW,225,12.3,16.3,13,0.00,,---,0.00,VWS V14.01,2013-03-17 16:19:00,
2013-03-17 11:20:00,73.6,19.8,25.28,West,270,22.6,22.8,13,0.00,,---,0.00,VWS V14.01,2013-03-17 16:20:00,
2013-03-17 11:21:00,72.3,20.5,25.28,WSW,248,14.8,22.6,14,0.00,,---,0.00,VWS V14.01,2013-03-17 16:21:00,
2013-03-17 11:22:00,73.0,21.1,25.28,West,270,24.4,24.4,14,0.00,,---,0.00,VWS V14.01,2013-03-17 16:22:00,
2013-03-17 11:23:00,73.6,19.8,25.28,WSW,248,22.6,28.4,13,0.00,,---,0.00,VWS V14.01,2013-03-17 16:23:00,
2013-03-17 11:24:00,73.4,19.6,25.25,West,270,25.1,25.3,13,0.00,,---,0.00,VWS V14.01,2013-03-17 16:24:00,
2013-03-17 11:25:00,73.8,19.9,25.25,WSW,248,17.5,26.4,13,0.00,,---,0.00,VWS V14.01,2013-03-17 16:25:00,
2013-03-17 11:26:00,73.6,19.8,25.25,WSW,248,25.1,25.1,13,0.00,,---,0.00,VWS V14.01,2013-03-17 16:26:00,
2013-03-17 11:27:00,73.6,19.8,25.25,West,270,30.0,30.0,13,0.00,,---,0.00,VWS V14.01,2013-03-17 16:27:00,
2013-03-17 11:28:00,73.6,19.8,25.25,West,270,23.5,30.0,13,0.00,,---,0.00,VWS V14.01,2013-03-17 16:28:00,
2013-03-17 11:29:00,73.0,21.1,25.25,West,270,23.5,23.9,14,0.00,,---,0.00,VWS V14.01,2013-03-17 16:29:00,
2013-03-17 11:30:00,73.0,21.1,25.25,WSW,248,17.5,23.5,14,0.00,,---,0.00,VWS V14.01,2013-03-17 16:30:00,
2013-03-17 11:31:00,73.4,19.6,25.25,West,270,13.2,13.2,13,0.00,,---,0.00,VWS V14.01,2013-03-17 16:31:00,
2013-03-17 11:32:00,73.4,19.6,25.25,West,270,19.9,19.9,13,0.00,,---,0.00,VWS V14.01,2013-03-17 16:32:00,
2013-03-17 11:33:00,73.9,20.0,25.25,WSW,248,17.7,22.4,13,0.00,,---,0.00,VWS V14.01,2013-03-17 16:33:00,
2013-03-17 11:34:00,73.9,20.0,25.25,WSW,248,25.1,25.1,13,0.00,,---,0.00,VWS V14.01,2013-03-17 16:34:00,
2013-03-17 11:35:00,73.9,20.0,25.25,WSW,248,23.5,25.1,13,0.00,,---,0.00,VWS V14.01,2013-03-17 16:35:00,
2013-03-17 11:36:00,73.4,19.6,25.25,WSW,248,16.3,23.5,13,0.00,,---,0.00,VWS V14.01,2013-03-17 16:36:00,
2013-03-17 11:37:00,74.1,20.2,25.25,WSW,248,17.0,17.0,13,0.00,,---,0.00,VWS V14.01,2013-03-17 16:37:00,
2013-03-17 11:38:00,74.1,20.2,25.25,WSW,248,14.8,19.9,13,0.00,,---,0.00,VWS V14.01,2013-03-17 16:38:00,
2013-03-17 11:39:00,74.1,20.2,25.25,WSW,248,15.7,23.3,13,0.00,,---,0.00,VWS V14.01,2013-03-17 16:39:00,
2013-03-17 11:40:00,73.9,20.0,25.25,West,270,26.2,26.2,13,0.00,,---,0.00,VWS V14.01,2013-03-17 16:40:00,
2013-03-17 11:41:00,73.8,19.9,25.25,WSW,248,26.6,29.8,13,0.00,,---,0.00,VWS V14.01,2013-03-17 16:41:00,
2013-03-17 11:42:00,73.4,19.6,25.25,WSW,248,18.8,29.8,13,0.00,,---,0.00,VWS V14.01,2013-03-17 16:42:00,
2013-03-17 11:43:00,74.3,20.3,25.25,WSW,248,27.7,27.7,13,0.00,,---,0.00,VWS V14.01,2013-03-17 16:43:00,
2013-03-17 11:44:00,73.9,20.0,25.25,West,270,25.5,32.4,13,0.00,,---,0.00,VWS V14.01,2013-03-17 16:44:00,
2013-03-17 11:45:00,73.9,20.0,25.25,WSW,248,24.2,26.4,13,0.00,,---,0.00,VWS V14.01,2013-03-17 16:45:00,
2013-03-17 11:46:00,73.9,20.0,25.25,WSW,248,14.3,24.2,13,0.00,,---,0.00,VWS V14.01,2013-03-17 16:46:00,
2013-03-17 11:47:00,74.7,20.6,25.25,WSW,248,17.7,17.7,13,0.00,,---,0.00,VWS V14.01,2013-03-17 16:47:00,
2013-03-17 11:48:00,74.5,20.5,25.25,WSW,248,24.2,29.3,13,0.00,,---,0.00,VWS V14.01,2013-03-17 16:48:00,
2013-03-17 11:49:00,74.3,20.3,25.25,West,270,28.4,28.4,13,0.00,,---,0.00,VWS V14.01,2013-03-17 16:49:00,
2013-03-17 11:50:00,74.1,20.2,25.25,WSW,248,27.3,28.4,13,0.00,,---,0.00,VWS V14.01,2013-03-17 16:50:00,
2013-03-17 11:51:00,73.9,20.0,25.25,WSW,248,17.5,27.3,13,0.00,,---,0.00,VWS V14.01,2013-03-17 16:51:00,
2013-03-17 11:52:00,73.9,20.0,25.25,WSW,248,17.7,17.7,13,0.00,,---,0.00,VWS V14.01,2013-03-17 16:52:00,
2013-03-17 11:53:00,74.1,20.2,25.25,WSW,248,17.5,23.7,13,0.00,,---,0.00,VWS V14.01,2013-03-17 16:53:00,
2013-03-17 11:54:00,74.1,20.2,25.22,West,270,19.7,22.4,13,0.00,,---,0.00,VWS V14.01,2013-03-17 16:54:00,
2013-03-17 11:55:00,74.8,20.7,25.22,WSW,248,16.1,19.7,13,0.00,,---,0.00,VWS V14.01,2013-03-17 16:55:00,
2013-03-17 11:56:00,74.7,20.6,25.22,WSW,248,32.2,32.2,13,0.00,,---,0.00,VWS V14.01,2013-03-17 16:56:00,
2013-03-17 11:57:00,74.7,20.6,25.22,WSW,248,23.5,32.2,13,0.00,,---,0.00,VWS V14.01,2013-03-17 16:57:00,
2013-03-17 11:58:00,74.7,20.6,25.22,West,270,28.0,28.0,13,0.00,,---,0.00,VWS V14.01,2013-03-17 16:58:00,
2013-03-17 11:59:00,74.7,20.6,25.22,WSW,248,25.7,28.0,13,0.00,,---,0.00,VWS V14.01,2013-03-17 16:59:00,
2013-03-17 12:00:00,74.7,20.6,25.22,West,270,23.9,28.9,13,0.00,,---,0.00,VWS V14.01,2013-03-17 17:00:00,
2013-03-17 12:01:00,73.4,19.6,25.22,West,270,22.6,26.2,13,0.00,,---,0.00,VWS V14.01,2013-03-17 17:01:00,
2013-03-17 12:02:00,74.3,20.3,25.22,WSW,248,19.9,23.9,13,0.00,,---,0.00,VWS V14.01,2013-03-17 17:02:00,
2013-03-17 12:03:00,73.9,20.0,25.22,West,270,17.5,24.6,13,0.00,,---,0.00,VWS V14.01,2013-03-17 17:03:00,
2013-03-17 12:04:00,73.9,20.0,25.22,West,270,17.5,17.5,13,0.00,,---,0.00,VWS V14.01,2013-03-17 17:04:00,
2013-03-17 12:05:00,73.9,20.0,25.22,West,270,14.8,27.1,13,0.00,,---,0.00,VWS V14.01,2013-03-17 17:05:00,
2013-03-17 12:06:00,73.9,20.0,25.22,WSW,248,14.5,17.5,13,0.00,,---,0.00,VWS V14.01,2013-03-17 17:06:00,
2013-03-17 12:07:00,73.9,20.0,25.22,SW,225,12.3,17.2,13,0.00,,---,0.00,VWS V14.01,2013-03-17 17:07:00,
2013-03-17 12:08:00,74.8,20.7,25.22,WSW,248,17.5,21.0,13,0.00,,---,0.00,VWS V14.01,2013-03-17 17:08:00,
2013-03-17 12:09:00,75.0,20.9,25.25,West,270,18.1,27.1,13,0.00,,---,0.00,VWS V14.01,2013-03-17 17:09:00,
2013-03-17 12:10:00,75.0,20.9,25.25,WSW,248,17.7,19.5,13,0.00,,---,0.00,VWS V14.01,2013-03-17 17:10:00,
2013-03-17 12:11:00,75.0,20.9,25.25,West,270,17.2,17.7,13,0.00,,---,0.00,VWS V14.01,2013-03-17 17:11:00,
2013-03-17 12:12:00,75.0,20.9,25.25,West,270,19.5,26.0,13,0.00,,---,0.00,VWS V14.01,2013-03-17 17:12:00,
2013-03-17 12:13:00,75.0,20.9,25.25,West,270,15.9,22.6,13,0.00,,---,0.00,VWS V14.01,2013-03-17 17:13:00,
2013-03-17 12:14:00,75.0,20.9,25.25,SW,225,17.9,18.8,13,0.00,,---,0.00,VWS V14.01,2013-03-17 17:14:00,
2013-03-17 12:15:00,76.1,21.7,25.25,West,270,16.6,17.9,13,0.00,,---,0.00,VWS V14.01,2013-03-17 17:15:00,
2013-03-17 12:17:00,76.1,21.7,25.25,WSW,248,15.4,19.7,13,0.00,,---,0.00,VWS V14.01,2013-03-17 17:17:00,
2013-03-17 12:18:00,76.1,21.7,25.25,WSW,248,16.6,17.2,13,0.00,,---,0.00,VWS V14.01,2013-03-17 17:18:00,
2013-03-17 12:19:00,76.1,21.7,25.25,WSW,248,12.3,16.6,13,0.00,,---,0.00,VWS V14.01,2013-03-17 17:19:00,
2013-03-17 12:20:00,76.3,21.9,25.25,WSW,248,22.4,22.8,13,0.00,,---,0.00,VWS V14.01,2013-03-17 17:20:00,
2013-03-17 12:21:00,76.3,21.9,25.25,SW,225,23.0,23.5,13,0.00,,---,0.00,VWS V14.01,2013-03-17 17:21:00,
2013-03-17 12:22:00,75.9,21.6,25.25,West,270,30.9,30.9,13,0.00,,---,0.00,VWS V14.01,2013-03-17 17:22:00,
2013-03-17 12:23:00,75.2,21.0,25.25,WSW,248,30.2,31.1,13,0.00,,---,0.00,VWS V14.01,2013-03-17 17:23:00,
2013-03-17 12:24:00,75.2,21.0,25.25,SW,225,19.9,30.2,13,0.00,,---,0.00,VWS V14.01,2013-03-17 17:24:00,
2013-03-17 12:25:00,75.2,21.0,25.25,WSW,248,26.6,26.6,13,0.00,,---,0.00,VWS V14.01,2013-03-17 17:25:00,
2013-03-17 12:26:00,75.2,21.0,25.25,WSW,248,22.2,26.4,13,0.00,,---,0.00,VWS V14.01,2013-03-17 17:26:00,
2013-03-17 12:27:00,75.2,21.0,25.25,SW,225,22.8,26.4,13,0.00,,---,0.00,VWS V14.01,2013-03-17 17:27:00,
2013-03-17 12:28:00,75.4,21.2,25.25,SW,225,23.7,23.9,13,0.00,,---,0.00,VWS V14.01,2013-03-17 17:28:00,
2013-03-17 12:29:00,75.7,21.5,25.25,SW,225,23.5,23.7,13,0.00,,---,0.00,VWS V14.01,2013-03-17 17:29:00,
2013-03-17 12:30:00,75.7,21.5,25.25,SW,225,18.1,25.3,13,0.00,,---,0.00,VWS V14.01,2013-03-17 17:30:00,
2013-03-17 12:31:00,75.6,21.3,25.25,WSW,248,27.7,27.7,13,0.00,,---,0.00,VWS V14.01,2013-03-17 17:31:00,
2013-03-17 12:32:00,75.2,21.0,25.25,West,270,27.5,33.1,13,0.00,,---,0.00,VWS V14.01,2013-03-17 17:32:00,
2013-03-17 12:33:00,74.7,20.6,25.25,West,270,23.0,26.6,13,0.00,,---,0.00,VWS V14.01,2013-03-17 17:33:00,
2013-03-17 12:34:00,75.0,20.9,25.25,West,270,26.0,31.1,13,0.00,,---,0.00,VWS V14.01,2013-03-17 17:34:00,
2013-03-17 12:35:00,74.8,20.7,25.25,SW,225,17.2,26.0,13,0.00,,---,0.00,VWS V14.01,2013-03-17 17:35:00,
2013-03-17 12:36:00,75.7,21.5,25.25,SW,225,15.2,19.2,13,0.00,,---,0.00,VWS V14.01,2013-03-17 17:36:00,
2013-03-17 12:37:00,75.9,21.6,25.25,SW,225,17.7,17.7,13,0.00,,---,0.00,VWS V14.01,2013-03-17 17:37:00,
2013-03-17 12:38:00,76.3,21.9,25.25,West,270,19.0,22.8,13,0.00,,---,0.00,VWS V14.01,2013-03-17 17:38:00,
2013-03-17 12:39:00,76.5,22.0,25.25,West,270,17.0,24.4,13,0.00,,---,0.00,VWS V14.01,2013-03-17 17:39:00,
2013-03-17 12:40:00,76.3,21.9,25.25,West,270,17.2,19.5,13,0.00,,---,0.00,VWS V14.01,2013-03-17 17:40:00,
2013-03-17 12:41:00,76.3,21.9,25.25,WSW,248,22.6,22.6,13,0.00,,---,0.00,VWS V14.01,2013-03-17 17:41:00,
2013-03-17 12:42:00,75.6,21.3,25.25,West,270,28.0,28.4,13,0.00,,---,0.00,VWS V14.01,2013-03-17 17:42:00,
2013-03-17 12:43:00,76.3,21.9,25.25,West,270,32.7,32.7,13,0.00,,---,0.00,VWS V14.01,2013-03-17 17:43:00,
2013-03-17 12:44:00,75.6,21.3,25.25,West,270,35.1,35.1,13,0.00,,---,0.00,VWS V14.01,2013-03-17 17:44:00,
2013-03-17 12:45:00,75.4,21.2,25.25,WSW,248,24.6,37.1,13,0.00,,---,0.00,VWS V14.01,2013-03-17 17:45:00,
2013-03-17 12:46:00,75.7,21.5,25.25,WSW,248,20.1,24.6,13,0.00,,---,0.00,VWS V14.01,2013-03-17 17:46:00,
2013-03-17 12:47:00,75.6,21.3,25.25,WSW,248,32.9,32.9,13,0.00,,---,0.00,VWS V14.01,2013-03-17 17:47:00,
2013-03-17 12:48:00,75.6,21.3,25.25,West,270,19.5,32.9,13,0.00,,---,0.00,VWS V14.01,2013-03-17 17:48:00,
2013-03-17 12:49:00,75.6,21.3,25.25,West,270,17.7,19.5,13,0.00,,---,0.00,VWS V14.01,2013-03-17 17:49:00,
2013-03-17 12:50:00,75.9,21.6,25.25,WSW,248,20.1,20.6,13,0.00,,---,0.00,VWS V14.01,2013-03-17 17:50:00,
2013-03-17 12:51:00,76.1,21.7,25.25,WSW,248,23.5,23.5,13,0.00,,---,0.00,VWS V14.01,2013-03-17 17:51:00,
2013-03-17 12:52:00,76.5,22.0,25.25,WSW,248,20.6,28.9,13,0.00,,---,0.00,VWS V14.01,2013-03-17 17:52:00,
2013-03-17 12:53:00,76.6,22.1,25.25,WSW,248,10.1,20.6,13,0.00,,---,0.00,VWS V14.01,2013-03-17 17:53:00,
2013-03-17 12:54:00,76.8,22.3,25.25,WSW,248,15.4,19.5,13,0.00,,---,0.00,VWS V14.01,2013-03-17 17:54:00,
2013-03-17 12:55:00,76.8,22.3,25.25,SW,225,20.4,23.3,13,0.00,,---,0.00,VWS V14.01,2013-03-17 17:55:00,
2013-03-17 12:56:00,77.0,22.4,25.25,SW,225,19.0,20.4,13,0.00,,---,0.00,VWS V14.01,2013-03-17 17:56:00,
2013-03-17 12:57:00,77.2,22.6,25.25,SW,225,19.0,19.0,13,0.00,,---,0.00,VWS V14.01,2013-03-17 17:57:00,
2013-03-17 12:58:00,77.0,22.4,25.25,WSW,248,26.9,27.3,13,0.00,,---,0.00,VWS V14.01,2013-03-17 17:58:00,
2013-03-17 12:59:00,77.0,22.4,25.25,WSW,248,16.8,26.9,13,0.00,,---,0.00,VWS V14.01,2013-03-17 17:59:00,
2013-03-17 13:00:00,77.0,22.4,25.25,SW,225,17.2,18.1,13,0.00,,---,0.00,VWS V14.01,2013-03-17 18:00:00,
2013-03-17 13:01:00,77.4,22.7,25.25,SW,225,14.1,15.2,13,0.00,,---,0.00,VWS V14.01,2013-03-17 18:01:00,
2013-03-17 13:02:00,77.0,22.4,25.25,SW,225,24.2,24.6,13,0.00,,---,0.00,VWS V14.01,2013-03-17 18:02:00,
2013-03-17 13:03:00,77.2,22.6,25.25,SW,225,25.3,29.1,13,0.00,,---,0.00,VWS V14.01,2013-03-17 18:03:00,
2013-03-17 13:04:00,77.2,22.6,25.25,WSW,248,22.8,30.2,13,0.00,,---,0.00,VWS V14.01,2013-03-17 18:04:00,
2013-03-17 13:05:00,77.2,22.6,25.25,SW,225,28.6,28.6,13,0.00,,---,0.00,VWS V14.01,2013-03-17 18:05:00,
2013-03-17 13:06:00,76.8,22.3,25.25,SW,225,23.9,30.7,13,0.00,,---,0.00,VWS V14.01,2013-03-17 18:06:00,
2013-03-17 13:07:00,76.6,22.1,25.25,SW,225,22.4,28.4,13,0.00,,---,0.00,VWS V14.01,2013-03-17 18:07:00,
2013-03-17 13:08:00,76.6,22.1,25.25,WSW,248,26.6,26.6,13,0.00,,---,0.00,VWS V14.01,2013-03-17 18:08:00,
2013-03-17 13:09:00,76.6,22.1,25.25,WSW,248,26.6,26.6,13,0.00,,---,0.00,VWS V14.01,2013-03-17 18:09:00,
2013-03-17 13:10:00,75.9,21.6,25.25,SW,225,30.7,30.7,13,0.00,,---,0.00,VWS V14.01,2013-03-17 18:10:00,
2013-03-17 13:11:00,76.1,21.7,25.25,WSW,248,22.4,30.7,13,0.00,,---,0.00,VWS V14.01,2013-03-17 18:11:00,
2013-03-17 13:12:00,76.5,22.0,25.25,WSW,248,26.0,26.0,13,0.00,,---,0.00,VWS V14.01,2013-03-17 18:12:00,
2013-03-17 13:13:00,76.5,22.0,25.25,WSW,248,17.0,26.0,13,0.00,,---,0.00,VWS V14.01,2013-03-17 18:13:00,
2013-03-17 13:14:00,76.5,22.0,25.25,WSW,248,17.9,25.5,13,0.00,,---,0.00,VWS V14.01,2013-03-17 18:14:00,
2013-03-17 13:15:00,76.6,22.1,25.25,West,270,28.6,28.6,13,0.00,,---,0.00,VWS V14.01,2013-03-17 18:15:00,
2013-03-17 13:16:00,77.0,22.4,25.25,SW,225,21.0,28.6,13,0.00,,---,0.00,VWS V14.01,2013-03-17 18:16:00,
2013-03-17 13:17:00,76.8,22.3,25.25,WSW,248,38.9,38.9,13,0.00,,---,0.00,VWS V14.01,2013-03-17 18:17:00,
2013-03-17 13:18:00,76.5,22.0,25.25,WSW,248,25.5,39.8,13,0.00,,---,0.00,VWS V14.01,2013-03-17 18:18:00,
2013-03-17 13:19:00,76.6,22.1,25.25,WSW,248,17.2,26.6,13,0.00,,---,0.00,VWS V14.01,2013-03-17 18:19:00,
2013-03-17 13:20:00,77.2,22.6,25.25,WSW,248,22.8,22.8,13,0.00,,---,0.00,VWS V14.01,2013-03-17 18:20:00,
2013-03-17 13:21:00,77.0,22.4,25.25,WSW,248,26.2,34.7,13,0.00,,---,0.00,VWS V14.01,2013-03-17 18:21:00,
2013-03-17 13:22:00,76.6,22.1,25.25,WSW,248,21.0,23.3,13,0.00,,---,0.00,VWS V14.01,2013-03-17 18:22:00,
2013-03-17 13:23:00,76.6,22.1,25.25,WSW,248,22.6,32.0,13,0.00,,---,0.00,VWS V14.01,2013-03-17 18:23:00,
2013-03-17 13:24:00,76.5,22.0,25.22,SW,225,27.5,27.5,13,0.00,,---,0.00,VWS V14.01,2013-03-17 18:24:00,
2013-03-17 13:25:00,76.1,21.7,25.22,WSW,248,33.1,33.1,13,0.00,,---,0.00,VWS V14.01,2013-03-17 18:25:00,
2013-03-17 13:26:00,76.3,21.9,25.22,WSW,248,22.8,33.1,13,0.00,,---,0.00,VWS V14.01,2013-03-17 18:26:00,
2013-03-17 13:27:00,77.0,22.4,25.22,West,270,18.8,22.8,13,0.00,,---,0.00,VWS V14.01,2013-03-17 18:27:00,
2013-03-17 13:28:00,75.9,21.6,25.22,West,270,24.2,24.2,13,0.00,,---,0.00,VWS V14.01,2013-03-17 18:28:00,
2013-03-17 13:29:00,76.5,22.0,25.22,WSW,248,28.9,28.9,13,0.00,,---,0.00,VWS V14.01,2013-03-17 18:29:00,
2013-03-17 13:30:00,76.8,22.3,25.22,WSW,248,28.9,28.9,13,0.00,,---,0.00,VWS V14.01,2013-03-17 18:30:00,
2013-03-17 13:31:00,76.5,22.0,25.22,WSW,248,28.9,28.9,13,0.00,,---,0.00,VWS V14.01,2013-03-17 18:31:00,
2013-03-17 13:32:00,75.9,21.6,25.22,WSW,248,28.9,28.9,13,0.00,,---,0.00,VWS V14.01,2013-03-17 18:32:00,
2013-03-17 13:33:00,75.9,21.6,25.22,WSW,248,28.9,28.9,13,0.00,,---,0.00,VWS V14.01,2013-03-17 18:33:00,
2013-03-17 13:34:00,75.7,21.5,25.22,WSW,248,27.3,28.9,13,0.00,,---,0.00,VWS V14.01,2013-03-17 18:34:00,
2013-03-17 13:35:00,76.3,21.9,25.22,West,270,31.8,31.8,13,0.00,,---,0.00,VWS V14.01,2013-03-17 18:35:00,
2013-03-17 13:36:00,76.5,22.0,25.22,West,270,26.6,31.8,13,0.00,,---,0.00,VWS V14.01,2013-03-17 18:36:00,
2013-03-17 13:37:00,75.9,21.6,25.22,West,270,29.5,30.2,13,0.00,,---,0.00,VWS V14.01,2013-03-17 18:37:00,
2013-03-17 13:38:00,76.5,22.0,25.22,SW,225,23.3,23.3,13,0.00,,---,0.00,VWS V14.01,2013-03-17 18:38:00,
2013-03-17 13:39:00,76.5,22.0,25.22,WSW,248,26.0,28.6,13,0.00,,---,0.00,VWS V14.01,2013-03-17 18:39:00,
2013-03-17 13:40:00,76.5,22.0,25.22,WSW,248,31.8,31.8,13,0.00,,---,0.00,VWS V14.01,2013-03-17 18:40:00,
2013-03-17 13:41:00,77.2,22.6,25.22,WSW,248,19.7,31.8,13,0.00,,---,0.00,VWS V14.01,2013-03-17 18:41:00,
2013-03-17 13:42:00,77.2,22.6,25.22,WSW,248,22.8,23.7,13,0.00,,---,0.00,VWS V14.01,2013-03-17 18:42:00,
2013-03-17 13:43:00,77.2,22.6,25.22,SW,225,15.2,24.2,13,0.00,,---,0.00,VWS V14.01,2013-03-17 18:43:00,
2013-03-17 13:44:00,77.5,22.9,25.22,SW,225,37.8,37.8,13,0.00,,---,0.00,VWS V14.01,2013-03-17 18:44:00,
2013-03-17 13:45:00,77.0,22.4,25.22,WSW,248,36.9,37.8,13,0.00,,---,0.00,VWS V14.01,2013-03-17 18:45:00,
2013-03-17 13:46:00,76.3,21.9,25.22,WSW,248,30.9,36.9,13,0.00,,---,0.00,VWS V14.01,2013-03-17 18:46:00,
2013-03-17 13:47:00,76.6,22.1,25.22,WSW,248,30.9,30.9,13,0.00,,---,0.00,VWS V14.01,2013-03-17 18:47:00,
2013-03-17 13:48:00,76.6,22.1,25.22,WSW,248,30.9,30.9,13,0.00,,---,0.00,VWS V14.01,2013-03-17 18:48:00,
2013-03-17 13:49:00,76.6,22.1,25.22,WSW,248,29.5,30.9,13,0.00,,---,0.00,VWS V14.01,2013-03-17 18:49:00,
2013-03-17 13:50:00,76.5,22.0,25.22,WSW,248,28.6,34.7,13,0.00,,---,0.00,VWS V14.01,2013-03-17 18:50:00,
2013-03-17 13:51:00,76.6,22.1,25.22,WSW,248,28.6,28.6,13,0.00,,---,0.00,VWS V14.01,2013-03-17 18:51:00,
2013-03-17 13:52:00,76.8,22.3,25.22,WSW,248,28.6,28.6,13,0.00,,---,0.00,VWS V14.01,2013-03-17 18:52:00,
2013-03-17 13:53:00,76.6,22.1,25.22,WSW,248,28.6,28.6,13,0.00,,---,0.00,VWS V14.01,2013-03-17 18:53:00,
2013-03-17 13:54:00,77.2,22.6,25.22,WSW,248,28.6,28.6,13,0.00,,---,0.00,VWS V14.01,2013-03-17 18:54:00,
2013-03-17 13:55:00,77.5,22.9,25.22,WSW,248,28.6,28.6,13,0.00,,---,0.00,VWS V14.01,2013-03-17 18:55:00,
2013-03-17 13:56:00,77.0,22.4,25.22,WSW,248,29.3,29.3,13,0.00,,---,0.00,VWS V14.01,2013-03-17 18:56:00,
2013-03-17 13:57:00,76.8,22.3,25.22,WSW,248,26.6,32.9,13,0.00,,---,0.00,VWS V14.01,2013-03-17 18:57:00,
2013-03-17 13:58:00,76.5,22.0,25.22,West,270,23.7,28.6,13,0.00,,---,0.00,VWS V14.01,2013-03-17 18:58:00,
2013-03-17 13:59:00,76.8,22.3,25.22,West,270,23.7,23.7,13,0.00,,---,0.00,VWS V14.01,2013-03-17 18:59:00,
2013-03-17 14:00:00,75.9,21.6,25.22,West,270,32.9,32.9,13,0.00,,---,0.00,VWS V14.01,2013-03-17 19:00:00,
2013-03-17 14:01:00,76.1,21.7,25.22,West,270,28.0,32.9,13,0.00,,---,0.00,VWS V14.01,2013-03-17 19:01:00,
2013-03-17 14:03:00,76.1,21.7,25.22,WSW,248,24.2,32.0,13,0.00,,---,0.00,VWS V14.01,2013-03-17 19:03:00,
2013-03-17 14:04:00,76.1,21.7,25.22,WSW,248,32.7,32.9,13,0.00,,---,0.00,VWS V14.01,2013-03-17 19:04:00,
2013-03-17 14:05:00,76.5,22.0,25.22,WSW,248,28.0,32.9,13,0.00,,---,0.00,VWS V14.01,2013-03-17 19:05:00,
2013-03-17 14:06:00,76.3,21.9,25.22,WSW,248,25.7,32.9,13,0.00,,---,0.00,VWS V14.01,2013-03-17 19:06:00,
2013-03-17 14:07:00,76.3,21.9,25.22,West,270,26.4,32.9,13,0.00,,---,0.00,VWS V14.01,2013-03-17 19:07:00,
2013-03-17 14:08:00,75.4,21.2,25.22,West,270,22.8,27.1,13,0.00,,---,0.00,VWS V14.01,2013-03-17 19:08:00,
2013-03-17 14:09:00,76.3,21.9,25.22,WSW,248,23.9,27.5,13,0.00,,---,0.00,VWS V14.01,2013-03-17 19:09:00,
2013-03-17 14:10:00,76.8,22.3,25.22,West,270,25.7,32.2,13,0.00,,---,0.00,VWS V14.01,2013-03-17 19:10:00,
2013-03-17 14:11:00,77.2,22.6,25.22,WSW,248,27.3,30.0,13,0.00,,---,0.00,VWS V14.01,2013-03-17 19:11:00,
2013-03-17 14:12:00,77.5,22.9,25.22,WSW,248,25.3,30.0,13,0.00,,---,0.00,VWS V14.01,2013-03-17 19:12:00,
2013-03-17 14:13:00,77.0,22.4,25.22,WSW,248,24.6,28.4,13,0.00,,---,0.00,VWS V14.01,2013-03-17 19:13:00,
2013-03-17 14:14:00,77.0,22.4,25.22,SW,225,26.6,26.6,13,0.00,,---,0.00,VWS V14.01,2013-03-17 19:14:00,
2013-03-17 14:15:00,77.0,22.4,25.22,WSW,248,29.5,31.1,13,0.00,,---,0.00,VWS V14.01,2013-03-17 19:15:00,
2013-03-17 14:16:00,77.0,22.4,25.22,WSW,248,28.0,32.2,13,0.00,,---,0.00,VWS V14.01,2013-03-17 19:16:00,
2013-03-17 14:17:00,77.0,22.4,25.22,WSW,248,25.7,28.4,13,0.00,,---,0.00,VWS V14.01,2013-03-17 19:17:00,
2013-03-17 14:18:00,77.7,23.0,25.22,West,270,23.7,26.4,13,0.00,,---,0.00,VWS V14.01,2013-03-17 19:18:00,
2013-03-17 14:19:00,77.7,23.0,25.22,WSW,248,28.9,28.9,13,0.00,,---,0.00,VWS V14.01,2013-03-17 19:19:00,
2013-03-17 14:20:00,77.4,22.7,25.22,WSW,248,25.7,36.0,13,0.00,,---,0.00,VWS V14.01,2013-03-17 19:20:00,
2013-03-17 14:21:00,77.2,22.6,25.22,West,270,27.7,27.7,13,0.00,,---,0.00,VWS V14.01,2013-03-17 19:21:00,
2013-03-17 14:22:00,76.5,22.0,25.22,West,270,28.6,28.6,13,0.00,,---,0.00,VWS V14.01,2013-03-17 19:22:00,
2013-03-17 14:23:00,76.1,21.7,25.22,West,270,27.5,28.6,13,0.00,,---,0.00,VWS V14.01,2013-03-17 19:23:00,
2013-03-17 14:24:00,76.6,22.1,25.19,West,270,26.4,32.9,13,0.00,,---,0.00,VWS V14.01,2013-03-17 19:24:00,
2013-03-17 14:25:00,76.5,22.0,25.19,WSW,248,32.9,33.1,13,0.00,,---,0.00,VWS V14.01,2013-03-17 19:25:00,
2013-03-17 14:26:00,77.0,22.4,25.19,WSW,248,23.5,32.9,13,0.00,,---,0.00,VWS V14.01,2013-03-17 19:26:00,
2013-03-17 14:27:00,77.0,22.4,25.19,SW,225,23.9,25.1,13,0.00,,---,0.00,VWS V14.01,2013-03-17 19:27:00,
2013-03-17 14:28:00,77.0,22.4,25.19,SW,225,15.9,23.9,13,0.00,,---,0.00,VWS V14.01,2013-03-17 19:28:00,
2013-03-17 14:29:00,77.0,22.4,25.19,SW,225,16.6,27.7,13,0.00,,---,0.00,VWS V14.01,2013-03-17 19:29:00,
2013-03-17 14:30:00,77.5,22.9,25.19,West,270,28.0,28.0,13,0.00,,---,0.00,VWS V14.01,2013-03-17 19:30:00,
2013-03-17 14:31:00,77.4,22.7,25.19,West,270,24.4,29.1,13,0.00,,---,0.00,VWS V14.01,2013-03-17 19:31:00,
2013-03-17 14:32:00,76.6,22.1,25.19,West,270,17.2,29.1,13,0.00,,---,0.00,VWS V14.01,2013-03-17 19:32:00,
2013-03-17 14:33:00,77.2,22.6,25.19,WSW,248,23.7,23.7,13,0.00,,---,0.00,VWS V14.01,2013-03-17 19:33:00,
2013-03-17 14:34:00,77.5,22.9,25.19,SW,225,27.5,27.5,13,0.00,,---,0.00,VWS V14.01,2013-03-17 19:34:00,
2013-03-17 14:35:00,77.7,23.0,25.19,WSW,248,26.4,27.5,13,0.00,,---,0.00,VWS V14.01,2013-03-17 19:35:00,
2013-03-17 14:36:00,78.3,23.4,25.19,West,270,17.2,26.4,13,0.00,,---,0.00,VWS V14.01,2013-03-17 19:36:00,
2013-03-17 14:37:00,78.6,23.7,25.19,SW,225,28.0,28.0,13,0.00,,---,0.00,VWS V14.01,2013-03-17 19:37:00,
2013-03-17 14:38:00,78.4,23.6,25.19,WSW,248,23.9,30.2,13,0.00,,---,0.00,VWS V14.01,2013-03-17 19:38:00,
2013-03-17 14:39:00,77.7,23.0,25.19,WSW,248,26.2,29.5,13,0.00,,---,0.00,VWS V14.01,2013-03-17 19:39:00,
2013-03-17 14:40:00,77.5,22.9,25.19,WSW,248,26.4,27.7,13,0.00,,---,0.00,VWS V14.01,2013-03-17 19:40:00,
2013-03-17 14:42:00,77.7,23.0,25.19,WSW,248,23.0,23.0,13,0.00,,---,0.00,VWS V14.01,2013-03-17 19:42:00,
2013-03-17 14:43:00,77.9,23.1,25.19,WSW,248,22.6,28.4,13,0.00,,---,0.00,VWS V14.01,2013-03-17 19:43:00,
2013-03-17 14:44:00,76.8,22.3,25.19,West,270,21.0,24.2,13,0.00,,---,0.00,VWS V14.01,2013-03-17 19:44:00,
2013-03-17 14:45:00,77.4,22.7,25.19,West,270,22.4,24.6,13,0.00,,---,0.00,VWS V14.01,2013-03-17 19:45:00,
2013-03-17 14:46:00,78.1,23.3,25.19,SW,225,22.4,22.4,13,0.00,,---,0.00,VWS V14.01,2013-03-17 19:46:00,
2013-03-17 14:47:00,78.1,23.3,25.19,SW,225,25.3,25.3,13,0.00,,---,0.00,VWS V14.01,2013-03-17 19:47:00,
2013-03-17 14:48:00,78.3,23.4,25.19,WSW,248,25.5,25.5,13,0.00,,---,0.00,VWS V14.01,2013-03-17 19:48:00,
2013-03-17 14:49:00,77.9,23.1,25.19,WSW,248,28.0,29.3,13,0.00,,---,0.00,VWS V14.01,2013-03-17 19:49:00,
2013-03-17 14:50:00,77.5,22.9,25.19,SW,225,18.1,28.0,13,0.00,,---,0.00,VWS V14.01,2013-03-17 19:50:00,
2013-03-17 14:51:00,77.7,23.0,25.19,SW,225,23.3,29.1,13,0.00,,---,0.00,VWS V14.01,2013-03-17 19:51:00,
2013-03-17 14:52:00,77.7,23.0,25.19,SW,225,23.3,23.3,13,0.00,,---,0.00,VWS V14.01,2013-03-17 19:52:00,
2013-03-17 14:53:00,78.1,23.3,25.19,WSW,248,26.0,26.0,13,0.00,,---,0.00,VWS V14.01,2013-03-17 19:53:00,
2013-03-17 14:54:00,77.5,22.9,25.19,WSW,248,39.6,39.6,13,0.00,,---,0.00,VWS V14.01,2013-03-17 19:54:00,
2013-03-17 14:55:00,77.4,22.7,25.19,WSW,248,31.1,39.6,13,0.00,,---,0.00,VWS V14.01,2013-03-17 19:55:00,
2013-03-17 14:56:00,77.5,22.9,25.19,WSW,248,22.4,31.1,13,0.00,,---,0.00,VWS V14.01,2013-03-17 19:56:00,
2013-03-17 14:57:00,77.4,22.7,25.19,WSW,248,25.5,25.5,13,0.00,,---,0.00,VWS V14.01,2013-03-17 19:57:00,
2013-03-17 14:58:00,77.4,22.7,25.19,WSW,248,25.5,25.5,13,0.00,,---,0.00,VWS V14.01,2013-03-17 19:58:00,
2013-03-17 14:59:00,77.7,23.0,25.19,WSW,248,22.2,25.5,13,0.00,,---,0.00,VWS V14.01,2013-03-17 19:59:00,
2013-03-17 15:00:00,78.1,23.3,25.19,SW,225,23.9,28.0,13,0.00,,---,0.00,VWS V14.01,2013-03-17 20:00:00,
2013-03-17 15:01:00,77.5,22.9,25.19,WSW,248,26.9,26.9,13,0.00,,---,0.00,VWS V14.01,2013-03-17 20:01:00,
2013-03-17 15:02:00,77.5,22.9,25.19,West,270,24.2,24.2,13,0.00,,---,0.00,VWS V14.01,2013-03-17 20:02:00,
2013-03-17 15:03:00,78.1,23.3,25.19,West,270,22.2,24.2,13,0.00,,---,0.00,VWS V14.01,2013-03-17 20:03:00,
2013-03-17 15:04:00,78.1,23.3,25.19,WSW,248,29.8,30.4,13,0.00,,---,0.00,VWS V14.01,2013-03-17 20:04:00,
2013-03-17 15:05:00,78.1,23.3,25.19,WSW,248,29.8,29.8,13,0.00,,---,0.00,VWS V14.01,2013-03-17 20:05:00,
2013-03-17 15:06:00,77.7,23.0,25.19,SW,225,29.1,30.9,13,0.00,,---,0.00,VWS V14.01,2013-03-17 20:06:00,
2013-03-17 15:07:00,77.7,23.0,25.19,WSW,248,19.9,29.1,13,0.00,,---,0.00,VWS V14.01,2013-03-17 20:07:00,
2013-03-17 15:08:00,77.9,23.1,25.19,WSW,248,23.3,23.3,13,0.00,,---,0.00,VWS V14.01,2013-03-17 20:08:00,
2013-03-17 15:09:00,78.1,23.3,25.19,West,270,15.9,23.3,13,0.00,,---,0.00,VWS V14.01,2013-03-17 20:09:00,
2013-03-17 15:10:00,78.1,23.3,25.19,West,270,23.7,23.7,13,0.00,,---,0.00,VWS V14.01,2013-03-17 20:10:00,
2013-03-17 15:11:00,78.4,23.6,25.19,WSW,248,25.5,25.5,13,0.00,,---,0.00,VWS V14.01,2013-03-17 20:11:00,
2013-03-17 15:12:00,78.3,23.4,25.19,SW,225,19.9,25.5,13,0.00,,---,0.00,VWS V14.01,2013-03-17 20:12:00,
2013-03-17 15:13:00,78.3,23.4,25.19,WSW,248,24.4,24.4,13,0.00,,---,0.00,VWS V14.01,2013-03-17 20:13:00,
2013-03-17 15:14:00,78.6,23.7,25.19,SW,225,15.2,17.2,13,0.00,,---,0.00,VWS V14.01,2013-03-17 20:14:00,
2013-03-17 15:15:00,79.3,22.4,25.19,SW,225,19.9,20.8,12,0.00,,---,0.00,VWS V14.01,2013-03-17 20:15:00,
2013-03-17 15:16:00,79.3,22.4,25.19,WSW,248,14.8,19.9,12,0.00,,---,0.00,VWS V14.01,2013-03-17 20:16:00,
2013-03-17 15:17:00,79.5,22.5,25.19,WSW,248,23.7,23.7,12,0.00,,---,0.00,VWS V14.01,2013-03-17 20:17:00,
2013-03-17 15:18:00,79.2,22.2,25.19,WSW,248,37.8,37.8,12,0.00,,---,0.00,VWS V14.01,2013-03-17 20:18:00,
2013-03-17 15:19:00,79.2,22.2,25.19,WSW,248,19.9,37.8,12,0.00,,---,0.00,VWS V14.01,2013-03-17 20:19:00,
2013-03-17 15:20:00,79.2,22.2,25.19,WSW,248,17.7,19.9,12,0.00,,---,0.00,VWS V14.01,2013-03-17 20:20:00,
2013-03-17 15:21:00,79.2,22.2,25.19,SW,225,23.7,23.7,12,0.00,,---,0.00,VWS V14.01,2013-03-17 20:21:00,
2013-03-17 15:22:00,78.8,22.0,25.19,WSW,248,31.3,31.3,12,0.00,,---,0.00,VWS V14.01,2013-03-17 20:22:00,
2013-03-17 15:23:00,78.3,23.4,25.19,West,270,32.4,35.1,13,0.00,,---,0.00,VWS V14.01,2013-03-17 20:23:00,
2013-03-17 15:24:00,78.3,23.4,25.19,WSW,248,30.9,30.9,13,0.00,,---,0.00,VWS V14.01,2013-03-17 20:24:00,
2013-03-17 15:25:00,77.7,23.0,25.19,West,270,32.2,32.2,13,0.00,,---,0.00,VWS V14.01,2013-03-17 20:25:00,
2013-03-17 15:26:00,78.3,23.4,25.19,WSW,248,26.6,32.2,13,0.00,,---,0.00,VWS V14.01,2013-03-17 20:26:00,
2013-03-17 15:27:00,78.3,23.4,25.19,WSW,248,23.3,26.6,13,0.00,,---,0.00,VWS V14.01,2013-03-17 20:27:00,
2013-03-17 15:28:00,78.6,23.7,25.19,WSW,248,23.5,25.3,13,0.00,,---,0.00,VWS V14.01,2013-03-17 20:28:00,
2013-03-17 15:29:00,78.3,23.4,25.19,WSW,248,26.2,26.2,13,0.00,,---,0.00,VWS V14.01,2013-03-17 20:29:00,
2013-03-17 15:30:00,78.1,23.3,25.19,WSW,248,23.9,26.2,13,0.00,,---,0.00,VWS V14.01,2013-03-17 20:30:00,
2013-03-17 15:31:00,78.3,23.4,25.19,WSW,248,33.1,33.1,13,0.00,,---,0.00,VWS V14.01,2013-03-17 20:31:00,
2013-03-17 15:32:00,78.3,23.4,25.19,WSW,248,29.5,33.1,13,0.00,,---,0.00,VWS V14.01,2013-03-17 20:32:00,
2013-03-17 15:33:00,78.3,23.4,25.19,WSW,248,24.6,29.8,13,0.00,,---,0.00,VWS V14.01,2013-03-17 20:33:00,
2013-03-17 15:34:00,78.3,23.4,25.19,WSW,248,26.0,26.0,13,0.00,,---,0.00,VWS V14.01,2013-03-17 20:34:00,
2013-03-17 15:35:00,78.3,23.4,25.19,WSW,248,26.0,26.0,13,0.00,,---,0.00,VWS V14.01,2013-03-17 20:35:00,
2013-03-17 15:36:00,78.4,23.6,25.19,West,270,24.6,24.6,13,0.00,,---,0.00,VWS V14.01,2013-03-17 20:36:00,
2013-03-17 15:37:00,78.4,23.6,25.19,West,270,26.4,26.4,13,0.00,,---,0.00,VWS V14.01,2013-03-17 20:37:00,
2013-03-17 15:38:00,78.4,23.6,25.19,West,270,19.5,27.3,13,0.00,,---,0.00,VWS V14.01,2013-03-17 20:38:00,
2013-03-17 15:39:00,78.4,23.6,25.19,West,270,23.0,23.0,13,0.00,,---,0.00,VWS V14.01,2013-03-17 20:39:00,
2013-03-17 15:40:00,78.1,23.3,25.19,WSW,248,23.3,29.1,13,0.00,,---,0.00,VWS V14.01,2013-03-17 20:40:00,
2013-03-17 15:41:00,79.0,22.1,25.19,WSW,248,16.3,23.3,12,0.00,,---,0.00,VWS V14.01,2013-03-17 20:41:00,
2013-03-17 15:42:00,79.0,22.1,25.16,WSW,248,22.8,22.8,12,0.00,,---,0.00,VWS V14.01,2013-03-17 20:42:00,
2013-03-17 15:43:00,78.3,23.4,25.16,SW,225,27.1,27.1,13,0.00,,---,0.00,VWS V14.01,2013-03-17 20:43:00,
2013-03-17 15:44:00,78.1,23.3,25.16,SW,225,29.5,30.9,13,0.00,,---,0.00,VWS V14.01,2013-03-17 20:44:00,
2013-03-17 15:45:00,77.9,23.1,25.16,SW,225,22.8,29.5,13,0.00,,---,0.00,VWS V14.01,2013-03-17 20:45:00,
2013-03-17 15:46:00,77.9,23.1,25.16,SW,225,22.2,24.2,13,0.00,,---,0.00,VWS V14.01,2013-03-17 20:46:00,
2013-03-17 15:47:00,78.1,23.3,25.16,SW,225,22.2,22.2,13,0.00,,---,0.00,VWS V14.01,2013-03-17 20:47:00,
2013-03-17 15:49:00,77.7,23.0,25.16,SW,225,17.7,23.5,13,0.00,,---,0.00,VWS V14.01,2013-03-17 20:49:00,
2013-03-17 15:50:00,77.7,23.0,25.16,SW,225,19.0,19.9,13,0.00,,---,0.00,VWS V14.01,2013-03-17 20:50:00,
2013-03-17 15:51:00,78.3,23.4,25.16,WSW,248,18.8,30.7,13,0.00,,---,0.00,VWS V14.01,2013-03-17 20:51:00,
2013-03-17 15:52:00,78.6,23.7,25.16,WSW,248,17.7,23.9,13,0.00,,---,0.00,VWS V14.01,2013-03-17 20:52:00,
2013-03-17 15:53:00,79.0,22.1,25.16,WSW,248,20.4,21.5,12,0.00,,---,0.00,VWS V14.01,2013-03-17 20:53:00,
2013-03-17 15:54:00,79.0,22.1,25.16,West,270,30.4,30.7,12,0.00,,---,0.00,VWS V14.01,2013-03-17 20:54:00,
2013-03-17 15:55:00,78.8,22.0,25.16,West,270,21.5,30.4,12,0.00,,---,0.00,VWS V14.01,2013-03-17 20:55:00,
2013-03-17 15:56:00,78.6,23.7,25.16,WSW,248,23.0,24.4,13,0.00,,---,0.00,VWS V14.01,2013-03-17 20:56:00,
2013-03-17 15:57:00,78.8,22.0,25.16,WSW,248,25.7,28.0,12,0.00,,---,0.00,VWS V14.01,2013-03-17 20:57:00,
2013-03-17 15:58:00,78.4,23.6,25.16,WSW,248,30.2,30.2,13,0.00,,---,0.00,VWS V14.01,2013-03-17 20:58:00,
2013-03-17 15:59:00,78.6,23.7,25.16,SW,225,18.1,30.2,13,0.00,,---,0.00,VWS V14.01,2013-03-17 20:59:00,
2013-03-17 16:00:00,78.4,23.6,25.16,SW,225,17.7,26.6,13,0.00,,---,0.00,VWS V14.01,2013-03-17 21:00:00,
2013-03-17 16:01:00,78.4,23.6,25.16,SW,225,17.7,17.7,13,0.00,,---,0.00,VWS V14.01,2013-03-17 21:01:00,
2013-03-17 16:02:00,78.3,23.4,25.16,SW,225,19.9,19.9,13,0.00,,---,0.00,VWS V14.01,2013-03-17 21:02:00,
2013-03-17 16:03:00,78.1,23.3,25.16,SW,225,13.2,21.9,13,0.00,,---,0.00,VWS V14.01,2013-03-17 21:03:00,
2013-03-17 16:04:00,78.3,23.4,25.16,SW,225,19.2,19.2,13,0.00,,---,0.00,VWS V14.01,2013-03-17 21:04:00,
2013-03-17 16:05:00,78.3,23.4,25.16,WSW,248,16.1,19.2,13,0.00,,---,0.00,VWS V14.01,2013-03-17 21:05:00,
2013-03-17 16:06:00,79.0,22.1,25.16,West,270,15.4,15.4,12,0.00,,---,0.00,VWS V14.01,2013-03-17 21:06:00,
2013-03-17 16:07:00,79.3,22.4,25.16,SW,225,29.3,29.3,12,0.00,,---,0.00,VWS V14.01,2013-03-17 21:07:00,
2013-03-17 16:08:00,79.0,22.1,25.16,SW,225,18.6,29.3,12,0.00,,---,0.00,VWS V14.01,2013-03-17 21:08:00,
2013-03-17 16:09:00,79.0,22.1,25.16,WSW,248,26.6,26.6,12,0.00,,---,0.00,VWS V14.01,2013-03-17 21:09:00,
2013-03-17 16:10:00,79.0,22.1,25.16,WSW,248,22.4,33.3,12,0.00,,---,0.00,VWS V14.01,2013-03-17 21:10:00,
2013-03-17 16:11:00,78.4,23.6,25.16,WSW,248,23.0,24.4,13,0.00,,---,0.00,VWS V14.01,2013-03-17 21:11:00,
2013-03-17 16:12:00,78.4,23.6,25.16,SW,225,17.0,25.7,13,0.00,,---,0.00,VWS V14.01,2013-03-17 21:12:00,
2013-03-17 16:13:00,78.4,23.6,25.16,WSW,248,22.2,22.2,13,0.00,,---,0.00,VWS V14.01,2013-03-17 21:13:00,
2013-03-17 16:14:00,78.4,23.6,25.16,WSW,248,23.3,23.3,13,0.00,,---,0.00,VWS V14.01,2013-03-17 21:14:00,
2013-03-17 16:15:00,78.3,23.4,25.16,West,270,25.5,25.5,13,0.00,,---,0.00,VWS V14.01,2013-03-17 21:15:00,
2013-03-17 16:16:00,78.3,23.4,25.16,WSW,248,27.7,27.7,13,0.00,,---,0.00,VWS V14.01,2013-03-17 21:16:00,
2013-03-17 16:17:00,78.4,23.6,25.16,West,270,23.0,27.7,13,0.00,,---,0.00,VWS V14.01,2013-03-17 21:17:00,
2013-03-17 16:18:00,78.4,23.6,25.16,West,270,23.0,23.0,13,0.00,,---,0.00,VWS V14.01,2013-03-17 21:18:00,
2013-03-17 16:19:00,78.6,23.7,25.16,WSW,248,22.8,27.5,13,0.00,,---,0.00,VWS V14.01,2013-03-17 21:19:00,
2013-03-17 16:20:00,78.8,22.0,25.16,SW,225,17.5,22.8,12,0.00,,---,0.00,VWS V14.01,2013-03-17 21:20:00,
2013-03-17 16:21:00,78.8,22.0,25.16,SW,225,27.5,27.5,12,0.00,,---,0.00,VWS V14.01,2013-03-17 21:21:00,
2013-03-17 16:22:00,78.8,22.0,25.16,SW,225,22.8,27.5,12,0.00,,---,0.00,VWS V14.01,2013-03-17 21:22:00,
2013-03-17 16:23:00,78.4,23.6,25.16,SW,225,21.3,24.6,13,0.00,,---,0.00,VWS V14.01,2013-03-17 21:23:00,
2013-03-17 16:24:00,78.3,23.4,25.16,WSW,248,25.3,25.5,13,0.00,,---,0.00,VWS V14.01,2013-03-17 21:24:00,
2013-03-17 16:25:00,78.3,23.4,25.16,WSW,248,25.3,25.3,13,0.00,,---,0.00,VWS V14.01,2013-03-17 21:25:00,
2013-03-17 16:26:00,78.1,23.3,25.16,SW,225,23.5,25.3,13,0.00,,---,0.00,VWS V14.01,2013-03-17 21:26:00,
2013-03-17 16:27:00,78.4,23.6,25.16,SW,225,28.9,28.9,13,0.00,,---,0.00,VWS V14.01,2013-03-17 21:27:00,
2013-03-17 16:28:00,78.4,23.6,25.16,WSW,248,21.3,29.1,13,0.00,,---,0.00,VWS V14.01,2013-03-17 21:28:00,
2013-03-17 16:29:00,78.3,23.4,25.16,SW,225,25.7,25.7,13,0.00,,---,0.00,VWS V14.01,2013-03-17 21:29:00,
2013-03-17 16:30:00,78.3,23.4,25.16,WSW,248,22.4,25.7,13,0.00,,---,0.00,VWS V14.01,2013-03-17 21:30:00,
2013-03-17 16:31:00,78.4,23.6,25.16,SW,225,25.1,27.1,13,0.00,,---,0.00,VWS V14.01,2013-03-17 21:31:00,
2013-03-17 16:32:00,78.4,23.6,25.16,SW,225,22.8,27.3,13,0.00,,---,0.00,VWS V14.01,2013-03-17 21:32:00,
2013-03-17 16:33:00,78.1,23.3,25.16,SW,225,18.1,22.8,13,0.00,,---,0.00,VWS V14.01,2013-03-17 21:33:00,
2013-03-17 16:34:00,78.3,23.4,25.16,SW,225,21.9,21.9,13,0.00,,---,0.00,VWS V14.01,2013-03-17 21:34:00,
2013-03-17 16:35:00,78.4,23.6,25.16,SW,225,15.4,21.9,13,0.00,,---,0.00,VWS V14.01,2013-03-17 21:35:00,
2013-03-17 16:36:00,78.6,23.7,25.16,WSW,248,18.8,18.8,13,0.00,,---,0.00,VWS V14.01,2013-03-17 21:36:00,
2013-03-17 16:37:00,78.8,22.0,25.16,WSW,248,13.9,18.8,12,0.00,,---,0.00,VWS V14.01,2013-03-17 21:37:00,
2013-03-17 16:38:00,78.6,23.7,25.16,WSW,248,13.0,14.5,13,0.00,,---,0.00,VWS V14.01,2013-03-17 21:38:00,
2013-03-17 16:39:00,78.8,22.0,25.16,SW,225,17.5,17.5,12,0.00,,---,0.00,VWS V14.01,2013-03-17 21:39:00,
2013-03-17 16:40:00,78.8,22.0,25.16,West,270,15.2,17.5,12,0.00,,---,0.00,VWS V14.01,2013-03-17 21:40:00,
2013-03-17 16:41:00,78.8,22.0,25.16,WSW,248,17.2,19.9,12,0.00,,---,0.00,VWS V14.01,2013-03-17 21:41:00,
2013-03-17 16:42:00,79.2,22.2,25.16,WSW,248,22.4,22.4,12,0.00,,---,0.00,VWS V14.01,2013-03-17 21:42:00,
2013-03-17 16:43:00,79.2,22.2,25.16,West,270,23.7,23.7,12,0.00,,---,0.00,VWS V14.01,2013-03-17 21:43:00,
2013-03-17 16:44:00,79.2,22.2,25.16,SW,225,26.0,26.0,12,0.00,,---,0.00,VWS V14.01,2013-03-17 21:44:00,
2013-03-17 16:45:00,79.2,22.2,25.16,SW,225,26.0,27.3,12,0.00,,---,0.00,VWS V14.01,2013-03-17 21:45:00,
2013-03-17 16:46:00,79.2,22.2,25.16,SW,225,24.2,26.9,12,0.00,,---,0.00,VWS V14.01,2013-03-17 21:46:00,
2013-03-17 16:47:00,78.6,23.7,25.16,SW,225,24.2,24.2,13,0.00,,---,0.00,VWS V14.01,2013-03-17 21:47:00,
2013-03-17 16:48:00,78.4,23.6,25.16,SW,225,22.2,24.2,13,0.00,,---,0.00,VWS V14.01,2013-03-17 21:48:00,
2013-03-17 16:49:00,78.4,23.6,25.16,WSW,248,24.2,24.2,13,0.00,,---,0.00,VWS V14.01,2013-03-17 21:49:00,
2013-03-17 16:50:00,78.3,23.4,25.16,WSW,248,24.4,24.4,13,0.00,,---,0.00,VWS V14.01,2013-03-17 21:50:00,
2013-03-17 16:51:00,78.4,23.6,25.16,WSW,248,24.4,24.4,13,0.00,,---,0.00,VWS V14.01,2013-03-17 21:51:00,
2013-03-17 16:52:00,78.1,23.3,25.16,WSW,248,22.2,24.4,13,0.00,,---,0.00,VWS V14.01,2013-03-17 21:52:00,
2013-03-17 16:53:00,78.3,23.4,25.16,WSW,248,26.4,26.4,13,0.00,,---,0.00,VWS V14.01,2013-03-17 21:53:00,
2013-03-17 16:54:00,78.3,23.4,25.16,WSW,248,15.2,26.4,13,0.00,,---,0.00,VWS V14.01,2013-03-17 21:54:00,
2013-03-17 16:55:00,78.3,23.4,25.16,WSW,248,21.9,21.9,13,0.00,,---,0.00,VWS V14.01,2013-03-17 21:55:00,
2013-03-17 16:56:00,78.4,23.6,25.16,SW,225,22.2,23.7,13,0.00,,---,0.00,VWS V14.01,2013-03-17 21:56:00,
2013-03-17 16:57:00,78.6,23.7,25.16,SW,225,21.9,22.8,13,0.00,,---,0.00,VWS V14.01,2013-03-17 21:57:00,
2013-03-17 16:58:00,78.6,23.7,25.16,West,270,25.7,26.2,13,0.00,,---,0.00,VWS V14.01,2013-03-17 21:58:00,
2013-03-17 16:59:00,78.8,22.0,25.16,WSW,248,16.8,25.7,12,0.00,,---,0.00,VWS V14.01,2013-03-17 21:59:00,
2013-03-17 17:00:00,78.6,23.7,25.16,SW,225,26.4,33.3,13,0.00,,---,0.00,VWS V14.01,2013-03-17 22:00:00,
2013-03-17 17:01:00,78.3,23.4,25.16,SW,225,28.4,29.5,13,0.00,,---,0.00,VWS V14.01,2013-03-17 22:01:00,
2013-03-17 17:02:00,78.1,23.3,25.16,SW,225,28.6,28.6,13,0.00,,---,0.00,VWS V14.01,2013-03-17 22:02:00,
2013-03-17 17:03:00,77.9,23.1,25.16,SW,225,17.2,28.6,13,0.00,,---,0.00,VWS V14.01,2013-03-17 22:03:00,
2013-03-17 17:04:00,77.9,23.1,25.16,SW,225,19.7,25.1,13,0.00,,---,0.00,VWS V14.01,2013-03-17 22:04:00,
2013-03-17 17:05:00,77.9,23.1,25.16,WSW,248,19.7,19.9,13,0.00,,---,0.00,VWS V14.01,2013-03-17 22:05:00,
2013-03-17 17:06:00,78.1,23.3,25.16,WSW,248,17.5,24.4,13,0.00,,---,0.00,VWS V14.01,2013-03-17 22:06:00,
2013-03-17 17:07:00,78.3,23.4,25.16,WSW,248,17.2,17.5,13,0.00,,---,0.00,VWS V14.01,2013-03-17 22:07:00,
2013-03-17 17:08:00,78.3,23.4,25.16,SW,225,16.6,22.8,13,0.00,,---,0.00,VWS V14.01,2013-03-17 22:08:00,
2013-03-17 17:09:00,78.3,23.4,25.16,SW,225,22.6,22.6,13,0.00,,---,0.00,VWS V14.01,2013-03-17 22:09:00,
2013-03-17 17:10:00,78.3,23.4,25.16,WSW,248,26.6,28.4,13,0.00,,---,0.00,VWS V14.01,2013-03-17 22:10:00,
2013-03-17 17:11:00,78.1,23.3,25.16,WSW,248,25.3,26.6,13,0.00,,---,0.00,VWS V14.01,2013-03-17 22:11:00,
2013-03-17 17:12:00,77.9,23.1,25.16,West,270,28.6,28.6,13,0.00,,---,0.00,VWS V14.01,2013-03-17 22:12:00,
2013-03-17 17:13:00,77.2,22.6,25.16,West,270,26.4,31.8,13,0.00,,---,0.00,VWS V14.01,2013-03-17 22:13:00,
2013-03-17 17:14:00,77.4,22.7,25.16,West,270,23.5,26.6,13,0.00,,---,0.00,VWS V14.01,2013-03-17 22:14:00,
2013-03-17 17:15:00,77.4,22.7,25.16,WSW,248,25.5,25.5,13,0.00,,---,0.00,VWS V14.01,2013-03-17 22:15:00,
2013-03-17 17:17:00,77.7,23.0,25.16,West,270,17.5,27.5,13,0.00,,---,0.00,VWS V14.01,2013-03-17 22:17:00,
2013-03-17 17:18:00,78.1,23.3,25.16,WSW,248,28.4,30.9,13,0.00,,---,0.00,VWS V14.01,2013-03-17 22:18:00,
2013-03-17 17:19:00,77.7,23.0,25.16,West,270,18.1,28.4,13,0.00,,---,0.00,VWS V14.01,2013-03-17 22:19:00,
2013-03-17 17:20:00,77.5,22.9,25.16,WSW,248,22.8,22.8,13,0.00,,---,0.00,VWS V14.01,2013-03-17 22:20:00,
2013-03-17 17:21:00,77.7,23.0,25.16,WSW,248,22.8,22.8,13,0.00,,---,0.00,VWS V14.01,2013-03-17 22:21:00,
2013-03-17 17:22:00,77.9,23.1,25.16,WSW,248,28.0,29.5,13,0.00,,---,0.00,VWS V14.01,2013-03-17 22:22:00,
2013-03-17 17:23:00,77.4,22.7,25.16,WSW,248,27.7,29.8,13,0.00,,---,0.00,VWS V14.01,2013-03-17 22:23:00,
2013-03-17 17:24:00,77.4,22.7,25.16,WSW,248,23.3,30.0,13,0.00,,---,0.00,VWS V14.01,2013-03-17 22:24:00,
2013-03-17 17:25:00,77.4,22.7,25.16,WSW,248,26.0,26.2,13,0.00,,---,0.00,VWS V14.01,2013-03-17 22:25:00,
2013-03-17 17:26:00,77.4,22.7,25.16,West,270,22.4,26.0,13,0.00,,---,0.00,VWS V14.01,2013-03-17 22:26:00,
2013-03-17 17:27:00,77.4,22.7,25.16,West,270,17.2,22.4,13,0.00,,---,0.00,VWS V14.01,2013-03-17 22:27:00,
2013-03-17 17:28:00,77.5,22.9,25.16,WSW,248,17.2,17.7,13,0.00,,---,0.00,VWS V14.01,2013-03-17 22:28:00,
2013-03-17 17:29:00,77.7,23.0,25.16,West,270,27.5,27.5,13,0.00,,---,0.00,VWS V14.01,2013-03-17 22:29:00,
2013-03-17 17:30:00,77.4,22.7,25.16,WSW,248,22.6,27.5,13,0.00,,---,0.00,VWS V14.01,2013-03-17 22:30:00,
2013-03-17 17:31:00,77.2,22.6,25.16,West,270,26.0,26.0,13,0.00,,---,0.00,VWS V14.01,2013-03-17 22:31:00,
2013-03-17 17:32:00,77.2,22.6,25.16,West,270,27.5,27.5,13,0.00,,---,0.00,VWS V14.01,2013-03-17 22:32:00,
2013-03-17 17:33:00,77.2,22.6,25.16,WSW,248,28.4,28.9,13,0.00,,---,0.00,VWS V14.01,2013-03-17 22:33:00,
2013-03-17 17:34:00,77.2,22.6,25.16,WSW,248,25.7,28.4,13,0.00,,---,0.00,VWS V14.01,2013-03-17 22:34:00,
2013-03-17 17:35:00,77.2,22.6,25.16,WSW,248,25.7,25.7,13,0.00,,---,0.00,VWS V14.01,2013-03-17 22:35:00,
2013-03-17 17:36:00,77.2,22.6,25.16,WSW,248,25.7,25.7,13,0.00,,---,0.00,VWS V14.01,2013-03-17 22:36:00,
2013-03-17 17:37:00,77.2,22.6,25.16,WSW,248,25.7,25.7,13,0.00,,---,0.00,VWS V14.01,2013-03-17 22:37:00,
2013-03-17 17:38:00,77.2,22.6,25.16,WSW,248,25.7,25.7,13,0.00,,---,0.00,VWS V14.01,2013-03-17 22:38:00,
2013-03-17 17:39:00,77.2,22.6,25.19,WSW,248,25.7,25.7,13,0.00,,---,0.00,VWS V14.01,2013-03-17 22:39:00,
2013-03-17 17:40:00,77.0,22.4,25.19,WSW,248,25.7,25.7,13,0.00,,---,0.00,VWS V14.01,2013-03-17 22:40:00,
2013-03-17 17:41:00,76.6,22.1,25.19,WSW,248,25.7,25.7,13,0.00,,---,0.00,VWS V14.01,2013-03-17 22:41:00,
2013-03-17 17:42:00,76.6,22.1,25.19,WSW,248,25.7,25.7,13,0.00,,---,0.00,VWS V14.01,2013-03-17 22:42:00,
2013-03-17 17:43:00,76.6,22.1,25.19,WSW,248,25.7,25.7,13,0.00,,---,0.00,VWS V14.01,2013-03-17 22:43:00,
2013-03-17 17:44:00,76.6,22.1,25.19,WSW,248,25.7,25.7,13,0.00,,---,0.00,VWS V14.01,2013-03-17 22:44:00,
2013-03-17 17:45:00,76.8,22.3,25.19,WSW,248,25.7,25.7,13,0.00,,---,0.00,VWS V14.01,2013-03-17 22:45:00,
2013-03-17 17:46:00,76.8,22.3,25.19,WSW,248,25.7,25.7,13,0.00,,---,0.00,VWS V14.01,2013-03-17 22:46:00,
2013-03-17 17:47:00,76.6,22.1,25.19,West,270,17.5,25.7,13,0.00,,---,0.00,VWS V14.01,2013-03-17 22:47:00,
2013-03-17 17:48:00,77.0,22.4,25.19,West,270,13.6,17.5,13,0.00,,---,0.00,VWS V14.01,2013-03-17 22:48:00,
2013-03-17 17:49:00,77.2,22.6,25.19,WSW,248,14.8,14.8,13,0.00,,---,0.00,VWS V14.01,2013-03-17 22:49:00,
2013-03-17 17:50:00,77.4,22.7,25.19,West,270,14.8,14.8,13,0.00,,---,0.00,VWS V14.01,2013-03-17 22:50:00,
2013-03-17 17:51:00,77.4,22.7,25.19,West,270,14.8,14.8,13,0.00,,---,0.00,VWS V14.01,2013-03-17 22:51:00,
2013-03-17 17:52:00,77.2,22.6,25.19,West,270,17.2,22.4,13,0.00,,---,0.00,VWS V14.01,2013-03-17 22:52:00,
2013-03-17 17:53:00,77.2,22.6,25.19,West,270,17.2,17.2,13,0.00,,---,0.00,VWS V14.01,2013-03-17 22:53:00,
2013-03-17 17:54:00,76.8,22.3,25.19,West,270,24.4,24.4,13,0.00,,---,0.00,VWS V14.01,2013-03-17 22:54:00,
2013-03-17 17:55:00,77.0,22.4,25.19,West,270,24.4,24.4,13,0.00,,---,0.00,VWS V14.01,2013-03-17 22:55:00,
2013-03-17 17:56:00,76.8,22.3,25.19,WSW,248,29.5,29.5,13,0.00,,---,0.00,VWS V14.01,2013-03-17 22:56:00,
2013-03-17 17:57:00,76.8,22.3,25.19,WSW,248,29.5,29.5,13,0.00,,---,0.00,VWS V14.01,2013-03-17 22:57:00,
2013-03-17 17:58:00,76.6,22.1,25.19,WSW,248,29.5,29.5,13,0.00,,---,0.00,VWS V14.01,2013-03-17 22:58:00,
2013-03-17 17:59:00,76.5,22.0,25.19,West,270,28.9,29.5,13,0.00,,---,0.00,VWS V14.01,2013-03-17 22:59:00,
2013-03-17 18:00:00,76.5,22.0,25.19,WSW,248,33.1,36.7,13,0.00,,---,0.00,VWS V14.01,2013-03-17 23:00:00,
2013-03-17 18:01:00,76.3,21.9,25.19,West,270,25.5,33.1,13,0.00,,---,0.00,VWS V14.01,2013-03-17 23:01:00,
2013-03-17 18:02:00,76.1,21.7,25.19,West,270,28.0,32.0,13,0.00,,---,0.00,VWS V14.01,2013-03-17 23:02:00,
2013-03-17 18:03:00,76.1,21.7,25.19,WSW,248,26.4,29.8,13,0.00,,---,0.00,VWS V14.01,2013-03-17 23:03:00,
2013-03-17 18:04:00,76.1,21.7,25.19,West,270,27.7,27.7,13,0.00,,---,0.00,VWS V14.01,2013-03-17 23:04:00,
2013-03-17 18:05:00,76.1,21.7,25.19,West,270,27.7,27.7,13,0.00,,---,0.00,VWS V14.01,2013-03-17 23:05:00,
2013-03-17 18:06:00,76.1,21.7,25.19,West,270,27.7,27.7,13,0.00,,---,0.00,VWS V14.01,2013-03-17 23:06:00,
2013-03-17 18:07:00,76.1,21.7,25.19,West,270,27.7,27.7,13,0.00,,---,0.00,VWS V14.01,2013-03-17 23:07:00,
2013-03-17 18:08:00,76.1,21.7,25.19,West,270,27.7,27.7,13,0.00,,---,0.00,VWS V14.01,2013-03-17 23:08:00,
2013-03-17 18:09:00,76.1,21.7,25.19,West,270,27.7,27.7,13,0.00,,---,0.00,VWS V14.01,2013-03-17 23:09:00,
2013-03-17 18:10:00,76.1,21.7,25.19,West,270,27.7,27.7,13,0.00,,---,0.00,VWS V14.01,2013-03-17 23:10:00,
2013-03-17 18:11:00,75.9,21.6,25.19,West,270,27.7,27.7,13,0.00,,---,0.00,VWS V14.01,2013-03-17 23:11:00,
2013-03-17 18:12:00,75.9,21.6,25.19,West,270,27.7,27.7,13,0.00,,---,0.00,VWS V14.01,2013-03-17 23:12:00,
2013-03-17 18:13:00,75.7,21.5,25.19,West,270,27.7,27.7,13,0.00,,---,0.00,VWS V14.01,2013-03-17 23:13:00,
2013-03-17 18:14:00,75.7,21.5,25.19,West,270,19.0,27.7,13,0.00,,---,0.00,VWS V14.01,2013-03-17 23:14:00,
2013-03-17 18:15:00,75.6,21.3,25.19,West,270,23.9,27.1,13,0.00,,---,0.00,VWS V14.01,2013-03-17 23:15:00,
2013-03-17 18:16:00,75.7,21.5,25.19,WNW,292,26.9,26.9,13,0.00,,---,0.00,VWS V14.01,2013-03-17 23:16:00,
2013-03-17 18:17:00,75.7,21.5,25.19,West,270,22.8,26.9,13,0.00,,---,0.00,VWS V14.01,2013-03-17 23:17:00,
2013-03-17 18:18:00,75.7,21.5,25.19,West,270,17.9,22.8,13,0.00,,---,0.00,VWS V14.01,2013-03-17 23:18:00,
2013-03-17 18:19:00,75.7,21.5,25.19,WSW,248,21.3,25.1,13,0.00,,---,0.00,VWS V14.01,2013-03-17 23:19:00,
2013-03-17 18:20:00,75.9,21.6,25.19,WSW,248,23.5,27.3,13,0.00,,---,0.00,VWS V14.01,2013-03-17 23:20:00,
2013-03-17 18:21:00,75.7,21.5,25.19,WSW,248,22.8,23.5,13,0.00,,---,0.00,VWS V14.01,2013-03-17 23:21:00,
2013-03-17 18:22:00,75.7,21.5,25.19,West,270,17.2,22.8,13,0.00,,---,0.00,VWS V14.01,2013-03-17 23:22:00,
2013-03-17 18:23:00,75.7,21.5,25.19,West,270,22.4,22.4,13,0.00,,---,0.00,VWS V14.01,2013-03-17 23:23:00,
2013-03-17 18:24:00,75.4,21.2,25.19,West,270,22.4,22.4,13,0.00,,---,0.00,VWS V14.01,2013-03-17 23:24:00,
2013-03-17 18:25:00,75.2,21.0,25.19,West,270,22.4,22.4,13,0.00,,---,0.00,VWS V14.01,2013-03-17 23:25:00,
2013-03-17 18:26:00,75.2,21.0,25.19,West,270,22.4,22.4,13,0.00,,---,0.00,VWS V14.01,2013-03-17 23:26:00,
2013-03-17 18:27:00,75.2,21.0,25.19,West,270,26.4,26.6,13,0.00,,---,0.00,VWS V14.01,2013-03-17 23:27:00,
2013-03-17 18:28:00,75.2,21.0,25.19,West,270,20.6,26.4,13,0.00,,---,0.00,VWS V14.01,2013-03-17 23:28:00,
2013-03-17 18:29:00,75.0,20.9,25.19,West,270,22.4,22.4,13,0.00,,---,0.00,VWS V14.01,2013-03-17 23:29:00,
2013-03-17 18:30:00,75.0,20.9,25.19,WSW,248,19.9,22.4,13,0.00,,---,0.00,VWS V14.01,2013-03-17 23:30:00,
2013-03-17 18:31:00,75.2,21.0,25.19,WSW,248,19.9,19.9,13,0.00,,---,0.00,VWS V14.01,2013-03-17 23:31:00,
2013-03-17 18:32:00,75.0,20.9,25.19,WSW,248,19.9,19.9,13,0.00,,---,0.00,VWS V14.01,2013-03-17 23:32:00,
2013-03-17 18:33:00,75.0,20.9,25.19,WSW,248,19.9,19.9,13,0.00,,---,0.00,VWS V14.01,2013-03-17 23:33:00,
2013-03-17 18:34:00,74.8,20.7,25.19,WSW,248,19.9,19.9,13,0.00,,---,0.00,VWS V14.01,2013-03-17 23:34:00,
2013-03-17 18:35:00,74.7,20.6,25.19,WSW,248,19.9,19.9,13,0.00,,---,0.00,VWS V14.01,2013-03-17 23:35:00,
2013-03-17 18:36:00,74.7,20.6,25.19,WSW,248,19.9,19.9,13,0.00,,---,0.00,VWS V14.01,2013-03-17 23:36:00,
2013-03-17 18:37:00,74.5,20.5,25.19,WSW,248,19.9,19.9,13,0.00,,---,0.00,VWS V14.01,2013-03-17 23:37:00,
2013-03-17 18:38:00,74.5,20.5,25.19,WSW,248,19.9,19.9,13,0.00,,---,0.00,VWS V14.01,2013-03-17 23:38:00,
2013-03-17 18:39:00,74.3,20.3,25.19,WSW,248,19.9,19.9,13,0.00,,---,0.00,VWS V14.01,2013-03-17 23:39:00,
2013-03-17 18:40:00,74.3,20.3,25.19,West,270,22.8,22.8,13,0.00,,---,0.00,VWS V14.01,2013-03-17 23:40:00,
2013-03-17 18:41:00,74.3,20.3,25.19,West,270,22.8,22.8,13,0.00,,---,0.00,VWS V14.01,2013-03-17 23:41:00,
2013-03-17 18:42:00,74.3,20.3,25.19,West,270,22.8,22.8,13,0.00,,---,0.00,VWS V14.01,2013-03-17 23:42:00,
2013-03-17 18:43:00,74.1,20.2,25.19,West,270,14.8,22.8,13,0.00,,---,0.00,VWS V14.01,2013-03-17 23:43:00,
2013-03-17 18:44:00,74.1,20.2,25.19,West,270,14.8,14.8,13,0.00,,---,0.00,VWS V14.01,2013-03-17 23:44:00,
2013-03-17 18:45:00,74.1,20.2,25.19,West,270,14.8,14.8,13,0.00,,---,0.00,VWS V14.01,2013-03-17 23:45:00,
2013-03-17 18:46:00,74.1,20.2,25.19,West,270,14.8,14.8,13,0.00,,---,0.00,VWS V14.01,2013-03-17 23:46:00,
2013-03-17 18:47:00,73.9,20.0,25.19,West,270,17.7,17.7,13,0.00,,---,0.00,VWS V14.01,2013-03-17 23:47:00,
2013-03-17 18:48:00,73.9,20.0,25.19,West,270,18.8,18.8,13,0.00,,---,0.00,VWS V14.01,2013-03-17 23:48:00,
2013-03-17 18:49:00,73.8,19.9,25.19,West,270,19.5,20.4,13,0.00,,---,0.00,VWS V14.01,2013-03-17 23:49:00,
2013-03-17 18:51:00,73.9,20.0,25.19,West,270,19.5,19.5,13,0.00,,---,0.00,VWS V14.01,2013-03-17 23:51:00,
2013-03-17 18:52:00,73.6,19.8,25.19,West,270,17.7,19.5,13,0.00,,---,0.00,VWS V14.01,2013-03-17 23:52:00,
2013-03-17 18:53:00,73.4,19.6,25.19,West,270,17.7,17.7,13,0.00,,---,0.00,VWS V14.01,2013-03-17 23:53:00,
2013-03-17 18:54:00,73.4,19.6,25.19,West,270,17.7,17.7,13,0.00,,---,0.00,VWS V14.01,2013-03-17 23:54:00,
2013-03-17 18:55:00,73.2,21.2,25.19,West,270,17.7,17.7,14,0.00,,---,0.00,VWS V14.01,2013-03-17 23:55:00,
2013-03-17 18:56:00,73.0,21.1,25.19,West,270,17.7,17.7,14,0.00,,---,0.00,VWS V14.01,2013-03-17 23:56:00,
2013-03-17 18:57:00,72.9,20.9,25.19,West,270,17.7,17.7,14,0.00,,---,0.00,VWS V14.01,2013-03-17 23:57:00,
2013-03-17 18:58:00,72.9,20.9,25.19,West,270,17.7,17.7,14,0.00,,---,0.00,VWS V14.01,2013-03-17 23:58:00,
2013-03-17 18:59:00,72.9,20.9,25.19,West,270,17.7,17.7,14,0.00,,---,0.00,VWS V14.01,2013-03-17 23:59:00,
2013-03-17 19:00:00,72.7,20.8,25.19,West,270,17.7,17.7,14,0.00,,---,0.00,VWS V14.01,2013-03-18 00:00:00,
2013-03-17 19:01:00,72.7,20.8,25.19,West,270,17.7,17.7,14,0.00,,---,0.00,VWS V14.01,2013-03-18 00:01:00,
2013-03-17 19:02:00,72.5,20.6,25.19,West,270,17.7,17.7,14,0.00,,---,0.00,VWS V14.01,2013-03-18 00:02:00,
2013-03-17 19:03:00,72.5,20.6,25.19,West,270,17.7,17.7,14,0.00,,---,0.00,VWS V14.01,2013-03-18 00:03:00,
2013-03-17 19:04:00,72.5,20.6,25.19,West,270,17.7,17.7,14,0.00,,---,0.00,VWS V14.01,2013-03-18 00:04:00,
2013-03-17 19:05:00,72.3,20.5,25.19,West,270,17.7,17.7,14,0.00,,---,0.00,VWS V14.01,2013-03-18 00:05:00,
2013-03-17 19:06:00,72.3,20.5,25.19,West,270,17.5,17.5,14,0.00,,---,0.00,VWS V14.01,2013-03-18 00:06:00,
2013-03-17 19:07:00,72.1,20.4,25.19,West,270,17.5,17.5,14,0.00,,---,0.00,VWS V14.01,2013-03-18 00:07:00,
2013-03-17 19:08:00,72.0,20.2,25.19,West,270,17.5,17.5,14,0.00,,---,0.00,VWS V14.01,2013-03-18 00:08:00,
2013-03-17 19:09:00,72.0,20.2,25.19,West,270,17.5,17.5,14,0.00,,---,0.00,VWS V14.01,2013-03-18 00:09:00,
2013-03-17 19:10:00,72.0,20.2,25.19,West,270,17.5,17.5,14,0.00,,---,0.00,VWS V14.01,2013-03-18 00:10:00,
2013-03-17 19:11:00,71.6,19.9,25.19,West,270,17.5,17.5,14,0.00,,---,0.00,VWS V14.01,2013-03-18 00:11:00,
2013-03-17 19:12:00,71.4,19.8,25.19,West,270,17.5,17.5,14,0.00,,---,0.00,VWS V14.01,2013-03-18 00:12:00,
2013-03-17 19:13:00,71.4,19.8,25.19,West,270,17.5,17.5,14,0.00,,---,0.00,VWS V14.01,2013-03-18 00:13:00,
2013-03-17 19:14:00,71.2,19.6,25.19,West,270,17.5,17.5,14,0.00,,---,0.00,VWS V14.01,2013-03-18 00:14:00,
2013-03-17 19:15:00,71.2,19.6,25.19,West,270,17.5,17.5,14,0.00,,---,0.00,VWS V14.01,2013-03-18 00:15:00,
2013-03-17 19:16:00,71.2,19.6,25.19,West,270,17.5,17.5,14,0.00,,---,0.00,VWS V14.01,2013-03-18 00:16:00,
2013-03-17 19:17:00,71.2,19.6,25.19,West,270,17.5,17.5,14,0.00,,---,0.00,VWS V14.01,2013-03-18 00:17:00,
2013-03-17 19:18:00,71.4,19.8,25.19,West,270,17.5,17.5,14,0.00,,---,0.00,VWS V14.01,2013-03-18 00:18:00,
2013-03-17 19:19:00,71.2,19.6,25.19,West,270,17.5,17.5,14,0.00,,---,0.00,VWS V14.01,2013-03-18 00:19:00,
2013-03-17 19:20:00,71.2,19.6,25.19,West,270,17.5,17.5,14,0.00,,---,0.00,VWS V14.01,2013-03-18 00:20:00,
2013-03-17 19:21:00,71.2,19.6,25.19,West,270,17.5,17.5,14,0.00,,---,0.00,VWS V14.01,2013-03-18 00:21:00,
2013-03-17 19:22:00,71.1,19.5,25.19,West,270,17.5,17.5,14,0.00,,---,0.00,VWS V14.01,2013-03-18 00:22:00,
2013-03-17 19:23:00,71.1,19.5,25.19,West,270,17.5,17.5,14,0.00,,---,0.00,VWS V14.01,2013-03-18 00:23:00,
2013-03-17 19:24:00,71.1,19.5,25.19,West,270,15.4,17.9,14,0.00,,---,0.00,VWS V14.01,2013-03-18 00:24:00,
2013-03-17 19:25:00,70.9,19.4,25.19,WSW,248,12.5,15.4,14,0.00,,---,0.00,VWS V14.01,2013-03-18 00:25:00,
2013-03-17 19:26:00,70.9,19.4,25.19,West,270,12.5,12.5,14,0.00,,---,0.00,VWS V14.01,2013-03-18 00:26:00,
2013-03-17 19:27:00,70.9,19.4,25.19,West,270,12.5,12.5,14,0.00,,---,0.00,VWS V14.01,2013-03-18 00:27:00,
2013-03-17 19:28:00,70.9,19.4,25.19,West,270,12.5,12.5,14,0.00,,---,0.00,VWS V14.01,2013-03-18 00:28:00,
2013-03-17 19:29:00,70.9,19.4,25.19,West,270,15.2,15.2,14,0.00,,---,0.00,VWS V14.01,2013-03-18 00:29:00,
2013-03-17 19:30:00,70.9,19.4,25.19,West,270,15.2,15.2,14,0.00,,---,0.00,VWS V14.01,2013-03-18 00:30:00,
2013-03-17 19:31:00,70.9,19.4,25.19,West,270,13.0,13.0,14,0.00,,---,0.00,VWS V14.01,2013-03-18 00:31:00,
2013-03-17 19:32:00,70.7,19.2,25.19,West,270,13.4,13.9,14,0.00,,---,0.00,VWS V14.01,2013-03-18 00:32:00,
2013-03-17 19:33:00,70.7,19.2,25.19,WSW,248,13.0,13.4,14,0.00,,---,0.00,VWS V14.01,2013-03-18 00:33:00,
2013-03-17 19:34:00,70.3,18.9,25.19,WSW,248,9.0,13.0,14,0.00,,---,0.00,VWS V14.01,2013-03-18 00:34:00,
2013-03-17 19:35:00,70.3,18.9,25.19,WSW,248,9.0,9.0,14,0.00,,---,0.00,VWS V14.01,2013-03-18 00:35:00,
2013-03-17 19:36:00,70.2,18.8,25.19,West,270,14.3,14.3,14,0.00,,---,0.00,VWS V14.01,2013-03-18 00:36:00,
2013-03-17 19:37:00,70.2,18.8,25.19,West,270,14.3,14.3,14,0.00,,---,0.00,VWS V14.01,2013-03-18 00:37:00,
2013-03-17 19:38:00,70.2,18.8,25.19,WSW,248,9.8,14.3,14,0.00,,---,0.00,VWS V14.01,2013-03-18 00:38:00,
2013-03-17 19:39:00,70.0,18.6,25.19,WSW,248,9.8,9.8,14,0.00,,---,0.00,VWS V14.01,2013-03-18 00:39:00,
2013-03-17 19:40:00,70.0,18.6,25.19,WSW,248,9.8,9.8,14,0.00,,---,0.00,VWS V14.01,2013-03-18 00:40:00,
2013-03-17 19:41:00,69.8,18.5,25.19,WSW,248,9.8,9.8,14,0.00,,---,0.00,VWS V14.01,2013-03-18 00:41:00,
2013-03-17 19:42:00,69.8,18.5,25.19,WSW,248,9.8,9.8,14,0.00,,---,0.00,VWS V14.01,2013-03-18 00:42:00,
2013-03-17 19:44:00,69.4,19.8,25.19,WSW,248,9.8,9.8,15,0.00,,---,0.00,VWS V14.01,2013-03-18 00:44:00,
2013-03-17 19:45:00,69.4,19.8,25.19,WSW,248,9.8,9.8,15,0.00,,---,0.00,VWS V14.01,2013-03-18 00:45:00,
2013-03-17 19:46:00,69.4,19.8,25.19,WSW,248,9.8,9.8,15,0.00,,---,0.00,VWS V14.01,2013-03-18 00:46:00,
2013-03-17 19:47:00,69.3,19.7,25.19,WSW,248,9.8,9.8,15,0.00,,---,0.00,VWS V14.01,2013-03-18 00:47:00,
2013-03-17 19:48:00,69.1,19.5,25.19,WSW,248,9.8,9.8,15,0.00,,---,0.00,VWS V14.01,2013-03-18 00:48:00,
2013-03-17 19:49:00,68.9,19.4,25.19,WSW,248,9.8,9.8,15,0.00,,---,0.00,VWS V14.01,2013-03-18 00:49:00,
2013-03-17 19:50:00,68.7,19.2,25.19,WSW,248,9.8,9.8,15,0.00,,---,0.00,VWS V14.01,2013-03-18 00:50:00,
2013-03-17 19:51:00,68.5,19.1,25.19,WSW,248,9.8,9.8,15,0.00,,---,0.00,VWS V14.01,2013-03-18 00:51:00,
2013-03-17 19:52:00,68.9,19.4,25.19,WSW,248,9.8,9.8,15,0.00,,---,0.00,VWS V14.01,2013-03-18 00:52:00,
2013-03-17 19:53:00,69.1,19.5,25.19,WSW,248,9.8,9.8,15,0.00,,---,0.00,VWS V14.01,2013-03-18 00:53:00,
2013-03-17 19:54:00,69.1,19.5,25.22,WSW,248,9.8,9.8,15,0.00,,---,0.00,VWS V14.01,2013-03-18 00:54:00,
2013-03-17 19:55:00,68.9,19.4,25.22,WSW,248,9.8,9.8,15,0.00,,---,0.00,VWS V14.01,2013-03-18 00:55:00,
2013-03-17 19:56:00,68.9,19.4,25.22,WSW,248,9.8,9.8,15,0.00,,---,0.00,VWS V14.01,2013-03-18 00:56:00,
2013-03-17 19:57:00,68.7,19.2,25.22,WSW,248,9.8,9.8,15,0.00,,---,0.00,VWS V14.01,2013-03-18 00:57:00,
2013-03-17 19:58:00,68.5,19.1,25.22,WSW,248,9.8,9.8,15,0.00,,---,0.00,VWS V14.01,2013-03-18 00:58:00,
2013-03-17 19:59:00,68.5,19.1,25.22,WSW,248,9.8,9.8,15,0.00,,---,0.00,VWS V14.01,2013-03-18 00:59:00,
2013-03-17 20:00:00,68.5,19.1,25.22,WSW,248,9.8,9.8,15,0.00,,---,0.00,VWS V14.01,2013-03-18 01:00:00,
2013-03-17 20:01:00,68.2,18.8,25.22,WSW,248,9.8,9.8,15,0.00,,---,0.00,VWS V14.01,2013-03-18 01:01:00,
2013-03-17 20:02:00,68.2,18.8,25.22,WSW,248,9.8,9.8,15,0.00,,---,0.00,VWS V14.01,2013-03-18 01:02:00,
2013-03-17 20:03:00,68.0,18.7,25.22,WSW,248,9.8,9.8,15,0.00,,---,0.00,VWS V14.01,2013-03-18 01:03:00,
2013-03-17 20:04:00,67.8,18.5,25.22,WSW,248,9.8,9.8,15,0.00,,---,0.00,VWS V14.01,2013-03-18 01:04:00,
2013-03-17 20:05:00,67.8,18.5,25.22,WSW,248,9.8,9.8,15,0.00,,---,0.00,VWS V14.01,2013-03-18 01:05:00,
2013-03-17 20:06:00,67.8,18.5,25.22,WSW,248,9.8,9.8,15,0.00,,---,0.00,VWS V14.01,2013-03-18 01:06:00,
2013-03-17 20:07:00,67.8,18.5,25.22,WSW,248,9.8,9.8,15,0.00,,---,0.00,VWS V14.01,2013-03-18 01:07:00,
2013-03-17 20:08:00,67.8,18.5,25.22,WSW,248,9.8,9.8,15,0.00,,---,0.00,VWS V14.01,2013-03-18 01:08:00,
2013-03-17 20:09:00,67.6,18.4,25.22,WSW,248,9.8,9.8,15,0.00,,---,0.00,VWS V14.01,2013-03-18 01:09:00,
2013-03-17 20:10:00,67.6,18.4,25.22,WSW,248,9.8,9.8,15,0.00,,---,0.00,VWS V14.01,2013-03-18 01:10:00,
2013-03-17 20:11:00,67.5,18.2,25.22,WSW,248,9.8,9.8,15,0.00,,---,0.00,VWS V14.01,2013-03-18 01:11:00,
2013-03-17 20:12:00,67.1,17.9,25.22,WSW,248,9.8,9.8,15,0.00,,---,0.00,VWS V14.01,2013-03-18 01:12:00,
2013-03-17 20:13:00,67.1,17.9,25.22,WSW,248,9.8,9.8,15,0.00,,---,0.00,VWS V14.01,2013-03-18 01:13:00,
2013-03-17 20:14:00,67.1,17.9,25.22,WSW,248,9.8,9.8,15,0.00,,---,0.00,VWS V14.01,2013-03-18 01:14:00,
2013-03-17 20:15:00,66.9,17.8,25.22,WSW,248,9.8,9.8,15,0.00,,---,0.00,VWS V14.01,2013-03-18 01:15:00,
2013-03-17 20:16:00,66.7,17.6,25.22,WSW,248,9.8,9.8,15,0.00,,---,0.00,VWS V14.01,2013-03-18 01:16:00,
2013-03-17 20:17:00,66.9,17.8,25.22,WSW,248,9.8,9.8,15,0.00,,---,0.00,VWS V14.01,2013-03-18 01:17:00,
2013-03-17 20:18:00,66.9,17.8,25.22,WSW,248,9.8,9.8,15,0.00,,---,0.00,VWS V14.01,2013-03-18 01:18:00,
2013-03-17 20:19:00,66.9,17.8,25.22,WSW,248,9.8,9.8,15,0.00,,---,0.00,VWS V14.01,2013-03-18 01:19:00,
2013-03-17 20:20:00,66.9,17.8,25.22,WSW,248,9.8,9.8,15,0.00,,---,0.00,VWS V14.01,2013-03-18 01:20:00,
2013-03-17 20:21:00,66.9,17.8,25.22,WSW,248,9.8,9.8,15,0.00,,---,0.00,VWS V14.01,2013-03-18 01:21:00,
2013-03-17 20:22:00,66.9,17.8,25.22,WSW,248,9.8,9.8,15,0.00,,---,0.00,VWS V14.01,2013-03-18 01:22:00,
2013-03-17 20:23:00,66.7,17.6,25.22,WSW,248,9.8,9.8,15,0.00,,---,0.00,VWS V14.01,2013-03-18 01:23:00,
2013-03-17 20:24:00,66.9,17.8,25.22,WSW,248,9.8,9.8,15,0.00,,---,0.00,VWS V14.01,2013-03-18 01:24:00,
2013-03-17 20:25:00,66.9,17.8,25.22,WSW,248,9.8,9.8,15,0.00,,---,0.00,VWS V14.01,2013-03-18 01:25:00,
2013-03-17 20:26:00,66.7,17.6,25.22,WSW,248,9.8,9.8,15,0.00,,---,0.00,VWS V14.01,2013-03-18 01:26:00,
2013-03-17 20:27:00,66.7,17.6,25.22,SW,225,9.0,9.8,15,0.00,,---,0.00,VWS V14.01,2013-03-18 01:27:00,
2013-03-17 20:28:00,66.7,17.6,25.22,WSW,248,7.4,9.0,15,0.00,,---,0.00,VWS V14.01,2013-03-18 01:28:00,
2013-03-17 20:29:00,66.7,17.6,25.22,WSW,248,8.5,12.3,15,0.00,,---,0.00,VWS V14.01,2013-03-18 01:29:00,
2013-03-17 20:30:00,67.1,17.9,25.22,WSW,248,8.5,8.5,15,0.00,,---,0.00,VWS V14.01,2013-03-18 01:30:00,
2013-03-17 20:31:00,67.1,17.9,25.22,WSW,248,8.5,8.5,15,0.00,,---,0.00,VWS V14.01,2013-03-18 01:31:00,
2013-03-17 20:32:00,67.1,17.9,25.22,WSW,248,8.5,8.5,15,0.00,,---,0.00,VWS V14.01,2013-03-18 01:32:00,
2013-03-17 20:33:00,67.1,17.9,25.22,WSW,248,8.5,8.5,15,0.00,,---,0.00,VWS V14.01,2013-03-18 01:33:00,
2013-03-17 20:34:00,67.3,18.1,25.22,WSW,248,8.5,8.5,15,0.00,,---,0.00,VWS V14.01,2013-03-18 01:34:00,
2013-03-17 20:35:00,67.3,18.1,25.22,WSW,248,8.5,8.5,15,0.00,,---,0.00,VWS V14.01,2013-03-18 01:35:00,
2013-03-17 20:36:00,67.3,18.1,25.22,WSW,248,8.5,8.5,15,0.00,,---,0.00,VWS V14.01,2013-03-18 01:36:00,
2013-03-17 20:37:00,67.3,18.1,25.22,WSW,248,8.5,8.5,15,0.00,,---,0.00,VWS V14.01,2013-03-18 01:37:00,
2013-03-17 20:38:00,67.3,18.1,25.22,WSW,248,8.5,8.5,15,0.00,,---,0.00,VWS V14.01,2013-03-18 01:38:00,
2013-03-17 20:39:00,67.3,18.1,25.22,WSW,248,8.5,8.5,15,0.00,,---,0.00,VWS V14.01,2013-03-18 01:39:00,
2013-03-17 20:40:00,67.5,18.2,25.22,WSW,248,8.5,8.5,15,0.00,,---,0.00,VWS V14.01,2013-03-18 01:40:00,
2013-03-17 20:41:00,67.5,18.2,25.22,WSW,248,8.5,8.5,15,0.00,,---,0.00,VWS V14.01,2013-03-18 01:41:00,
2013-03-17 20:42:00,67.5,18.2,25.22,WSW,248,8.5,8.5,15,0.00,,---,0.00,VWS V14.01,2013-03-18 01:42:00,
2013-03-17 20:43:00,67.5,18.2,25.22,West,270,8.1,8.5,15,0.00,,---,0.00,VWS V14.01,2013-03-18 01:43:00,
2013-03-17 20:44:00,67.5,18.2,25.22,West,270,8.1,8.1,15,0.00,,---,0.00,VWS V14.01,2013-03-18 01:44:00,
2013-03-17 20:45:00,67.5,18.2,25.22,West,270,8.1,8.1,15,0.00,,---,0.00,VWS V14.01,2013-03-18 01:45:00,
2013-03-17 20:46:00,67.5,18.2,25.22,West,270,8.1,8.1,15,0.00,,---,0.00,VWS V14.01,2013-03-18 01:46:00,
2013-03-17 20:47:00,67.1,17.9,25.22,West,270,8.1,8.1,15,0.00,,---,0.00,VWS V14.01,2013-03-18 01:47:00,
2013-03-17 20:48:00,67.3,18.1,25.22,West,270,8.1,8.1,15,0.00,,---,0.00,VWS V14.01,2013-03-18 01:48:00,
2013-03-17 20:49:00,67.1,17.9,25.22,West,270,8.1,8.1,15,0.00,,---,0.00,VWS V14.01,2013-03-18 01:49:00,
2013-03-17 20:50:00,67.1,17.9,25.22,West,270,8.1,8.1,15,0.00,,---,0.00,VWS V14.01,2013-03-18 01:50:00,
2013-03-17 20:51:00,67.1,17.9,25.22,West,270,8.1,8.1,15,0.00,,---,0.00,VWS V14.01,2013-03-18 01:51:00,
2013-03-17 20:52:00,66.9,17.8,25.22,West,270,8.1,8.1,15,0.00,,---,0.00,VWS V14.01,2013-03-18 01:52:00,
2013-03-17 20:53:00,67.1,17.9,25.22,West,270,8.1,8.1,15,0.00,,---,0.00,VWS V14.01,2013-03-18 01:53:00,
2013-03-17 20:54:00,67.1,17.9,25.22,West,270,8.1,8.1,15,0.00,,---,0.00,VWS V14.01,2013-03-18 01:54:00,
2013-03-17 20:55:00,67.1,17.9,25.22,West,270,8.1,8.1,15,0.00,,---,0.00,VWS V14.01,2013-03-18 01:55:00,
2013-03-17 20:56:00,67.1,17.9,25.22,West,270,8.1,8.1,15,0.00,,---,0.00,VWS V14.01,2013-03-18 01:56:00,
2013-03-17 20:57:00,67.1,17.9,25.22,West,270,8.1,8.1,15,0.00,,---,0.00,VWS V14.01,2013-03-18 01:57:00,
2013-03-17 20:58:00,67.1,17.9,25.22,West,270,8.1,8.1,15,0.00,,---,0.00,VWS V14.01,2013-03-18 01:58:00,
2013-03-17 20:59:00,66.9,17.8,25.22,West,270,8.1,8.1,15,0.00,,---,0.00,VWS V14.01,2013-03-18 01:59:00,
2013-03-17 21:00:00,66.7,17.6,25.22,West,270,8.1,8.1,15,0.00,,---,0.00,VWS V14.01,2013-03-18 02:00:00,
2013-03-17 21:01:00,66.9,17.8,25.22,West,270,8.1,8.1,15,0.00,,---,0.00,VWS V14.01,2013-03-18 02:01:00,
2013-03-17 21:02:00,66.9,17.8,25.22,West,270,8.1,8.1,15,0.00,,---,0.00,VWS V14.01,2013-03-18 02:02:00,
2013-03-17 21:03:00,66.9,17.8,25.22,West,270,8.1,8.1,15,0.00,,---,0.00,VWS V14.01,2013-03-18 02:03:00,
2013-03-17 21:04:00,66.7,17.6,25.22,West,270,8.1,8.1,15,0.00,,---,0.00,VWS V14.01,2013-03-18 02:04:00,
2013-03-17 21:05:00,66.9,17.8,25.22,West,270,8.1,8.1,15,0.00,,---,0.00,VWS V14.01,2013-03-18 02:05:00,
2013-03-17 21:06:00,67.1,17.9,25.22,West,270,8.1,8.1,15,0.00,,---,0.00,VWS V14.01,2013-03-18 02:06:00,
2013-03-17 21:07:00,67.1,17.9,25.22,West,270,8.1,8.1,15,0.00,,---,0.00,VWS V14.01,2013-03-18 02:07:00,
2013-03-17 21:08:00,67.1,17.9,25.22,West,270,8.1,8.1,15,0.00,,---,0.00,VWS V14.01,2013-03-18 02:08:00,
2013-03-17 21:09:00,67.1,17.9,25.25,West,270,8.1,8.1,15,0.00,,---,0.00,VWS V14.01,2013-03-18 02:09:00,
2013-03-17 21:10:00,67.3,18.1,25.25,West,270,8.1,8.1,15,0.00,,---,0.00,VWS V14.01,2013-03-18 02:10:00,
2013-03-17 21:11:00,67.1,17.9,25.25,West,270,8.1,8.1,15,0.00,,---,0.00,VWS V14.01,2013-03-18 02:11:00,
2013-03-17 21:12:00,67.1,17.9,25.25,West,270,8.1,8.1,15,0.00,,---,0.00,VWS V14.01,2013-03-18 02:12:00,
2013-03-17 21:13:00,67.1,17.9,25.25,West,270,8.1,8.1,15,0.00,,---,0.00,VWS V14.01,2013-03-18 02:13:00,
2013-03-17 21:14:00,67.6,18.4,25.25,West,270,8.1,8.1,15,0.00,,---,0.00,VWS V14.01,2013-03-18 02:14:00,
2013-03-17 21:15:00,67.8,18.5,25.25,West,270,8.1,8.1,15,0.00,,---,0.00,VWS V14.01,2013-03-18 02:15:00,
2013-03-17 21:16:00,68.0,18.7,25.25,West,270,8.1,8.1,15,0.00,,---,0.00,VWS V14.01,2013-03-18 02:16:00,
2013-03-17 21:17:00,67.6,18.4,25.25,West,270,8.1,8.1,15,0.00,,---,0.00,VWS V14.01,2013-03-18 02:17:00,
2013-03-17 21:18:00,67.5,18.2,25.25,West,270,8.1,8.1,15,0.00,,---,0.00,VWS V14.01,2013-03-18 02:18:00,
2013-03-17 21:19:00,67.5,18.2,25.25,West,270,8.1,8.1,15,0.00,,---,0.00,VWS V14.01,2013-03-18 02:19:00,
2013-03-17 21:20:00,67.3,18.1,25.25,West,270,8.1,8.1,15,0.00,,---,0.00,VWS V14.01,2013-03-18 02:20:00,
2013-03-17 21:21:00,67.8,18.5,25.25,West,270,8.1,8.1,15,0.00,,---,0.00,VWS V14.01,2013-03-18 02:21:00,
2013-03-17 21:22:00,67.5,18.2,25.25,West,270,8.1,8.1,15,0.00,,---,0.00,VWS V14.01,2013-03-18 02:22:00,
2013-03-17 21:23:00,67.5,18.2,25.25,West,270,8.1,8.1,15,0.00,,---,0.00,VWS V14.01,2013-03-18 02:23:00,
2013-03-17 21:24:00,67.5,18.2,25.25,West,270,8.1,8.1,15,0.00,,---,0.00,VWS V14.01,2013-03-18 02:24:00,
2013-03-17 21:25:00,67.5,18.2,25.25,West,270,8.1,8.1,15,0.00,,---,0.00,VWS V14.01,2013-03-18 02:25:00,
2013-03-17 21:26:00,67.5,18.2,25.25,West,270,8.1,8.1,15,0.00,,---,0.00,VWS V14.01,2013-03-18 02:26:00,
2013-03-17 21:27:00,67.5,18.2,25.25,West,270,8.1,8.1,15,0.00,,---,0.00,VWS V14.01,2013-03-18 02:27:00,
2013-03-17 21:28:00,67.3,18.1,25.25,West,270,8.1,8.1,15,0.00,,---,0.00,VWS V14.01,2013-03-18 02:28:00,
2013-03-17 21:29:00,67.6,18.4,25.25,West,270,8.1,8.1,15,0.00,,---,0.00,VWS V14.01,2013-03-18 02:29:00,
2013-03-17 21:30:00,67.6,18.4,25.25,West,270,8.1,8.1,15,0.00,,---,0.00,VWS V14.01,2013-03-18 02:30:00,
2013-03-17 21:31:00,67.5,18.2,25.25,West,270,8.1,8.1,15,0.00,,---,0.00,VWS V14.01,2013-03-18 02:31:00,
2013-03-17 21:32:00,67.5,18.2,25.25,West,270,8.1,8.1,15,0.00,,---,0.00,VWS V14.01,2013-03-18 02:32:00,
2013-03-17 21:33:00,67.5,18.2,25.25,West,270,8.1,8.1,15,0.00,,---,0.00,VWS V14.01,2013-03-18 02:33:00,
2013-03-17 21:34:00,67.5,18.2,25.25,West,270,8.1,8.1,15,0.00,,---,0.00,VWS V14.01,2013-03-18 02:34:00,
2013-03-17 21:35:00,66.7,17.6,25.25,West,270,8.1,8.1,15,0.00,,---,0.00,VWS V14.01,2013-03-18 02:35:00,
2013-03-17 21:36:00,66.7,17.6,25.25,West,270,8.1,8.1,15,0.00,,---,0.00,VWS V14.01,2013-03-18 02:36:00,
2013-03-17 21:37:00,66.6,17.5,25.25,West,270,8.1,8.1,15,0.00,,---,0.00,VWS V14.01,2013-03-18 02:37:00,
2013-03-17 21:38:00,66.4,17.4,25.25,West,270,8.1,8.1,15,0.00,,---,0.00,VWS V14.01,2013-03-18 02:38:00,
2013-03-17 21:39:00,66.4,17.4,25.25,West,270,8.1,8.1,15,0.00,,---,0.00,VWS V14.01,2013-03-18 02:39:00,
2013-03-17 21:40:00,66.2,17.2,25.25,West,270,8.1,8.1,15,0.00,,---,0.00,VWS V14.01,2013-03-18 02:40:00,
2013-03-17 21:41:00,66.2,17.2,25.25,West,270,8.1,8.1,15,0.00,,---,0.00,VWS V14.01,2013-03-18 02:41:00,
2013-03-17 21:42:00,66.0,17.1,25.25,West,270,8.1,8.1,15,0.00,,---,0.00,VWS V14.01,2013-03-18 02:42:00,
2013-03-17 21:43:00,65.8,16.9,25.25,West,270,8.1,8.1,15,0.00,,---,0.00,VWS V14.01,2013-03-18 02:43:00,
2013-03-17 21:44:00,65.7,16.8,25.25,West,270,8.1,8.1,15,0.00,,---,0.00,VWS V14.01,2013-03-18 02:44:00,
2013-03-17 21:45:00,65.5,16.6,25.25,West,270,8.1,8.1,15,0.00,,---,0.00,VWS V14.01,2013-03-18 02:45:00,
2013-03-17 21:46:00,65.5,16.6,25.25,SW,225,6.5,8.1,15,0.00,,---,0.00,VWS V14.01,2013-03-18 02:46:00,
2013-03-17 21:47:00,65.5,16.6,25.25,SW,225,6.5,6.5,15,0.00,,---,0.00,VWS V14.01,2013-03-18 02:47:00,
2013-03-17 21:48:00,65.3,16.5,25.25,SW,225,6.5,6.5,15,0.00,,---,0.00,VWS V14.01,2013-03-18 02:48:00,
2013-03-17 21:49:00,65.1,16.4,25.25,SW,225,6.5,6.5,15,0.00,,---,0.00,VWS V14.01,2013-03-18 02:49:00,
2013-03-17 21:50:00,65.1,16.4,25.25,SW,225,6.5,6.5,15,0.00,,---,0.00,VWS V14.01,2013-03-18 02:50:00,
2013-03-17 21:51:00,65.1,16.4,25.25,SW,225,6.5,6.5,15,0.00,,---,0.00,VWS V14.01,2013-03-18 02:51:00,
2013-03-17 21:52:00,65.5,16.6,25.25,SW,225,6.5,6.5,15,0.00,,---,0.00,VWS V14.01,2013-03-18 02:52:00,
2013-03-17 21:53:00,65.5,16.6,25.25,SW,225,6.5,6.5,15,0.00,,---,0.00,VWS V14.01,2013-03-18 02:53:00,
2013-03-17 21:54:00,65.3,16.5,25.25,SW,225,6.5,6.5,15,0.00,,---,0.00,VWS V14.01,2013-03-18 02:54:00,
2013-03-17 21:55:00,65.3,16.5,25.25,WSW,248,7.6,7.6,15,0.00,,---,0.00,VWS V14.01,2013-03-18 02:55:00,
2013-03-17 21:56:00,65.3,16.5,25.25,WSW,248,7.6,7.6,15,0.00,,---,0.00,VWS V14.01,2013-03-18 02:56:00,
2013-03-17 21:57:00,65.1,16.4,25.25,WSW,248,7.6,7.6,15,0.00,,---,0.00,VWS V14.01,2013-03-18 02:57:00,
2013-03-17 21:58:00,65.1,16.4,25.25,WSW,248,7.6,7.6,15,0.00,,---,0.00,VWS V14.01,2013-03-18 02:58:00,
2013-03-17 21:59:00,65.7,16.8,25.25,WSW,248,7.6,7.6,15,0.00,,---,0.00,VWS V14.01,2013-03-18 02:59:00,
2013-03-17 22:00:00,65.5,16.6,25.25,WSW,248,7.6,7.6,15,0.00,,---,0.00,VWS V14.01,2013-03-18 03:00:00,
2013-03-17 22:01:00,65.3,16.5,25.25,WSW,248,7.6,7.6,15,0.00,,---,0.00,VWS V14.01,2013-03-18 03:01:00,
2013-03-17 22:02:00,65.3,16.5,25.25,WSW,248,7.6,7.6,15,0.00,,---,0.00,VWS V14.01,2013-03-18 03:02:00,
2013-03-17 22:03:00,65.5,16.6,25.25,WSW,248,7.6,7.6,15,0.00,,---,0.00,VWS V14.01,2013-03-18 03:03:00,
2013-03-17 22:04:00,65.5,16.6,25.25,WSW,248,7.6,7.6,15,0.00,,---,0.00,VWS V14.01,2013-03-18 03:04:00,
2013-03-17 22:05:00,65.5,16.6,25.25,WSW,248,7.6,7.6,15,0.00,,---,0.00,VWS V14.01,2013-03-18 03:05:00,
2013-03-17 22:06:00,65.8,16.9,25.25,WSW,248,7.6,7.6,15,0.00,,---,0.00,VWS V14.01,2013-03-18 03:06:00,
2013-03-17 22:07:00,65.8,16.9,25.25,WSW,248,7.6,7.6,15,0.00,,---,0.00,VWS V14.01,2013-03-18 03:07:00,
2013-03-17 22:08:00,66.0,17.1,25.25,WSW,248,7.6,7.6,15,0.00,,---,0.00,VWS V14.01,2013-03-18 03:08:00,
2013-03-17 22:09:00,66.0,17.1,25.25,WSW,248,7.6,7.6,15,0.00,,---,0.00,VWS V14.01,2013-03-18 03:09:00,
2013-03-17 22:10:00,66.2,17.2,25.25,WSW,248,7.6,7.6,15,0.00,,---,0.00,VWS V14.01,2013-03-18 03:10:00,
2013-03-17 22:11:00,66.2,17.2,25.25,WSW,248,7.6,7.6,15,0.00,,---,0.00,VWS V14.01,2013-03-18 03:11:00,
2013-03-17 22:12:00,66.4,17.4,25.25,WSW,248,7.6,7.6,15,0.00,,---,0.00,VWS V14.01,2013-03-18 03:12:00,
2013-03-17 22:13:00,66.4,17.4,25.25,West,270,11.0,11.0,15,0.00,,---,0.00,VWS V14.01,2013-03-18 03:13:00,
2013-03-17 22:14:00,66.4,17.4,25.25,West,270,11.0,11.0,15,0.00,,---,0.00,VWS V14.01,2013-03-18 03:14:00,
2013-03-17 22:15:00,66.2,17.2,25.25,West,270,11.0,11.0,15,0.00,,---,0.00,VWS V14.01,2013-03-18 03:15:00,
2013-03-17 22:16:00,66.2,17.2,25.25,West,270,11.0,11.0,15,0.00,,---,0.00,VWS V14.01,2013-03-18 03:16:00,
2013-03-17 22:17:00,66.4,17.4,25.25,West,270,11.0,11.0,15,0.00,,---,0.00,VWS V14.01,2013-03-18 03:17:00,
2013-03-17 22:18:00,66.4,17.4,25.25,West,270,11.0,11.0,15,0.00,,---,0.00,VWS V14.01,2013-03-18 03:18:00,
2013-03-17 22:19:00,66.6,17.5,25.25,West,270,10.5,11.0,15,0.00,,---,0.00,VWS V14.01,2013-03-18 03:19:00,
2013-03-17 22:20:00,66.7,17.6,25.25,West,270,9.8,10.5,15,0.00,,---,0.00,VWS V14.01,2013-03-18 03:20:00,
2013-03-17 22:21:00,66.6,17.5,25.25,West,270,9.8,9.8,15,0.00,,---,0.00,VWS V14.01,2013-03-18 03:21:00,
2013-03-17 22:22:00,66.6,17.5,25.25,West,270,8.1,9.8,15,0.00,,---,0.00,VWS V14.01,2013-03-18 03:22:00,
2013-03-17 22:23:00,66.6,17.5,25.25,West,270,10.7,10.7,15,0.00,,---,0.00,VWS V14.01,2013-03-18 03:23:00,
2013-03-17 22:24:00,66.6,17.5,25.25,West,270,10.7,10.7,15,0.00,,---,0.00,VWS V14.01,2013-03-18 03:24:00,
2013-03-17 22:25:00,66.6,17.5,25.25,West,270,10.7,10.7,15,0.00,,---,0.00,VWS V14.01,2013-03-18 03:25:00,
2013-03-17 22:26:00,66.6,17.5,25.25,West,270,10.7,10.7,15,0.00,,---,0.00,VWS V14.01,2013-03-18 03:26:00,
2013-03-17 22:27:00,66.4,17.4,25.25,West,270,10.7,10.7,15,0.00,,---,0.00,VWS V14.01,2013-03-18 03:27:00,
2013-03-17 22:28:00,66.4,17.4,25.25,West,270,10.7,10.7,15,0.00,,---,0.00,VWS V14.01,2013-03-18 03:28:00,
2013-03-17 22:29:00,66.2,17.2,25.25,West,270,10.7,10.7,15,0.00,,---,0.00,VWS V14.01,2013-03-18 03:29:00,
2013-03-17 22:30:00,66.4,17.4,25.25,West,270,10.7,10.7,15,0.00,,---,0.00,VWS V14.01,2013-03-18 03:30:00,
2013-03-17 22:31:00,66.4,17.4,25.25,West,270,10.7,10.7,15,0.00,,---,0.00,VWS V14.01,2013-03-18 03:31:00,
2013-03-17 22:32:00,66.4,17.4,25.25,West,270,10.7,10.7,15,0.00,,---,0.00,VWS V14.01,2013-03-18 03:32:00,
2013-03-17 22:33:00,66.2,17.2,25.25,West,270,10.7,10.7,15,0.00,,---,0.00,VWS V14.01,2013-03-18 03:33:00,
2013-03-17 22:34:00,66.2,17.2,25.25,West,270,10.7,10.7,15,0.00,,---,0.00,VWS V14.01,2013-03-18 03:34:00,
2013-03-17 22:35:00,66.4,17.4,25.25,West,270,10.7,10.7,15,0.00,,---,0.00,VWS V14.01,2013-03-18 03:35:00,
2013-03-17 22:36:00,66.2,17.2,25.25,West,270,10.7,10.7,15,0.00,,---,0.00,VWS V14.01,2013-03-18 03:36:00,
2013-03-17 22:37:00,66.0,17.1,25.25,West,270,10.7,10.7,15,0.00,,---,0.00,VWS V14.01,2013-03-18 03:37:00,
2013-03-17 22:38:00,66.0,17.1,25.25,West,270,10.7,10.7,15,0.00,,---,0.00,VWS V14.01,2013-03-18 03:38:00,
2013-03-17 22:39:00,65.8,16.9,25.28,West,270,10.7,10.7,15,0.00,,---,0.00,VWS V14.01,2013-03-18 03:39:00,
2013-03-17 22:40:00,65.8,16.9,25.28,West,270,10.7,10.7,15,0.00,,---,0.00,VWS V14.01,2013-03-18 03:40:00,
2013-03-17 22:41:00,65.8,16.9,25.28,West,270,10.7,10.7,15,0.00,,---,0.00,VWS V14.01,2013-03-18 03:41:00,
2013-03-17 22:42:00,65.8,16.9,25.28,West,270,10.7,10.7,15,0.00,,---,0.00,VWS V14.01,2013-03-18 03:42:00,
2013-03-17 22:43:00,65.8,16.9,25.28,West,270,10.7,10.7,15,0.00,,---,0.00,VWS V14.01,2013-03-18 03:43:00,
2013-03-17 22:44:00,65.7,16.8,25.28,West,270,10.7,10.7,15,0.00,,---,0.00,VWS V14.01,2013-03-18 03:44:00,
2013-03-17 22:45:00,65.7,16.8,25.28,West,270,10.7,10.7,15,0.00,,---,0.00,VWS V14.01,2013-03-18 03:45:00,
2013-03-17 22:46:00,65.3,16.5,25.28,West,270,10.7,10.7,15,0.00,,---,0.00,VWS V14.01,2013-03-18 03:46:00,
2013-03-17 22:47:00,65.3,16.5,25.28,West,270,10.7,10.7,15,0.00,,---,0.00,VWS V14.01,2013-03-18 03:47:00,
2013-03-17 22:48:00,65.1,16.4,25.28,West,270,10.7,10.7,15,0.00,,---,0.00,VWS V14.01,2013-03-18 03:48:00,
2013-03-17 22:50:00,65.1,16.4,25.28,West,270,10.7,10.7,15,0.00,,---,0.00,VWS V14.01,2013-03-18 03:50:00,
2013-03-17 22:51:00,65.7,16.8,25.28,West,270,10.7,10.7,15,0.00,,---,0.00,VWS V14.01,2013-03-18 03:51:00,
2013-03-17 22:52:00,65.5,16.6,25.28,West,270,10.7,10.7,15,0.00,,---,0.00,VWS V14.01,2013-03-18 03:52:00,
2013-03-17 22:53:00,65.5,16.6,25.28,West,270,10.7,10.7,15,0.00,,---,0.00,VWS V14.01,2013-03-18 03:53:00,
2013-03-17 22:54:00,65.8,16.9,25.28,West,270,10.7,10.7,15,0.00,,---,0.00,VWS V14.01,2013-03-18 03:54:00,
2013-03-17 22:55:00,65.7,16.8,25.28,West,270,10.7,10.7,15,0.00,,---,0.00,VWS V14.01,2013-03-18 03:55:00,
2013-03-17 22:56:00,65.7,16.8,25.28,West,270,10.7,10.7,15,0.00,,---,0.00,VWS V14.01,2013-03-18 03:56:00,
2013-03-17 22:57:00,65.7,16.8,25.28,West,270,10.7,10.7,15,0.00,,---,0.00,VWS V14.01,2013-03-18 03:57:00,
2013-03-17 22:58:00,65.3,16.5,25.28,West,270,10.7,10.7,15,0.00,,---,0.00,VWS V14.01,2013-03-18 03:58:00,
2013-03-17 22:59:00,65.5,16.6,25.28,West,270,10.7,10.7,15,0.00,,---,0.00,VWS V14.01,2013-03-18 03:59:00,
2013-03-17 23:00:00,65.5,16.6,25.28,West,270,10.7,10.7,15,0.00,,---,0.00,VWS V14.01,2013-03-18 04:00:00,
2013-03-17 23:01:00,65.5,16.6,25.28,West,270,10.7,10.7,15,0.00,,---,0.00,VWS V14.01,2013-03-18 04:01:00,
2013-03-17 23:02:00,65.7,16.8,25.28,West,270,10.7,10.7,15,0.00,,---,0.00,VWS V14.01,2013-03-18 04:02:00,
2013-03-17 23:03:00,65.3,16.5,25.28,West,270,10.7,10.7,15,0.00,,---,0.00,VWS V14.01,2013-03-18 04:03:00,
2013-03-17 23:04:00,65.3,16.5,25.28,West,270,10.7,10.7,15,0.00,,---,0.00,VWS V14.01,2013-03-18 04:04:00,
2013-03-17 23:05:00,65.3,16.5,25.28,West,270,10.7,10.7,15,0.00,,---,0.00,VWS V14.01,2013-03-18 04:05:00,
2013-03-17 23:07:00,64.9,16.2,25.28,West,270,10.7,10.7,15,0.00,,---,0.00,VWS V14.01,2013-03-18 04:07:00,
2013-03-17 23:08:00,64.8,16.1,25.28,West,270,10.7,10.7,15,0.00,,---,0.00,VWS V14.01,2013-03-18 04:08:00,
2013-03-17 23:09:00,64.8,16.1,25.28,West,270,10.7,10.7,15,0.00,,---,0.00,VWS V14.01,2013-03-18 04:09:00,
2013-03-17 23:10:00,64.6,15.9,25.28,West,270,10.7,10.7,15,0.00,,---,0.00,VWS V14.01,2013-03-18 04:10:00,
2013-03-17 23:11:00,64.4,15.8,25.28,West,270,10.7,10.7,15,0.00,,---,0.00,VWS V14.01,2013-03-18 04:11:00,
2013-03-17 23:12:00,64.0,17.0,25.28,West,270,10.7,10.7,16,0.00,,---,0.00,VWS V14.01,2013-03-18 04:12:00,
2013-03-17 23:13:00,63.7,16.7,25.28,West,270,10.7,10.7,16,0.00,,---,0.00,VWS V14.01,2013-03-18 04:13:00,
2013-03-17 23:14:00,63.3,16.4,25.28,West,270,10.7,10.7,16,0.00,,---,0.00,VWS V14.01,2013-03-18 04:14:00,
2013-03-17 23:15:00,63.0,16.1,25.28,West,270,10.7,10.7,16,0.00,,---,0.00,VWS V14.01,2013-03-18 04:15:00,
2013-03-17 23:16:00,62.8,15.9,25.28,West,270,10.7,10.7,16,0.00,,---,0.00,VWS V14.01,2013-03-18 04:16:00,
2013-03-17 23:17:00,62.6,15.8,25.28,West,270,10.7,10.7,16,0.00,,---,0.00,VWS V14.01,2013-03-18 04:17:00,
2013-03-17 23:18:00,62.4,15.7,25.28,SW,225,7.6,10.7,16,0.00,,---,0.00,VWS V14.01,2013-03-18 04:18:00,
2013-03-17 23:19:00,62.2,15.5,25.28,SW,225,7.6,7.6,16,0.00,,---,0.00,VWS V14.01,2013-03-18 04:19:00,
2013-03-17 23:20:00,62.2,15.5,25.28,SW,225,7.6,7.6,16,0.00,,---,0.00,VWS V14.01,2013-03-18 04:20:00,
2013-03-17 23:21:00,62.1,15.4,25.28,SW,225,7.6,7.6,16,0.00,,---,0.00,VWS V14.01,2013-03-18 04:21:00,
2013-03-17 23:22:00,62.1,15.4,25.28,SW,225,7.6,7.6,16,0.00,,---,0.00,VWS V14.01,2013-03-18 04:22:00,
2013-03-17 23:23:00,61.9,15.2,25.28,SW,225,7.6,7.6,16,0.00,,---,0.00,VWS V14.01,2013-03-18 04:23:00,
2013-03-17 23:24:00,61.9,15.2,25.31,SW,225,7.6,7.6,16,0.00,,---,0.00,VWS V14.01,2013-03-18 04:24:00,
2013-03-17 23:25:00,61.9,15.2,25.31,SW,225,7.6,7.6,16,0.00,,---,0.00,VWS V14.01,2013-03-18 04:25:00,
2013-03-17 23:26:00,61.7,15.1,25.31,SW,225,7.6,7.6,16,0.00,,---,0.00,VWS V14.01,2013-03-18 04:26:00,
2013-03-17 23:27:00,61.7,15.1,25.31,SW,225,7.6,7.6,16,0.00,,---,0.00,VWS V14.01,2013-03-18 04:27:00,
2013-03-17 23:28:00,61.7,15.1,25.31,SW,225,7.6,7.6,16,0.00,,---,0.00,VWS V14.01,2013-03-18 04:28:00,
2013-03-17 23:29:00,61.7,15.1,25.31,SW,225,7.6,7.6,16,0.00,,---,0.00,VWS V14.01,2013-03-18 04:29:00,
2013-03-17 23:30:00,61.7,15.1,25.31,SW,225,7.6,7.6,16,0.00,,---,0.00,VWS V14.01,2013-03-18 04:30:00,
2013-03-17 23:31:00,61.7,15.1,25.31,SW,225,7.6,7.6,16,0.00,,---,0.00,VWS V14.01,2013-03-18 04:31:00,
2013-03-17 23:32:00,61.7,15.1,25.31,SW,225,7.6,7.6,16,0.00,,---,0.00,VWS V14.01,2013-03-18 04:32:00,
2013-03-17 23:33:00,61.7,15.1,25.31,SW,225,7.6,7.6,16,0.00,,---,0.00,VWS V14.01,2013-03-18 04:33:00,
2013-03-17 23:34:00,61.7,15.1,25.31,SW,225,7.6,7.6,16,0.00,,---,0.00,VWS V14.01,2013-03-18 04:34:00,
2013-03-17 23:35:00,61.9,15.2,25.31,SW,225,7.6,7.6,16,0.00,,---,0.00,VWS V14.01,2013-03-18 04:35:00,
2013-03-17 23:36:00,62.1,15.4,25.31,SW,225,7.6,7.6,16,0.00,,---,0.00,VWS V14.01,2013-03-18 04:36:00,
2013-03-17 23:37:00,62.2,15.5,25.31,SW,225,7.6,7.6,16,0.00,,---,0.00,VWS V14.01,2013-03-18 04:37:00,
2013-03-17 23:38:00,62.2,15.5,25.31,SW,225,7.6,7.6,16,0.00,,---,0.00,VWS V14.01,2013-03-18 04:38:00,
2013-03-17 23:39:00,62.4,15.7,25.31,SW,225,7.6,7.6,16,0.00,,---,0.00,VWS V14.01,2013-03-18 04:39:00,
2013-03-17 23:40:00,62.6,15.8,25.31,SW,225,7.6,7.6,16,0.00,,---,0.00,VWS V14.01,2013-03-18 04:40:00,
2013-03-17 23:41:00,62.8,15.9,25.31,SW,225,7.6,7.6,16,0.00,,---,0.00,VWS V14.01,2013-03-18 04:41:00,
2013-03-17 23:42:00,62.8,15.9,25.31,SW,225,7.6,7.6,16,0.00,,---,0.00,VWS V14.01,2013-03-18 04:42:00,
2013-03-17 23:43:00,62.8,15.9,25.31,SW,225,7.6,7.6,16,0.00,,---,0.00,VWS V14.01,2013-03-18 04:43:00,
2013-03-17 23:44:00,63.0,16.1,25.31,SW,225,7.6,7.6,16,0.00,,---,0.00,VWS V14.01,2013-03-18 04:44:00,
2013-03-17 23:45:00,63.1,16.2,25.31,SW,225,7.6,7.6,16,0.00,,---,0.00,VWS V14.01,2013-03-18 04:45:00,
2013-03-17 23:46:00,63.3,16.4,25.31,SW,225,7.6,7.6,16,0.00,,---,0.00,VWS V14.01,2013-03-18 04:46:00,
2013-03-17 23:48:00,63.3,16.4,25.31,SW,225,7.6,7.6,16,0.00,,---,0.00,VWS V14.01,2013-03-18 04:48:00,
2013-03-17 23:49:00,63.1,16.2,25.31,SW,225,7.6,7.6,16,0.00,,---,0.00,VWS V14.01,2013-03-18 04:49:00,
2013-03-17 23:50:00,63.3,16.4,25.31,SW,225,7.6,7.6,16,0.00,,---,0.00,VWS V14.01,2013-03-18 04:50:00,
2013-03-17 23:51:00,63.5,16.5,25.31,SW,225,7.6,7.6,16,0.00,,---,0.00,VWS V14.01,2013-03-18 04:51:00,
2013-03-17 23:52:00,63.5,16.5,25.31,SW,225,7.6,7.6,16,0.00,,---,0.00,VWS V14.01,2013-03-18 04:52:00,
2013-03-17 23:53:00,63.5,16.5,25.31,SW,225,7.6,7.6,16,0.00,,---,0.00,VWS V14.01,2013-03-18 04:53:00,
2013-03-17 23:54:00,63.5,16.5,25.31,SW,225,7.6,7.6,16,0.00,,---,0.00,VWS V14.01,2013-03-18 04:54:00,
2013-03-17 23:55:00,63.5,16.5,25.31,SW,225,7.6,7.6,16,0.00,,---,0.00,VWS V14.01,2013-03-18 04:55:00,
2013-03-17 23:56:00,63.5,16.5,25.31,SW,225,7.6,7.6,16,0.00,,---,0.00,VWS V14.01,2013-03-18 04:56:00,
2013-03-17 23:57:00,63.5,16.5,25.31,SW,225,7.6,7.6,16,0.00,,---,0.00,VWS V14.01,2013-03-18 04:57:00,
2013-03-17 23:58:00,63.7,16.7,25.31,SW,225,7.6,7.6,16,0.00,,---,0.00,VWS V14.01,2013-03-18 04:58:00,
2013-03-17 23:59:00,63.7,16.7,25.31,SW,225,7.6,7.6,16,0.00,,---,0.00,VWS V14.01,2013-03-18 04:59:00,